[[{"header":{"parameterUnit":"m.s-1","parameterCategory":1,"la1":31.0,"la2":29.5877,"lo1":-88.7671,"lo2":-86.6584,"dy":0.0162,"dx":0.0185,"nx":115,"ny":88,"refTime":"2026-03-13T00:00:00:Z","depth":0,"parameterNumber":2,"parameterNumberName":"U-component_of_WINDS"},"data":[0.0,0.0,0.0,0.0,0.0,0.0,0.0,0.0,0.0,0.0,0.0,0.0,0.0,0.0,0.0,0.0,0.0,0.0,0.0,0.0,0.0,0.0,0.0,0.0,0.0,0.0,0.0,0.0,0.0,0.0,0.0,0.0,0.0,0.0,0.0,0.0,0.0,0.0,0.0,0.0,0.0,0.0,0.0,0.0,0.0,0.0,0.0,0.0,0.0,0.0,0.0,0.0,0.0,0.0,0.0,0.0,0.0,0.0,0.0,0.0,0.0,0.0,0.0,0.0,0.0,0.0,0.0,0.0,0.0,0.0,0.0,0.0,0.0,0.0,0.0,0.0,0.0,0.0,0.0,0.0,0.0,0.0,0.0,0.0,0.0,0.0,0.0,0.0,0.0,0.0,0.0,0.0,0.0,0.0,0.0,0.0,0.0,0.0,0.0,0.0,0.0,0.0,0.0,0.0,0.0,0.0,0.0,0.0,0.0,0.0,0.0,0.0,0.0,0.0,0.0,0.0,0.0,0.0,0.0,0.0,0.0,0.0,0.0,0.0,0.0,0.0,0.0,0.0,0.0,0.0,0.0,0.0,0.0,0.0,0.0,0.0,0.0,0.0,0.0,0.0,0.0,0.0,0.0,0.0,0.0,0.0,0.0,0.0,0.0,0.0,0.0,0.0,0.0,0.0,0.0,0.0,0.0,0.0,0.0,0.0,0.0,0.0,0.0,0.0,0.0,0.0,0.0,0.0,0.0,0.0,0.0,0.0,0.0,0.0,0.0,0.0,0.0,0.0,0.0,0.0,0.0,0.0,0.0,0.0,0.0,0.0,0.0,0.0,0.0,0.0,0.0,0.0,0.0,0.0,0.0,0.0,0.0,0.0,0.0,0.0,0.0,0.0,0.0,0.0,0.0,0.0,0.0,0.0,0.0,0.0,0.0,0.0,0.0,0.0,0.0,0.0,0.0,0.0,0.0,0.0,0.0,0.0,0.0,0.0,0.0,0.0,0.0,0.0,0.0,0.0,0.0,0.0,0.0,0.0,0.0,0.0,0.0,0.0,0.0,0.0,0.0,0.0,0.0,0.0,0.0,0.0,0.0,0.0,0.0,0.0,0.0,0.0,0.0,0.0,0.0,0.0,0.0,0.0,0.0,0.0,0.0,0.0,0.0,0.0,0.0,0.0,0.0,0.0,0.0,0.0,0.0,0.0,0.0,0.0,0.0,0.0,0.0,0.0,0.0,0.0,0.0,0.0,0.0,0.0,0.0,0.0,0.0,0.0,0.0,0.0,0.0,0.0,0.0,0.0,0.0,0.0,0.0,0.0,0.0,0.0,0.0,0.0,0.0,0.0,0.0,0.0,0.0,0.0,0.0,0.0,0.0,0.0,0.0,0.0,0.0,0.0,0.0,0.0,0.0,0.0,0.0,0.0,0.0,0.0,0.0,0.0,0.0,0.0,0.0,0.0,0.0,0.0,0.0,0.0,0.0,0.0,0.0,0.0,0.0,0.0,0.0,0.0,0.0,0.0,0.0,0.0,0.0,0.0,0.0,0.0,0.0,0.0,0.0,0.0,0.0,0.0,0.0,0.0,0.0,0.0,0.0,0.0,0.0,0.0,0.0,0.0,0.0,0.0,0.0,0.0,0.0,0.0,0.0,0.0,0.0,0.0,0.0,0.0,0.0,0.0,0.0,0.0,0.0,0.0,0.0,0.0,0.0,0.0,0.0,0.0,0.0,0.0,0.0,0.0,0.0,0.0,0.0,0.0,0.0,0.0,0.0,0.0,0.0,0.0,0.0,0.0,0.0,0.0,0.0,0.0,0.0,0.0,0.0,0.0,0.0,0.0,0.0,0.0,0.0,0.0,0.0,0.0,0.0,0.0,0.0,0.0,0.0,0.0,0.0,0.0,0.0,0.0,0.0,0.0,0.0,0.0,0.0,0.0,0.0,0.0,0.0,0.0,0.0,0.0,0.0,0.0,0.0,0.0,0.0,0.0,0.0,0.0,0.0,0.0,0.0,0.0,0.0,0.0,0.0,0.0,0.0,0.0,0.0,0.0,0.0,0.0,0.0,0.0,0.0,0.0,0.0,0.0,0.0,0.0,0.0,0.0,0.0,0.0,0.0,0.0,0.0,0.0,0.0,0.0,0.0,0.0,0.0,0.0,0.0,0.0,0.0,0.0,0.0,0.0,0.0,0.0,0.0,0.0,0.0,0.0,0.0,0.0,0.0,0.0,0.0,0.0,0.0,0.0,0.0,0.0,0.0,0.0,0.0,0.0,0.0,0.0,0.0,0.0,0.0,0.0,0.0,0.0,0.0,0.0,0.0,0.0,0.0,0.0,0.0,0.0,0.0,0.0,0.0,0.0,0.0,0.0,0.0,0.0,0.0,0.0,0.0,0.0,0.0,0.0,0.0,0.0,0.0,0.0,0.0,0.0,0.0,0.0,0.0,0.0,0.0,0.0,0.0,0.0,0.0,0.0,0.0,0.0,0.0,0.0,0.0,0.0,0.0,0.0,0.0,0.0,0.0,0.0,0.0,0.0,0.0,0.0,0.0,0.0,0.0,0.0,0.0,0.0,0.0,0.0,0.0,0.0,0.0,0.0,0.0,0.0,0.0,0.0,0.0,0.0,0.0,0.0,0.0,0.0,0.0,0.0,0.0,0.0,0.0,0.0,0.0,0.0,0.0,0.0,0.0,0.0,0.0,0.0,0.0,0.0,0.0,0.0,0.0,0.0,0.0,0.0,0.0,0.0,0.0,0.0,0.0,0.0,0.0,0.0,0.0,0.0,0.0,0.0,0.0,0.0,0.0,0.0,0.0,0.0,0.0,0.0,0.0,0.0,0.0,0.0,0.0,0.0,0.0,0.0,0.0,0.0,0.0,0.0,0.0,0.0,0.0,0.0,0.0,0.0,0.0,0.0,0.0,0.0,0.0,0.0,0.0,0.0,0.0,0.0,0.0,0.0,0.0,0.0,0.0,0.0,0.0,0.0,0.0,0.0,0.0,0.0,0.0,0.0,0.0,0.0,0.0,0.0,0.0,0.0,0.0,0.0,0.0,0.0,0.0,0.0,0.0,0.0,0.0,0.0,0.0,0.0,0.0,0.0,0.0,0.0,0.0,0.0,0.0,0.0,0.0,0.0,0.0,0.0,0.0,0.0,0.0,0.0,0.0,0.0,0.0,0.0,0.0,0.0,0.0,0.0,0.0,0.0,0.0,0.0,0.0,0.0,0.0,0.0,0.0,0.0,0.0,0.0,0.0,0.0,0.0,0.0,0.0,0.0,0.0,0.0,0.0,0.0,0.0,0.0,0.0,0.0,0.0,0.0,0.0,0.0,0.0,0.0,0.0,0.0,0.0,0.0,0.0,0.0,0.0,0.0,0.0,0.0,0.0,0.0,0.0,0.0,0.0,0.0,0.0,0.0,0.0,0.0,0.0,0.0,0.0,0.0,0.0,0.0,0.0,0.0,0.0,0.0,0.0,0.0,0.0,0.0,0.0,0.0,0.0,0.0,0.0,0.0,0.0,0.0,0.0,0.0,0.0,0.0,0.0,0.0,0.0,0.0,0.0,0.0,0.0,0.0,0.0,0.0,0.0,0.0,0.0,0.0,0.0,0.0,0.0,0.0,0.0,0.0,0.0,0.0,0.0,0.0,0.0,0.0,0.0,0.0,0.0,0.0,0.0,0.0,0.0,0.0,0.0,0.0,0.0,0.0,0.0,0.0,0.0,0.0,0.0,0.0,0.0,0.0,0.0,0.0,0.0,0.0,0.0,0.0,0.0,0.0,0.0,0.0,0.0,0.0,0.0,0.0,0.0,0.0,0.0,0.0,0.0,0.0,0.0,0.0,0.0,0.0,0.0,0.0,0.0,0.0,0.0,0.0,0.0,0.0,0.0,0.0,0.0,0.0,0.0,0.0,0.0,0.0,0.0,0.0,0.0,0.0,0.0,0.0,0.0,0.0,0.0,0.0,0.0,0.0,0.0,0.0,0.0,0.0,0.0,0.0,0.0,0.0,0.0,0.0,0.0,0.0,0.0,0.0,0.0,0.0,0.0,0.0,0.0,0.0,0.0,0.0,0.0,0.0,0.0,0.0,0.0,0.0,0.0,0.0,0.0,0.0,0.0,0.0,0.0,0.0,0.0,0.0,0.0,0.0,0.0,0.0,0.0,0.0,0.0,0.0,0.0,0.0,0.0,0.0,0.0,0.0,0.0,0.0,0.0,0.0,0.0,0.0,0.0,0.0,0.0,0.0,0.0,0.0,0.0,0.0,-2.4115,0.0,0.0,0.0,0.0,0.0,0.0,0.0,0.0,0.0,0.0,0.0,0.0,0.0,0.0,0.0,0.0,0.0,0.0,0.0,0.0,0.0,0.0,0.0,0.0,0.0,0.0,0.0,0.0,0.0,0.0,0.0,0.0,0.0,0.0,0.0,0.0,0.0,0.0,0.0,0.0,0.0,0.0,0.0,0.0,0.0,0.0,0.0,0.0,0.0,0.0,0.0,0.0,0.0,0.0,0.0,0.0,0.0,0.0,0.0,0.0,0.0,0.0,0.0,0.0,0.0,0.0,0.0,0.0,0.0,0.0,0.0,0.0,0.0,0.0,0.0,0.0,0.0,0.0,0.0,0.0,0.0,0.0,0.0,0.0,0.0,0.0,0.0,0.0,0.0,0.0,0.0,0.0,0.0,0.0,0.0,0.0,0.0,0.0,0.0,0.0,0.0,0.0,0.0,0.0,0.0,0.0,0.0,0.0,0.0,0.0,-2.6347,-2.6399,-2.632,-2.5725,-2.4572,0.0,0.0,0.0,0.0,0.0,0.0,0.0,0.0,0.0,0.0,0.0,0.0,0.0,0.0,0.0,0.0,0.0,0.0,0.0,0.0,0.0,0.0,0.0,0.0,0.0,0.0,0.0,0.0,0.0,0.0,0.0,0.0,0.0,0.0,0.0,0.0,0.0,0.0,0.0,0.0,0.0,0.0,0.0,0.0,0.0,0.0,0.0,0.0,0.0,0.0,0.0,0.0,0.0,0.0,0.0,0.0,0.0,0.0,0.0,0.0,0.0,0.0,0.0,0.0,0.0,0.0,0.0,0.0,0.0,0.0,0.0,0.0,0.0,0.0,0.0,0.0,0.0,0.0,0.0,0.0,0.0,0.0,0.0,0.0,0.0,0.0,0.0,0.0,0.0,0.0,0.0,0.0,0.0,0.0,0.0,0.0,0.0,0.0,0.0,0.0,0.0,0.0,0.0,0.0,0.0,0.0,0.0,0.0,0.0,0.0,0.0,0.0,-2.6725,-2.6093,-2.4498,0.0,0.0,0.0,0.0,0.0,0.0,0.0,0.0,0.0,0.0,0.0,0.0,0.0,0.0,0.0,0.0,0.0,0.0,0.0,0.0,0.0,0.0,0.0,0.0,0.0,0.0,0.0,0.0,0.0,0.0,0.0,0.0,0.0,0.0,0.0,0.0,0.0,0.0,0.0,0.0,0.0,0.0,0.0,0.0,0.0,0.0,0.0,0.0,0.0,0.0,0.0,0.0,0.0,0.0,0.0,0.0,0.0,0.0,0.0,0.0,0.0,0.0,0.0,0.0,0.0,0.0,0.0,0.0,0.0,0.0,0.0,0.0,0.0,0.0,0.0,0.0,0.0,0.0,0.0,0.0,0.0,0.0,0.0,0.0,0.0,0.0,0.0,0.0,0.0,0.0,0.0,0.0,0.0,0.0,0.0,0.0,0.0,0.0,0.0,0.0,0.0,0.0,0.0,0.0,0.0,0.0,0.0,0.0,0.0,0.0,-2.645,-2.6313,-2.659,0.0,-2.3867,0.0,0.0,0.0,0.0,0.0,0.0,0.0,0.0,0.0,0.0,0.0,0.0,0.0,0.0,0.0,0.0,0.0,0.0,0.0,0.0,0.0,0.0,0.0,0.0,0.0,0.0,0.0,0.0,0.0,0.0,0.0,0.0,0.0,0.0,0.0,0.0,0.0,0.0,0.0,0.0,0.0,0.0,0.0,0.0,0.0,0.0,0.0,0.0,0.0,0.0,0.0,0.0,0.0,0.0,0.0,0.0,0.0,0.0,0.0,0.0,0.0,0.0,0.0,0.0,0.0,0.0,0.0,0.0,0.0,0.0,0.0,0.0,0.0,0.0,0.0,0.0,0.0,0.0,0.0,0.0,0.0,0.0,0.0,0.0,0.0,0.0,0.0,0.0,0.0,0.0,0.0,0.0,0.0,0.0,0.0,0.0,0.0,0.0,0.0,0.0,0.0,0.0,0.0,0.0,0.0,0.0,0.0,0.0,0.0,0.0,0.0,-2.7,-2.6808,-2.596,0.0,0.0,0.0,0.0,0.0,0.0,0.0,0.0,0.0,0.0,0.0,0.0,0.0,0.0,0.0,0.0,0.0,0.0,0.0,0.0,0.0,0.0,0.0,0.0,0.0,0.0,0.0,0.0,0.0,0.0,0.0,0.0,0.0,0.0,0.0,0.0,0.0,0.0,0.0,0.0,0.0,0.0,0.0,0.0,0.0,0.0,0.0,0.0,0.0,0.0,0.0,0.0,0.0,0.0,0.0,0.0,0.0,0.0,0.0,0.0,0.0,0.0,0.0,0.0,0.0,0.0,0.0,0.0,0.0,0.0,0.0,0.0,0.0,0.0,0.0,0.0,0.0,0.0,0.0,0.0,0.0,0.0,0.0,0.0,0.0,0.0,0.0,0.0,0.0,0.0,0.0,0.0,0.0,0.0,0.0,0.0,0.0,0.0,0.0,0.0,0.0,0.0,0.0,0.0,0.0,0.0,0.0,0.0,0.0,0.0,-2.652,0.0,-2.7188,-2.6876,-2.608,-2.4713,0.0,0.0,0.0,0.0,0.0,0.0,0.0,0.0,0.0,0.0,0.0,0.0,0.0,0.0,0.0,0.0,0.0,0.0,0.0,0.0,0.0,0.0,0.0,0.0,0.0,0.0,0.0,0.0,0.0,0.0,0.0,0.0,0.0,0.0,0.0,0.0,0.0,0.0,0.0,0.0,0.0,0.0,0.0,0.0,0.0,0.0,0.0,0.0,0.0,0.0,0.0,0.0,0.0,0.0,0.0,0.0,0.0,0.0,0.0,0.0,0.0,0.0,0.0,0.0,0.0,0.0,0.0,0.0,0.0,0.0,0.0,0.0,0.0,0.0,0.0,0.0,0.0,0.0,0.0,0.0,0.0,0.0,0.0,0.0,0.0,0.0,0.0,0.0,0.0,0.0,0.0,0.0,0.0,0.0,0.0,0.0,0.0,0.0,0.0,0.0,0.0,0.0,0.0,0.0,0.0,0.0,0.0,0.0,0.0,-2.6606,-2.6588,-2.6569,-2.664,-2.6047,0.0,0.0,0.0,0.0,0.0,0.0,0.0,0.0,0.0,0.0,0.0,0.0,0.0,0.0,0.0,0.0,0.0,0.0,0.0,0.0,0.0,0.0,0.0,0.0,0.0,0.0,0.0,0.0,0.0,0.0,0.0,0.0,0.0,0.0,0.0,0.0,0.0,0.0,0.0,0.0,0.0,0.0,0.0,0.0,0.0,0.0,0.0,0.0,0.0,0.0,0.0,0.0,0.0,0.0,0.0,0.0,0.0,0.0,0.0,0.0,0.0,0.0,0.0,0.0,0.0,0.0,0.0,0.0,0.0,0.0,0.0,0.0,0.0,0.0,0.0,0.0,0.0,0.0,0.0,0.0,0.0,0.0,0.0,0.0,0.0,0.0,0.0,0.0,0.0,0.0,0.0,0.0,0.0,0.0,0.0,0.0,0.0,0.0,0.0,0.0,0.0,0.0,0.0,0.0,0.0,0.0,0.0,0.0,0.0,-2.6691,-2.7078,-2.7007,-2.6415,-2.7009,-2.6455,0.0,0.0,0.0,0.0,0.0,0.0,0.0,0.0,0.0,0.0,0.0,0.0,0.0,0.0,0.0,0.0,0.0,0.0,0.0,0.0,0.0,0.0,0.0,0.0,0.0,0.0,0.0,0.0,0.0,0.0,0.0,0.0,0.0,0.0,0.0,0.0,0.0,0.0,0.0,0.0,0.0,0.0,0.0,0.0,0.0,0.0,0.0,0.0,0.0,0.0,0.0,0.0,0.0,0.0,0.0,0.0,0.0,0.0,0.0,0.0,0.0,0.0,0.0,0.0,0.0,0.0,0.0,0.0,0.0,0.0,0.0,0.0,0.0,0.0,0.0,0.0,0.0,0.0,0.0,0.0,0.0,0.0,0.0,0.0,0.0,0.0,0.0,0.0,0.0,0.0,0.0,0.0,0.0,0.0,0.0,0.0,0.0,0.0,0.0,0.0,0.0,0.0,0.0,0.0,0.0,0.0,0.0,0.0,0.0,-2.6674,0.0,-2.7059,0.0,-2.6807,-2.6202,0.0,0.0,0.0,0.0,0.0,0.0,0.0,0.0,0.0,0.0,0.0,0.0,0.0,0.0,0.0,0.0,0.0,0.0,0.0,0.0,0.0,0.0,0.0,0.0,0.0,0.0,0.0,0.0,0.0,0.0,0.0,0.0,0.0,0.0,0.0,0.0,0.0,0.0,0.0,0.0,0.0,0.0,0.0,0.0,0.0,0.0,0.0,0.0,0.0,0.0,0.0,0.0,0.0,0.0,0.0,0.0,0.0,0.0,0.0,0.0,0.0,0.0,0.0,0.0,0.0,0.0,0.0,0.0,0.0,0.0,0.0,0.0,0.0,0.0,0.0,0.0,0.0,0.0,0.0,0.0,0.0,0.0,0.0,0.0,0.0,0.0,0.0,0.0,0.0,0.0,0.0,0.0,0.0,0.0,0.0,0.0,0.0,0.0,0.0,0.0,0.0,0.0,0.0,0.0,0.0,0.0,0.0,0.0,-2.6623,-2.6623,-2.6674,-2.664,-2.6486,-2.595,-2.5238,0.0,0.0,0.0,0.0,0.0,0.0,0.0,0.0,0.0,0.0,0.0,0.0,0.0,0.0,0.0,0.0,0.0,0.0,0.0,0.0,0.0,0.0,0.0,0.0,0.0,0.0,0.0,0.0,0.0,0.0,0.0,0.0,0.0,0.0,0.0,0.0,0.0,0.0,0.0,0.0,0.0,0.0,0.0,0.0,0.0,0.0,0.0,0.0,0.0,0.0,0.0,0.0,0.0,0.0,0.0,0.0,0.0,0.0,0.0,0.0,0.0,0.0,0.0,0.0,0.0,0.0,0.0,0.0,0.0,0.0,0.0,0.0,0.0,0.0,0.0,0.0,0.0,0.0,0.0,0.0,0.0,0.0,0.0,0.0,0.0,0.0,0.0,0.0,0.0,0.0,0.0,0.0,0.0,0.0,0.0,0.0,0.0,0.0,0.0,0.0,0.0,0.0,0.0,0.0,0.0,0.0,0.0,0.0,0.0,-2.6623,-2.6572,-2.6503,-2.6349,-2.5832,-2.519,0.0,0.0,0.0,0.0,0.0,0.0,0.0,0.0,0.0,0.0,0.0,0.0,0.0,0.0,0.0,0.0,0.0,0.0,0.0,0.0,0.0,0.0,0.0,0.0,0.0,0.0,0.0,0.0,0.0,0.0,0.0,0.0,0.0,0.0,0.0,0.0,0.0,0.0,0.0,0.0,0.0,0.0,0.0,0.0,0.0,0.0,0.0,0.0,0.0,0.0,0.0,0.0,0.0,0.0,0.0,0.0,0.0,0.0,0.0,0.0,0.0,0.0,0.0,0.0,0.0,0.0,0.0,0.0,0.0,0.0,0.0,0.0,0.0,0.0,0.0,0.0,0.0,0.0,0.0,0.0,0.0,0.0,0.0,0.0,0.0,0.0,0.0,0.0,0.0,0.0,0.0,0.0,0.0,0.0,0.0,0.0,0.0,0.0,0.0,0.0,0.0,0.0,0.0,0.0,0.0,0.0,0.0,0.0,0.0,-2.6571,-2.6468,-2.6381,-2.6276,-2.5698,-2.5044,-2.4335,0.0,0.0,0.0,0.0,0.0,0.0,0.0,0.0,0.0,0.0,0.0,0.0,0.0,0.0,0.0,0.0,0.0,0.0,0.0,0.0,0.0,0.0,0.0,0.0,0.0,0.0,0.0,0.0,0.0,0.0,0.0,0.0,0.0,0.0,0.0,0.0,0.0,0.0,0.0,0.0,0.0,0.0,0.0,0.0,0.0,0.0,0.0,0.0,0.0,0.0,0.0,0.0,0.0,0.0,0.0,0.0,0.0,0.0,0.0,0.0,0.0,0.0,0.0,0.0,0.0,0.0,0.0,0.0,0.0,0.0,0.0,0.0,0.0,0.0,0.0,0.0,0.0,0.0,0.0,0.0,0.0,0.0,0.0,0.0,0.0,0.0,0.0,0.0,0.0,0.0,0.0,0.0,0.0,0.0,0.0,0.0,0.0,0.0,0.0,0.0,0.0,0.0,0.0,0.0,0.0,0.0,0.0,0.0,-2.6485,-2.6347,-2.6241,-2.6185,-2.5526,-2.4863,0.0,0.0,0.0,0.0,0.0,0.0,0.0,0.0,0.0,0.0,0.0,0.0,0.0,0.0,0.0,0.0,0.0,0.0,0.0,0.0,0.0,0.0,0.0,0.0,0.0,0.0,0.0,0.0,0.0,0.0,0.0,0.0,0.0,0.0,0.0,0.0,0.0,0.0,0.0,0.0,0.0,0.0,0.0,0.0,0.0,0.0,0.0,0.0,0.0,0.0,0.0,0.0,0.0,0.0,0.0,0.0,0.0,0.0,0.0,0.0,0.0,0.0,0.0,0.0,0.0,0.0,0.0,0.0,0.0,0.0,0.0,0.0,0.0,0.0,0.0,0.0,0.0,0.0,0.0,0.0,0.0,0.0,0.0,0.0,0.0,0.0,0.0,0.0,0.0,0.0,0.0,0.0,0.0,0.0,0.0,0.0,0.0,0.0,0.0,0.0,0.0,0.0,0.0,0.0,0.0,0.0,0.0,0.0,0.0,-2.6291,-2.6097,-2.6026,-2.6028,-2.5354,-2.4696,0.0,0.0,0.0,0.0,0.0,0.0,0.0,0.0,0.0,0.0,0.0,0.0,0.0,0.0,0.0,0.0,0.0,0.0,0.0,0.0,0.0,0.0,0.0,0.0,0.0,0.0,0.0,0.0,0.0,0.0,0.0,0.0,0.0,0.0,0.0,0.0,0.0,0.0,0.0,0.0,0.0,0.0,0.0,0.0,0.0,0.0,0.0,0.0,0.0,0.0,0.0,0.0,0.0,0.0,0.0,0.0,0.0,0.0,0.0,0.0,0.0,0.0,0.0,0.0,0.0,0.0,0.0,0.0,0.0,0.0,0.0,0.0,0.0,0.0,0.0,0.0,0.0,0.0,0.0,0.0,0.0,0.0,0.0,0.0,0.0,0.0,0.0,0.0,0.0,0.0,0.0,0.0,0.0,0.0,0.0,0.0,0.0,0.0,0.0,0.0,0.0,0.0,0.0,0.0,0.0,0.0,0.0,0.0,-2.6258,-2.6115,-2.5917,-2.5807,-2.5754,-2.5399,-2.4932,0.0,0.0,0.0,0.0,0.0,0.0,0.0,0.0,0.0,0.0,0.0,0.0,0.0,0.0,0.0,0.0,0.0,0.0,0.0,0.0,0.0,0.0,0.0,0.0,0.0,0.0,0.0,0.0,0.0,0.0,0.0,0.0,0.0,0.0,0.0,0.0,0.0,0.0,0.0,0.0,0.0,0.0,0.0,0.0,0.0,0.0,0.0,0.0,0.0,0.0,0.0,0.0,0.0,0.0,0.0,0.0,0.0,0.0,0.0,0.0,0.0,0.0,0.0,0.0,0.0,0.0,0.0,0.0,0.0,0.0,0.0,0.0,0.0,0.0,0.0,0.0,0.0,0.0,0.0,0.0,0.0,0.0,0.0,0.0,0.0,0.0,0.0,0.0,0.0,0.0,0.0,0.0,0.0,0.0,0.0,0.0,0.0,0.0,0.0,0.0,0.0,0.0,0.0,0.0,0.0,0.0,0.0,0.0,-2.6132,-2.599,-2.5791,-2.557,-2.5394,-2.5489,-2.526,0.0,0.0,0.0,0.0,0.0,0.0,0.0,0.0,0.0,0.0,0.0,0.0,0.0,0.0,0.0,0.0,0.0,0.0,0.0,0.0,0.0,0.0,0.0,0.0,0.0,0.0,0.0,0.0,0.0,0.0,0.0,0.0,0.0,0.0,0.0,0.0,0.0,0.0,0.0,0.0,0.0,0.0,0.0,0.0,0.0,0.0,0.0,0.0,0.0,0.0,0.0,0.0,0.0,0.0,0.0,0.0,0.0,0.0,0.0,0.0,0.0,0.0,0.0,0.0,0.0,0.0,0.0,0.0,0.0,0.0,0.0,0.0,0.0,0.0,0.0,0.0,0.0,0.0,0.0,0.0,0.0,0.0,0.0,0.0,0.0,0.0,0.0,0.0,0.0,0.0,0.0,0.0,0.0,0.0,0.0,0.0,0.0,0.0,0.0,0.0,0.0,0.0,0.0,0.0,0.0,0.0,0.0,0.0,-2.6008,-2.5934,-2.5731,-2.547,-2.5169,-2.5355,-2.5075,0.0,0.0,0.0,0.0,0.0,0.0,0.0,0.0,0.0,0.0,0.0,0.0,0.0,0.0,0.0,0.0,0.0,0.0,0.0,0.0,0.0,0.0,0.0,0.0,0.0,0.0,0.0,0.0,0.0,0.0,0.0,0.0,0.0,0.0,0.0,0.0,0.0,0.0,0.0,0.0,0.0,0.0,0.0,0.0,0.0,0.0,0.0,0.0,0.2633,0.0,0.0,0.0,0.0,0.0,0.0,0.0,0.0,0.0,0.0,0.0,0.0,0.0,0.0,0.0,0.0,0.0,0.0,0.0,0.0,0.0,0.0,0.0,0.0,0.0,0.0,0.0,0.0,0.0,0.0,0.0,0.0,0.0,0.0,0.0,0.0,0.0,0.0,0.0,0.0,0.0,0.0,0.0,0.0,0.0,0.0,0.0,0.0,0.0,0.0,0.0,0.0,0.0,0.0,0.0,0.0,0.0,0.0,0.0,-2.5937,-2.5826,-2.5675,-2.5432,-2.5127,-2.5188,-2.5067,0.0,0.0,0.0,0.0,0.0,0.0,0.0,0.0,0.0,0.0,0.0,0.0,0.0,0.0,0.0,0.0,0.0,0.0,0.0,0.0,0.0,0.0,0.0,0.0,0.0,0.0,0.0,0.0,0.0,0.0,0.0,0.0,0.0,0.0,0.0,0.0,0.0,0.0,0.0,0.0,0.0,0.0,0.0,0.0,0.0,0.0,0.0,0.0,0.0,0.0,0.0,0.0,0.0,0.0,0.0,0.0,0.0,0.0,0.0,0.0,0.0,0.0,0.0,0.0,0.0,0.0,0.0,0.0,0.0,0.0,0.0,0.0,0.0,0.0,0.0,0.0,0.0,0.0,0.0,0.0,0.0,0.0,0.0,0.0,0.0,0.0,0.0,0.0,0.0,0.0,0.0,0.0,0.0,0.0,0.0,0.0,0.0,0.0,0.0,0.0,0.0,0.0,0.0,0.0,0.0,0.0,0.0,-2.5974,-2.5866,-2.5719,-2.5602,-2.5394,-2.5107,-2.5088,-2.5072,-2.5075,0.0,0.0,0.0,0.0,0.0,0.0,0.0,0.0,0.0,0.0,0.0,0.0,0.0,0.0,0.0,0.0,0.0,0.0,0.0,0.0,0.0,0.0,0.0,0.0,0.0,0.0,0.0,0.0,0.0,0.0,0.0,0.0,0.0,0.0,0.0,0.0,0.0,0.0,0.0881,0.1932,0.0,0.0,0.0,0.0,0.0,0.0,0.0,0.0,0.241,0.0,0.0,0.0,0.0,0.0,0.0,0.0,0.0,0.0,0.0,0.0,0.0,0.0,0.0,0.0,0.0,0.0,0.0,0.0,0.0,0.0,0.0,0.0,0.0,0.0,0.0,0.0,0.0,0.0,0.0,0.0,0.0,0.0,0.0,0.0,0.0,0.0,0.0,0.0,0.0,0.0,0.0,0.0,0.0,0.0,0.0,0.0,0.0,0.0,0.0,0.0,0.0,0.0,0.0,0.0,0.0,-2.5992,-2.5846,-2.5738,-2.5701,-2.5454,-2.524,-2.5025,-2.5025,-2.5045,-2.5075,0.0,0.0,0.0,0.0,0.0,0.0,0.0,0.0,0.0,0.0,0.0,0.0,0.0,0.0,0.0,0.0,0.0,0.0,0.0,0.0,0.0,0.0,0.0,0.0,0.0,0.0,0.0,0.0,0.0,0.0,0.0,0.0,0.0,0.0,0.0,0.0,0.0,0.0,0.0,0.2801,0.3178,0.0,0.0,0.0,0.0,0.0,0.0,0.0,0.0,0.1931,0.0,0.0,0.0,0.0,0.0,0.0,0.0,0.0,0.0,0.0,0.0,0.0,0.0,0.0,0.0,0.0,0.0,0.0,0.0,0.0,0.0,0.0,0.0,0.0,0.0,0.0,0.0,0.0,0.0,0.0,0.0,0.0,0.0,0.0,0.0,0.0,0.0,0.0,0.0,0.0,0.0,0.0,0.0,0.0,0.0,0.0,0.0,0.0,0.0,0.0,0.0,0.0,0.0,0.0,0.0,-2.5791,-2.5682,-2.5605,-2.5476,-2.4948,-2.4637,-2.4502,-2.4351,-2.4428,0.0,0.0,0.0,0.0,0.0,0.0,0.0,0.0,0.0,0.0,0.0,0.0,0.0,0.0,0.0,0.0,0.0,0.0,0.0,0.0,0.0,0.0,0.0,0.0,0.0,0.0,0.0,0.0,0.0,0.0,0.0,0.0,0.0,0.0,0.0,0.0,0.0,0.0,0.0,0.0,0.2864,0.3259,0.3428,0.0,0.0,0.0,0.0,0.0,0.0,0.1682,0.1653,0.0,0.0,0.0,0.0,0.0,0.0,0.0,0.0,0.0,0.0,0.0,0.0,0.0,0.0,0.0,0.0,0.0,0.0,0.0,0.0,0.0,0.0,0.0,0.0,0.0,0.0,0.0,0.0,0.0,0.0,0.0,0.0,0.0,0.0,0.0,0.0,0.0,0.0,0.0,0.0,0.0,0.0,0.0,0.0,0.0,0.0,0.0,0.0,0.0,0.0,0.0,0.0,0.0,0.0,0.0,-2.5266,-2.5099,-2.4922,-2.4716,-2.41,-2.3739,-2.3642,-2.3436,-2.3617,0.0,0.0,0.0,0.0,0.0,0.0,0.0,0.0,0.0,0.0,0.0,0.0,0.0,0.0,0.0,0.0,0.0,0.0,0.0,0.0,0.0,0.0,0.0,0.0,0.0,0.0,0.0,0.0,0.0,0.0,0.0,0.0,0.0,0.0,0.0,0.0,0.0,0.0,0.0,0.0,0.0,0.3146,0.343,0.3144,0.0,0.0,0.0,0.0,0.1533,0.1475,0.0,0.0,0.0,0.0,0.0,0.0,0.0,0.0,0.0,0.0,0.0,0.0,0.0,0.0,0.0,0.0,0.0,0.0,0.0,0.0,0.0,0.0,0.0,0.0,0.0,0.0,0.0,0.0,0.0,0.0,0.0,0.0,0.0,0.0,0.0,0.0,0.0,0.0,0.0,0.0,0.0,0.0,0.0,0.0,0.0,0.0,0.0,0.0,0.0,0.0,0.0,0.0,0.0,0.0,0.0,0.0,-2.4156,-2.3367,-2.2901,-2.2823,-2.2727,-2.2586,-2.2397,-2.242,-2.2831,0.0,0.0,0.0,0.0,0.0,0.0,0.0,0.0,0.0,0.0,0.0,0.0,0.0,0.0,0.0,0.0,0.0,0.0,0.0,0.0,0.0,0.0,0.0,0.0,0.0,0.0,0.0,0.0,0.0,0.0,0.0,0.0,0.0,0.0,0.0,0.0,0.0,0.0,0.0,0.0,0.0,0.2924,0.2989,0.2945,0.265,0.0,0.0,0.0,0.1236,0.1114,0.0,0.0,0.0,0.0,0.0,0.0,0.0,0.0,0.0,0.0,0.0,0.0,0.0,0.0,0.0,0.0,0.0,0.0,0.0,0.0,0.0,0.0,0.0,0.0,0.0,0.0,0.0,0.0,0.0,0.0,0.0,0.0,0.0,0.0,0.0,0.0,0.0,0.0,0.0,0.0,0.0,0.0,0.0,0.0,0.0,0.0,0.0,0.0,0.0,0.0,0.0,0.0,0.0,0.0,0.0,-2.3834,-2.3425,-2.2601,-2.2106,-2.1894,-2.1569,-2.1349,-2.1181,-2.1201,-2.1512,0.0,0.0,0.0,0.0,0.0,0.0,0.0,0.0,0.0,0.0,0.0,0.0,0.0,0.0,0.0,0.0,0.0,0.0,0.0,0.0,0.0,0.0,0.0,0.0,0.0,0.0,0.0,0.0,0.0,0.0,0.0,0.0,0.0,0.0,0.0,0.0,0.0,0.0,0.0,0.0,0.0,0.0,0.2264,0.2443,0.0,0.0,0.0,0.1288,0.1211,0.0,0.0,0.0,0.0,0.0,0.0,0.0,0.0,0.0,0.0,0.0,0.0,0.0,0.0,0.0,0.0,0.0,0.0,0.0,0.0,0.0,0.0,0.0,0.0,0.0,0.0,0.0,0.0,0.0,0.0,0.0,0.0,0.0,0.0,0.0,0.0,0.0,0.0,0.0,0.0,0.0,0.0,0.0,0.0,0.0,0.0,0.0,0.0,0.0,0.0,0.0,0.0,0.0,0.0,0.0,0.0,0.0,-2.2491,-2.1535,-2.0917,-2.0586,-2.0245,-1.9996,-1.9846,-1.9846,0.0,0.0,0.0,0.0,0.0,0.0,0.0,0.0,0.0,0.0,0.0,0.0,0.0,0.0,0.0,0.0,0.0,0.0,0.0,0.0,0.0,0.0,0.0,0.0,0.0,0.0,0.0,0.0,0.0,0.0,0.0,0.0,0.0,0.0,0.0,0.0,0.0,0.0,0.0,0.0,0.0,0.0,0.0957,0.1563,0.193,0.1988,0.0,0.0,0.113,0.1003,0.0953,0.088,0.0,0.0,0.0,0.0,0.0,0.0,0.0,0.0,0.0,0.0,0.0,0.0,0.0,0.0,0.0,0.0,0.0,0.0,0.0,0.0,0.0,0.0,0.0,0.0,0.0,0.0,0.0,0.0,0.0,0.0,0.0,0.0,0.0,0.0,0.0,0.0,0.0,0.0,0.0,0.0,0.0,0.0,0.0,0.0,0.0,0.0,0.0,0.0,0.0,0.0,0.0,0.0,0.0,0.0,0.0,-2.1,-1.9577,-1.8685,-1.8349,-1.8531,-1.8537,-1.8279,-1.8366,-1.8883,0.0,0.0,0.0,0.0,0.0,0.0,0.0,0.0,0.0,0.0,0.0,0.0,0.0,0.0,0.0,0.0,0.0,0.0,0.0,0.0,0.0,0.0,0.0,0.0,0.0,0.0,0.0,0.0,0.0,0.0,0.0,0.0,0.0,0.0,0.0,0.0,0.0,0.0,0.0,0.0,0.0,0.042,0.09,0.1356,0.1502,0.0,0.0,0.0518,0.0385,0.047,0.0411,0.0117,0.0,0.0,0.0,0.0,0.0,0.0,0.0,0.0,0.0,0.0,0.0,0.0,0.0,0.0,0.0,0.0,0.0,0.0,0.0,0.0,0.0,0.0,0.0,0.0,0.0,0.0,0.0,0.0,0.0,0.0,0.0,0.0,0.0,0.0,0.0,0.0,0.0,0.0,0.0,0.0,0.0,0.0,0.0,0.0,0.0,0.0,0.0,0.0,0.0,0.0,0.0,0.0,0.0,-2.0315,-1.9773,-1.8562,-1.7754,-1.7456,-1.7605,-1.7585,-1.7312,-1.7435,-1.7538,0.0,0.0,0.0,0.0,0.0,0.0,0.0,0.0,0.0,0.0,0.0,0.0,0.0,0.0,0.0,0.0,0.0,0.0,0.0,0.0,0.0,0.0,0.0,0.0,0.0,0.0,0.0,0.0,-0.7218,-0.6915,-0.6648,0.0,0.0,0.0,0.0,0.0,0.0,0.0,0.0,0.0,0.0,-0.0199,0.0267,0.0631,0.0,0.0,0.0032,-0.0126,0.0031,-0.0061,-0.0151,-0.0091,-0.0151,0.0,0.0,0.0,0.0,0.0,0.0,0.0,0.0,0.0,0.0,0.0,0.0,0.0,0.0,0.0,0.0,0.0,0.0,0.0,0.0,0.0,0.0,0.0,0.0,0.0,0.0,0.0,0.0,0.0,0.0,0.0,0.0,0.0,0.0,0.0,0.0,0.0,0.0,0.0,0.0,0.0,0.0,0.0,0.0,0.0,0.0,0.0,0.0,0.0,0.0,0.0,0.0,-1.9627,-1.9076,-1.7834,-1.7026,-1.6697,-1.6808,-1.6731,-1.6505,-1.6384,-1.6211,0.0,0.0,0.0,0.0,0.0,0.0,0.0,0.0,0.0,0.0,0.0,0.0,0.0,0.0,0.0,0.0,0.0,0.0,0.0,0.0,0.0,0.0,0.0,0.0,0.0,0.0,0.0,0.0,-0.7829,-0.7554,-0.7318,0.0,0.0,0.0,0.0,0.0,0.0,0.0,0.0,0.0,0.0,-0.0657,-0.0272,-0.0091,-0.0093,-0.0488,-0.0741,-0.0858,-0.0699,-0.0718,-0.068,-0.0499,0.0,0.0,0.0,0.0,0.0,0.0,0.0,0.0,0.0,0.0,0.0,0.0,0.0,0.0,0.0,0.0,0.0,0.0,0.0,0.0,0.0,0.0,0.0,0.0,0.0,0.0,0.0,0.0,0.0,0.0,0.0,0.0,0.0,0.0,0.0,0.0,0.0,0.0,0.0,0.0,0.0,0.0,0.0,0.0,0.0,0.0,0.0,0.0,0.0,0.0,0.0,0.0,0.0,0.0,-1.8988,-1.7344,-1.6358,-1.6032,-1.6032,-1.5954,-1.5786,-1.52,-1.4935,-1.5117,0.0,0.0,0.0,0.0,0.0,0.0,0.0,0.0,0.0,0.0,0.0,0.0,0.0,0.0,0.0,0.0,0.0,0.0,0.0,0.0,0.0,0.0,0.0,0.0,0.0,0.0,-0.902,-0.8517,-0.8143,0.0,0.0,0.0,0.0,0.0,0.0,0.0,0.0,0.0,0.0,-0.1373,-0.0852,-0.0824,-0.0766,-0.1045,-0.1757,-0.17,-0.1698,-0.1981,-0.1512,-0.1151,0.0,0.0,0.0,0.0,0.0,0.0,0.0,0.0,0.0,0.0,0.0,0.0,0.0,0.0,0.0,0.0,0.0,0.0,0.0,0.0,0.0,0.0,0.0,0.0,0.0,0.0,0.0,-2.2993,-2.2569,0.0,0.0,0.0,0.0,0.0,0.0,0.0,0.0,0.0,0.0,0.0,-2.0322,-1.9913,0.0,0.0,0.0,0.0,0.0,0.0,0.0,0.0,0.0,0.0,0.0,0.0,-1.8394,-1.7856,-1.6653,-1.5869,-1.5547,-1.5525,-1.526,-1.4692,-1.4442,-1.4211,-1.3967,0.0,0.0,0.0,0.0,0.0,0.0,0.0,0.0,0.0,0.0,0.0,0.0,0.0,0.0,0.0,0.0,0.0,0.0,0.0,0.0,0.0,0.0,0.0,0.0,0.0,-0.9947,0.0,0.0,0.0,0.0,0.0,0.0,0.0,0.0,0.0,0.0,0.0,-0.3294,-0.2335,-0.1766,-0.1446,-0.1522,-0.1718,-0.2051,0.0,0.0,0.0,0.0,0.0,0.0,0.0,0.0,0.0,0.0,0.0,0.0,0.0,0.0,0.6904,0.7586,0.8413,0.92,0.9874,0.0,0.0,0.0,0.0,0.0,0.0,0.0,0.0,0.0,0.0,0.0,0.0,0.0,0.0,0.0,0.0,-2.2217,0.0,0.0,0.0,0.0,0.0,0.0,0.0,0.0,-1.9949,-1.9471,-1.9349,-1.8761,-1.848,0.0,-1.8541,-1.8908,0.0,0.0,0.0,0.0,0.0,0.0,0.0,0.0,-1.767,-1.7016,-1.6054,-1.5413,-1.5131,-1.4869,-1.4473,-1.3916,-1.3476,-1.305,-1.2721,-1.2588,-1.2976,0.0,0.0,0.0,0.0,0.0,0.0,0.0,0.0,0.0,0.0,0.0,0.0,0.0,0.0,0.0,0.0,0.0,0.0,0.0,0.0,0.0,0.0,0.0,-1.0102,0.0,0.0,0.0,0.0,0.0,0.0,0.0,0.0,0.0,-0.525,-0.433,-0.3431,-0.2636,-0.2255,-0.2161,-0.2335,0.0,0.0,0.0,0.0,0.0,0.0,0.0,-0.2112,-0.1634,-0.1093,-0.0381,0.0571,0.2332,0.4014,0.5287,0.0,0.0,0.7937,0.8586,0.9262,0.9874,1.0563,1.1283,1.2078,1.2796,1.3505,0.0,0.0,0.0,0.0,0.0,0.0,0.0,0.0,-2.2725,-2.2119,0.0,-2.1554,0.0,0.0,0.0,0.0,0.0,0.0,0.0,0.0,-1.9333,-1.8809,-1.8547,-1.8068,-1.7773,-1.7642,-1.7605,-1.7593,-1.7629,-1.7871,0.0,0.0,0.0,0.0,0.0,0.0,-1.7443,-1.6466,-1.5567,-1.4983,-1.4754,-1.4071,-1.3608,-1.34,-1.2225,-1.1541,-1.1419,-1.1985,-1.255,-1.3031,-1.3851,0.0,0.0,0.0,0.0,0.0,0.0,0.0,0.0,0.0,0.0,0.0,0.0,0.0,0.0,0.0,0.0,0.0,0.0,0.0,0.0,-0.995,0.0,0.0,0.0,0.0,0.0,0.0,0.0,0.0,0.0,0.0,-0.5034,-0.438,-0.3748,-0.3026,0.0,0.0,0.0,0.0,-0.3517,-0.3777,-0.3625,-0.3425,-0.3137,-0.2543,-0.1976,-0.1546,0.0,0.0,0.1656,0.3151,0.4421,0.5242,0.6463,0.7557,0.814,0.8754,0.9357,0.99,1.0227,1.0772,1.1778,1.2307,1.2834,-2.7124,0.0,0.0,0.0,0.0,-2.3827,-2.3172,-2.2566,-2.1856,-2.1296,-2.0858,-2.0673,0.0,0.0,0.0,0.0,0.0,0.0,-1.9631,-1.9293,-1.86,-1.8205,-1.7991,-1.7013,-1.6527,-1.6492,-1.6033,-1.58,-1.5707,-1.5773,-1.6549,-1.7974,0.0,0.0,0.0,0.0,-1.6397,-1.5915,-1.5048,-1.4535,-1.435,-1.3711,-1.2901,-1.1964,-1.1166,-1.0795,-1.0888,-1.1088,-1.1459,-1.2015,-1.2355,0.0,0.0,0.0,0.0,0.0,0.0,0.0,0.0,0.0,0.0,0.0,0.0,0.0,0.0,0.0,0.0,0.0,0.0,0.0,-1.0415,-0.9958,-0.988,0.0,0.0,0.0,0.0,0.0,0.0,0.0,0.0,0.0,-0.5124,-0.4529,-0.4016,0.0,0.0,-0.3629,-0.3767,-0.3952,-0.4028,-0.3959,0.0,0.0,0.0,-0.2594,-0.1978,-0.1439,-0.0205,0.1058,0.2206,0.3166,0.4128,0.512,0.5996,0.6786,0.7603,0.8551,0.9337,0.9896,1.0227,1.0574,1.1185,1.1677,1.2058,-2.6303,-2.6181,-2.5629,-2.5039,-2.4373,-2.3731,-2.298,-2.2173,-2.1425,-2.0781,-2.0182,-2.0042,-1.9978,-1.9952,-1.9901,0.0,0.0,0.0,-1.9001,-1.8815,-1.8057,-1.7655,-1.7453,-1.6495,-1.5893,-1.5664,-1.5216,-1.4875,-1.4605,-1.4559,-1.5152,-1.6338,0.0,0.0,-1.6655,-1.6016,-1.5431,-1.4955,-1.4374,-1.3973,-1.3722,-1.2852,-1.1878,-1.0824,-1.044,-1.034,-1.0547,-1.078,-1.1075,-1.1465,-1.1839,-1.2069,0.0,0.0,0.0,0.0,0.0,0.0,0.0,0.0,0.0,0.0,0.0,-1.1412,0.0,0.0,0.0,0.0,-1.0527,-1.0342,-1.0021,-0.9754,0.0,0.0,0.0,0.0,0.0,0.0,0.0,-0.6954,-0.6302,-0.5699,-0.5166,-0.4864,-0.4591,-0.4309,-0.429,-0.4303,-0.4347,0.0,-0.4188,-0.3992,-0.3805,-0.3482,-0.2881,-0.2345,-0.1697,-0.0839,0.03,0.1365,0.2226,0.2992,0.3818,0.4758,0.5529,0.6248,0.7176,0.7997,0.8785,0.9493,0.9881,1.0195,1.0616,1.0989,1.1355,-2.5806,-2.5532,-2.5325,-2.5063,-2.4718,-2.4072,-2.3157,-2.203,-2.1302,-2.0495,-1.9639,-1.96,-1.955,-1.9486,-1.9368,0.0,0.0,-1.864,-1.8506,-1.8483,-1.7686,-1.7194,-1.7062,-1.6387,-1.5794,-1.5239,-1.4955,-1.4588,-1.4157,-1.3999,-1.392,-1.3941,-1.4703,-1.5139,-1.5248,-1.4982,-1.4473,-1.376,-1.3621,-1.3312,-1.2851,-1.1752,-1.0803,-1.0019,-1.0009,-1.0105,-1.0306,-1.0888,-1.1236,-1.13,-1.1969,-1.2215,-1.1982,0.0,0.0,0.0,0.0,0.0,0.0,0.0,0.0,0.0,0.0,0.0,0.0,0.0,0.0,0.0,-1.0498,0.0,-0.9328,-0.9446,0.0,0.0,0.0,-0.9223,-0.8554,-0.7916,-0.7164,-0.6258,0.0,0.0,0.0,0.0,-0.5286,-0.4987,-0.493,-0.4903,-0.4903,-0.4482,-0.4119,-0.3919,-0.3615,-0.3118,-0.2482,-0.1922,-0.119,-0.0102,0.0753,0.1382,0.1957,0.2698,0.3521,0.4299,0.5056,0.5831,0.6828,0.7278,0.7791,0.8781,0.9283,0.9653,1.0109,1.0425,1.0805,-2.6246,-2.591,-2.5191,-2.4512,-2.3807,-2.3239,-2.2551,-2.1842,-2.1365,-2.0692,-1.9912,-1.9682,-1.9275,-1.8679,-1.8479,-1.8329,-1.8154,-1.787,-1.776,-1.7733,-1.728,-1.706,-1.6983,-1.6224,-1.5743,-1.5473,-1.4686,-1.4092,-1.3746,-1.3403,-1.3218,-1.3186,-1.3276,-1.3545,-1.3981,-1.3659,-1.3391,-1.3194,-1.2997,-1.249,-1.1652,-1.1159,-1.0549,-0.9791,-1.004,-1.0222,-1.0303,-1.0839,-1.1124,-1.117,-1.1556,-1.1725,-1.1545,-1.1701,0.0,0.0,0.0,0.0,0.0,0.0,0.0,0.0,0.0,-1.1743,-1.1817,0.0,-1.1315,0.0,-1.0509,-0.9994,-0.9834,-0.9507,0.0,0.0,-0.8779,-0.838,-0.7614,-0.7127,-0.6593,-0.5961,-0.5548,-0.5292,-0.5254,-0.5306,-0.5313,-0.5279,-0.5141,-0.5027,-0.4907,-0.4605,-0.4238,-0.3912,-0.3541,-0.3078,-0.2482,-0.1541,-0.0642,0.0,0.0723,0.1376,0.1908,0.25,0.3157,0.3915,0.4569,0.5265,0.6052,0.6764,0.738,0.7898,0.8498,0.9204,0.9892,1.0205,1.0563,-2.6278,-2.5638,-2.4922,-2.4118,-2.3316,-2.3149,-2.2642,-2.1917,-2.1531,-2.0921,-2.0101,-1.9598,-1.9016,-1.8405,-1.8066,-1.7783,-1.7473,-1.7273,-1.7106,-1.6955,-1.6729,-1.6531,-1.635,-1.5923,-1.553,-1.519,-1.4384,-1.3827,-1.3451,-1.2998,-1.2754,-1.2725,-1.2603,-1.2691,-1.2997,-1.2842,-1.2759,-1.2759,-1.2474,-1.1992,-1.1346,-1.1044,-1.0627,-1.0068,-1.0236,-1.029,-1.0219,-1.0725,-1.0998,-1.0946,-1.1347,-1.1505,-1.1334,-1.1482,-1.1736,0.0,0.0,0.0,0.0,0.0,0.0,0.0,0.0,0.0,0.0,0.0,-1.1388,0.0,0.0,0.0,-1.0025,-0.955,-0.9085,-0.8584,-0.825,-0.774,-0.6925,-0.6454,-0.6034,-0.5586,-0.5315,-0.5158,-0.5174,-0.5256,-0.5303,-0.5277,-0.5063,-0.4943,-0.4914,-0.4523,-0.4135,-0.39,-0.3444,-0.2806,-0.2052,-0.1078,-0.0255,0.0209,0.0812,0.1391,0.1857,0.2335,0.291,0.361,0.418,0.4811,0.5615,0.6235,0.68,0.7425,0.7932,0.8595,0.947,0.9943,1.0409,-2.6138,-2.5262,-2.4592,-2.3849,-2.3117,-2.336,-2.2925,-2.2134,-2.1804,-2.1146,-2.0217,-1.9425,-1.876,-1.828,-1.784,-1.7367,-1.6899,-1.674,-1.6542,-1.6255,-1.6085,-1.5836,-1.5565,-1.5536,-1.5215,-1.4694,-1.4148,-1.3654,-1.3301,-1.2723,-1.2455,-1.2431,-1.2323,-1.2249,-1.2258,-1.2348,-1.2431,-1.2421,-1.2016,-1.1668,-1.1489,-1.114,-1.0808,-1.0521,-1.052,-1.0442,-1.02,-1.0686,-1.0895,-1.0822,-1.1328,-1.1552,-1.1352,-1.1445,-1.1724,0.0,-1.2296,0.0,0.0,0.0,0.0,0.0,0.0,0.0,0.0,-1.1764,-1.1323,-1.1292,-1.0922,-1.0514,-1.0051,-0.9629,-0.9038,-0.8243,-0.7791,-0.7236,-0.6441,-0.593,-0.5563,-0.5234,-0.5164,-0.5094,-0.5046,-0.5178,-0.5232,-0.505,-0.4792,-0.4664,-0.4731,-0.4297,-0.3884,-0.3749,-0.3237,-0.2454,-0.147,-0.0668,-0.0068,0.0427,0.0944,0.1411,0.1753,0.2178,0.2698,0.3294,0.3811,0.4435,0.5304,0.5727,0.6293,0.7138,0.7574,0.8066,0.8981,0.9664,1.0235,-2.6168,-2.5658,-2.4362,-2.3591,-2.3154,-2.2665,-2.2421,-2.2323,-2.2152,-2.1363,-2.0106,-1.9235,-1.8415,-1.7667,-1.7403,-1.6974,-1.6428,-1.6189,-1.6046,-1.596,-1.5536,-1.5332,-1.5274,-1.5147,-1.4982,-1.4664,-1.3942,-1.3467,-1.3293,-1.2536,-1.2175,-1.215,-1.2051,-1.1977,0.0,0.0,0.0,0.0,-1.1763,-1.1489,-1.1329,-1.0963,-1.0656,-1.0507,-1.0702,0.0,-1.0602,-1.0992,-1.1255,-1.1358,-1.1675,0.0,0.0,0.0,0.0,0.0,0.0,0.0,0.0,0.0,0.0,0.0,-1.1933,-1.2049,-1.2301,-1.1805,-1.1424,-1.1318,-1.0922,-1.0514,-1.0051,-0.955,-0.8859,-0.7973,-0.7515,-0.6919,-0.604,-0.5788,-0.5587,-0.5246,-0.525,-0.5231,-0.5173,-0.5149,-0.5043,-0.4824,-0.4498,-0.421,-0.3998,-0.3702,-0.351,-0.3416,-0.2734,-0.1944,-0.1233,-0.0587,-0.0022,0.0426,0.0986,0.1457,0.1772,0.2192,0.2595,0.2993,0.3436,0.4017,0.471,0.5299,0.6039,0.6821,0.737,0.7961,0.8854,0.9487,1.006,-2.5984,0.0,-2.4214,-2.3401,0.0,-2.2076,-2.1851,-2.1901,-2.1819,-2.1155,-2.0031,-1.9213,-1.8424,-1.7668,-1.7112,-1.6546,-1.6029,-1.5703,-1.5478,-1.5294,-1.5079,-1.4911,-1.4832,-1.4773,-1.4704,-1.4579,-1.3728,-1.3268,-1.3168,-1.2317,-1.1902,-1.1902,-1.1769,-1.1703,-1.1703,-1.1578,-1.1628,-1.1902,-1.1703,-1.158,-1.1498,-1.1301,-1.117,-1.1075,0.0,0.0,0.0,0.0,0.0,0.0,0.0,0.0,0.0,0.0,0.0,-1.1705,-1.1509,-1.1478,-1.1627,-1.1525,-1.1506,-1.1637,-1.1851,-1.2035,-1.2082,-1.1769,-1.1494,-1.1318,-1.0947,-1.0488,-1.0051,-0.9577,-0.8945,-0.8116,-0.7569,-0.7006,-0.6297,-0.5891,-0.5641,-0.5502,-0.5335,-0.5282,-0.5341,-0.5092,-0.4885,-0.4628,-0.4215,-0.378,-0.3428,-0.3266,-0.3104,-0.2764,-0.2167,-0.1494,-0.09,-0.0426,0.009,0.0605,0.1098,0.1502,0.1861,0.2286,0.2707,0.2998,0.3461,0.4008,0.4661,0.5301,0.5933,0.6723,0.7286,0.7863,0.8675,0.935,0.9972,-2.5684,-2.4798,-2.3992,-2.3212,-2.2402,-2.1623,-2.1167,-2.1071,0.0,0.0,0.0,-1.9115,-1.841,-1.7715,-1.6903,-1.6282,-1.575,-1.5385,-1.5037,-1.4715,-1.4656,-1.4577,-1.4485,-1.4485,-1.4446,-1.4371,-1.3447,-1.3013,-1.2977,-1.2076,-1.1628,-1.1578,-1.1452,-1.1377,-1.1318,-1.1175,-1.1217,-1.1444,-1.1544,-1.1603,-1.1603,-1.1507,-1.1463,-1.1531,-1.1127,-1.0862,-1.0806,-1.0759,-1.0759,-1.0783,-1.0995,-1.1145,-1.1174,-1.0958,-1.0834,-1.0857,-1.0834,-1.0888,-1.1021,-1.1047,-1.1211,-1.1556,-1.1783,-1.1904,-1.1859,-1.1728,-1.1553,-1.1251,-1.0837,-1.0437,-0.9991,-0.9577,-0.9034,-0.8283,-0.7763,-0.7253,-0.6689,-0.6208,-0.5917,-0.5826,-0.5551,-0.5374,-0.5414,-0.5078,-0.4687,-0.4399,-0.3877,-0.3293,-0.2897,-0.2773,-0.256,-0.1961,-0.154,-0.1121,-0.0582,-0.0157,0.0269,0.0828,0.121,0.1569,0.1973,0.242,0.2796,0.3126,0.359,0.418,0.4836,0.5404,0.5997,0.6787,0.7286,0.7814,0.8545,0.931,0.9962,-2.5252,-2.4861,-2.3614,-2.2955,-2.2557,-2.1256,-2.0377,-1.99,-2.0172,-1.9868,-1.9187,-1.8636,-1.7929,-1.7222,-1.6877,-1.6364,-1.5616,-1.5376,-1.507,0.0,-1.4586,-1.4446,-1.4327,-1.4336,-1.4237,-1.4007,-1.3127,-1.2665,-1.2587,-1.1792,-1.1293,-1.1175,-1.1049,-1.0871,-1.0641,-1.0462,-1.0377,-1.0403,-1.0922,-1.12,-1.1167,-1.0746,-1.061,-1.0812,-1.0414,-1.024,-1.0374,-1.0283,-1.026,-1.0397,-1.0419,-1.0565,-1.0759,-1.0638,-1.0611,-1.07,-1.0633,-1.0611,-1.0754,-1.0678,-1.0767,-1.1128,-1.1226,-1.1372,-1.1692,-1.1594,-1.1368,-1.0972,-1.0531,-1.0138,-0.9847,-0.9368,-0.884,-0.8284,-0.7923,-0.7493,-0.6858,-0.6658,-0.6433,-0.6047,-0.5977,-0.5749,-0.5379,-0.5045,-0.4638,-0.4106,-0.3431,-0.2772,-0.2082,-0.1985,-0.1878,-0.1372,-0.1079,-0.0762,-0.0292,0.009,0.0538,0.0986,0.1366,0.1748,0.2131,0.2509,0.2865,0.317,0.3722,0.4308,0.4918,0.5524,0.6167,0.6873,0.7426,0.8036,0.8671,0.9359,0.9981,-2.3839,-2.3387,-2.2491,-2.1913,-2.1475,-2.027,-1.9337,-1.8692,-1.8649,-1.8662,-1.863,-1.8192,-1.7678,-1.7148,-1.6706,-1.6179,-1.5531,-1.5109,-1.4698,-1.4318,-1.4249,-1.4148,-1.4019,-1.4019,-1.3775,-1.3333,-1.2635,-1.2149,-1.1831,-1.1196,-1.0794,-1.0608,-1.0421,-1.019,-1.0035,-0.9906,-0.988,-0.988,-1.0285,-1.0541,-1.0608,-1.0371,-1.0319,-1.0495,-1.0064,-0.9849,-0.9846,-0.9772,-0.9727,-0.975,-0.986,-0.9983,-1.0092,-1.0079,-1.0123,-1.0262,-1.0339,-1.0454,-1.0579,-1.0757,-1.0972,-1.1279,-1.1314,-1.1286,-1.1259,-1.1267,-1.1099,-1.0659,-1.0241,-0.9803,-0.9413,-0.9087,-0.8718,-0.8248,-0.7871,-0.7496,-0.7127,-0.6719,-0.6428,-0.6182,-0.5875,-0.5588,-0.5241,-0.472,-0.4239,-0.3702,-0.2893,-0.2026,-0.1296,-0.1239,-0.1217,-0.0924,-0.0674,-0.0359,0.0067,0.0449,0.0851,0.1299,0.1655,0.2014,0.242,0.2796,0.3173,0.3527,0.4008,0.4596,0.5231,0.5782,0.6401,0.707,0.7586,0.8152,0.8785,0.9637,1.0466,-2.2434,-2.1966,-2.134,-2.0729,-2.0084,-1.9176,-1.8377,-1.7713,-1.7386,-1.7414,-1.7652,-1.7427,-1.7124,-1.6791,-1.6337,-1.5805,-1.5231,-1.4705,-1.4237,-1.3847,-1.3791,-1.3648,-1.3459,-1.3451,-1.3097,-1.2464,-1.1909,-1.1453,-1.1062,-1.0577,-1.0198,-0.9966,-0.9725,-0.9517,-0.9413,-0.938,-0.938,-0.938,-0.9555,-0.9769,-1.0069,-0.9949,-0.9975,-1.0092,-0.9745,-0.9495,-0.9348,-0.9301,-0.9208,-0.9116,-0.9294,-0.9435,-0.9516,-0.9636,-0.9774,-0.9961,-1.0217,-1.0447,-1.0588,-1.0835,-1.109,-1.1242,-1.1217,-1.1065,-1.0769,-1.0718,-1.0608,-1.0267,-0.9873,-0.9439,-0.9035,-0.8718,-0.846,-0.8156,-0.7742,-0.7396,-0.7186,-0.6699,-0.6278,-0.6183,-0.5689,-0.5251,-0.4922,-0.4353,-0.3688,-0.304,-0.2191,-0.1368,-0.0853,-0.0618,-0.0495,-0.0405,-0.0247,0.0045,0.0427,0.0784,0.1186,0.1634,0.2012,0.237,0.2773,0.3173,0.3571,0.3924,0.4381,0.4927,0.5583,0.613,0.6677,0.7349,0.7863,0.8439,0.9208,1.005,1.0935,-2.1664,-2.1355,-2.0535,-1.9635,-1.8691,-1.809,-1.7567,-1.7152,-1.6826,-1.6356,-1.5998,-1.6067,-1.5979,-1.5701,-1.5586,-1.519,-1.4509,-1.4268,-1.3856,-1.3385,-1.3169,-1.2882,-1.2462,-1.2324,-1.1985,-1.1486,-1.0879,-1.053,-1.042,-0.9933,-0.9569,-0.929,-0.9008,-0.8883,-0.8877,-0.8758,-0.8699,-0.8705,-0.8606,-0.8916,-0.9573,-0.9228,-0.9192,-0.9564,-0.9266,-0.8997,-0.8885,-0.886,-0.8746,-0.8526,-0.876,-0.8998,-0.924,-0.952,-0.9823,-1.0072,-1.0431,-1.0733,-1.0848,-1.078,-1.0703,-1.0582,-1.0462,-1.0249,-1.0069,-0.9751,-0.9666,-0.9666,-0.9361,-0.9008,-0.8804,-0.8328,-0.7981,-0.7875,-0.7519,-0.7224,-0.6929,-0.6612,-0.6252,-0.5878,-0.5404,-0.4972,-0.4539,-0.3932,-0.3165,-0.2219,-0.156,-0.0987,-0.0534,-0.0159,0.0112,0.0225,0.0247,0.0404,0.0784,0.1142,0.1544,0.199,0.2393,0.2773,0.3129,0.3458,0.381,0.4272,0.4709,0.5231,0.5787,0.638,0.7063,0.7614,0.8255,0.8967,0.9902,1.0544,1.1105,-1.9965,-1.9661,-1.9223,-1.8666,-1.8022,-1.7569,-1.7113,-1.6594,-1.6136,-1.5546,-1.4889,-1.4751,-1.4863,-1.5171,-1.4976,-1.4468,-1.3809,-1.3515,-1.3098,-1.2528,-1.2291,-1.2035,-1.1754,-1.1412,-1.0973,-1.0407,-1.0025,-0.9731,-0.9461,-0.9155,-0.8968,-0.8837,-0.8586,-0.8434,-0.8434,-0.8282,-0.817,-0.8196,-0.8117,-0.8335,-0.8699,-0.8833,-0.8913,-0.9004,-0.8958,-0.8866,-0.8693,-0.8685,-0.8641,-0.8543,-0.8648,-0.8822,-0.9056,-0.9478,-0.9787,-0.9993,-1.0238,-1.043,-1.0472,-1.037,-1.019,-0.9991,-0.988,-0.9699,-0.9309,-0.8995,-0.8784,-0.8666,-0.8653,-0.848,-0.8109,-0.7815,-0.758,-0.7333,-0.6987,-0.6685,-0.649,-0.6046,-0.5641,-0.5395,-0.4901,-0.4401,-0.3932,-0.3125,-0.2245,-0.1443,-0.0948,-0.0519,-0.0047,0.0251,0.0471,0.0762,0.092,0.1053,0.121,0.1566,0.199,0.246,0.2862,0.322,0.3571,0.395,0.4298,0.4639,0.5123,0.562,0.613,0.6677,0.7294,0.7925,0.8785,0.9587,1.0225,1.0745,1.1274,-1.863,-1.8293,-1.8022,-1.7759,-1.7432,-1.7063,-1.6567,-1.605,-1.5504,-1.4822,-1.4099,-1.3691,-1.3749,-1.4138,-1.4003,-1.3629,-1.3036,-1.2632,-1.2216,-1.1763,-1.1464,-1.1174,-1.0916,-1.0559,-1.0024,-0.946,-0.9262,-0.8991,-0.8632,-0.8448,-0.8335,-0.8256,-0.8055,-0.7928,-0.7863,-0.7744,-0.7658,-0.7664,-0.7691,-0.7744,-0.7949,-0.8242,-0.8508,-0.8668,-0.876,-0.8728,-0.8513,-0.8523,-0.8473,-0.8396,-0.8507,-0.8692,-0.892,-0.9322,-0.9627,-0.9759,-0.9873,-0.9914,-0.9895,-0.9725,-0.9503,-0.9302,-0.9197,-0.8928,-0.854,-0.8203,-0.7877,-0.7551,-0.7722,-0.766,-0.7494,-0.7246,-0.7031,-0.6707,-0.6354,-0.6046,-0.5882,-0.5359,-0.4952,-0.4767,-0.4239,-0.368,-0.3123,-0.2206,-0.1381,-0.0827,-0.0416,-0.0025,0.0457,0.0695,0.0909,0.1258,0.159,0.1725,0.1679,0.2014,0.2504,0.2929,0.3331,0.3707,0.4038,0.439,0.4784,0.5123,0.5583,0.6029,0.6535,0.7042,0.7703,0.8464,0.9259,1.001,1.0515,1.0992,1.1486,-1.8091,-1.7691,-1.7176,-1.6978,-1.6874,-1.6377,-1.5922,-1.5512,-1.492,-1.4274,-1.361,-1.3075,-1.2629,-1.2329,-1.2678,-1.2583,-1.2119,-1.1635,-1.1307,-1.1122,-1.0798,-1.0319,-0.9784,-0.9621,-0.9251,-0.8731,-0.8571,-0.8392,-0.8195,-0.7889,-0.767,-0.7542,-0.7413,-0.7279,-0.716,-0.7139,-0.7112,-0.7079,-0.7112,-0.7139,-0.7166,-0.7413,-0.7877,-0.8429,-0.86,-0.8514,-0.8333,-0.8318,-0.8174,-0.7847,-0.8147,-0.8437,-0.8706,-0.9034,-0.9266,-0.9377,-0.9302,-0.9185,-0.9035,-0.8811,-0.86,-0.8441,-0.8195,-0.7883,-0.7613,-0.735,-0.7008,-0.6517,-0.6552,-0.6665,-0.6898,-0.6591,-0.632,-0.6206,-0.5713,-0.5368,-0.516,-0.4619,-0.4239,-0.399,-0.3491,-0.2794,-0.2012,-0.1344,-0.0774,-0.0297,0.0106,0.0518,0.0902,0.1237,0.1538,0.1789,0.2125,0.239,0.219,0.2482,0.2932,0.3353,0.3755,0.4152,0.4478,0.4801,0.5193,0.5604,0.605,0.6492,0.6937,0.7565,0.8329,0.9019,0.9617,1.0273,1.0783,1.1244,1.1726,-1.7407,-1.6795,-1.6517,-1.6307,-1.6158,-1.585,-1.5483,-1.507,-1.4516,-1.3921,-1.3239,-1.2572,-1.1996,-1.1466,-1.1358,-1.1296,-1.124,-1.0839,-1.0555,-1.0376,-1.0087,-0.9801,-0.95,-0.9162,-0.8737,-0.8334,-0.8147,-0.7921,-0.7618,-0.7333,-0.7171,-0.7063,-0.6761,-0.6566,-0.6507,-0.6349,-0.6263,-0.6295,-0.6349,-0.6436,-0.6539,-0.6707,-0.6977,-0.7337,-0.7877,-0.8074,-0.7909,-0.7981,-0.7983,-0.7852,-0.7971,-0.8163,-0.8358,-0.858,-0.8738,-0.8837,-0.8567,-0.8355,-0.8276,-0.7957,-0.7723,-0.7574,-0.7378,-0.7118,-0.6852,-0.6616,-0.6354,-0.601,-0.5755,-0.5767,-0.5764,-0.5827,-0.5802,-0.5594,-0.5181,-0.4755,-0.4461,-0.4003,-0.3548,-0.3231,-0.2514,-0.1705,-0.1203,-0.056,-0.0056,0.0331,0.0729,0.1095,0.14,0.1768,0.2086,0.2357,0.2682,0.2993,0.3145,0.3103,0.3331,0.3755,0.413,0.4499,0.4823,0.5215,0.5604,0.6072,0.6513,0.6958,0.7426,0.8177,0.8926,0.9448,1.0049,1.0534,1.1029,1.1468,1.1891,-1.6652,-1.6044,-1.5806,-1.5586,-1.5365,-1.5089,-1.4768,-1.4391,-1.3874,-1.3313,-1.2708,-1.1987,-1.1356,-1.0855,-1.0397,-1.0231,-1.0333,-1.0174,-1.0015,-0.9805,-0.96,-0.9352,-0.9095,-0.8776,-0.841,-0.8063,-0.7756,-0.741,-0.7049,-0.6747,-0.6549,-0.6472,-0.6105,-0.5882,-0.58,-0.5637,-0.5527,-0.5582,-0.5641,-0.5778,-0.5909,-0.6077,-0.6132,-0.629,-0.6853,-0.7278,-0.7316,-0.7444,-0.7498,-0.7471,-0.7471,-0.7584,-0.7809,-0.8029,-0.8096,-0.807,-0.783,-0.7551,-0.7417,-0.7128,-0.6895,-0.6754,-0.6571,-0.6306,-0.6068,-0.5896,-0.5627,-0.5305,-0.5146,-0.4982,-0.4807,-0.4992,-0.5109,-0.4938,-0.4573,-0.4176,-0.3946,-0.334,-0.2807,-0.2284,-0.1566,-0.0896,-0.0421,0.0112,0.056,0.0925,0.1307,0.1655,0.1952,0.2291,0.2646,0.2915,0.3306,0.3634,0.3829,0.3921,0.3921,0.4254,0.4565,0.4888,0.5231,0.5626,0.605,0.6513,0.6979,0.7419,0.8021,0.8777,0.9348,0.9853,1.0332,1.0802,1.1255,1.1664,1.2102,-1.5867,-1.5434,-1.5054,-1.476,-1.4502,-1.4042,-1.368,-1.3447,-1.2985,-1.2516,-1.2053,-1.1263,-1.079,-1.0343,-0.987,-0.9484,-0.947,-0.965,-0.967,-0.948,-0.9346,-0.9032,-0.8623,-0.8483,-0.8215,-0.7873,-0.7276,-0.6835,-0.6497,-0.6179,-0.5899,-0.5648,-0.5428,-0.5231,-0.5105,-0.4994,-0.4956,-0.5042,-0.5073,-0.5148,-0.5308,-0.5481,-0.5504,-0.5391,-0.5687,-0.6073,-0.6534,-0.6588,-0.6642,-0.6637,-0.661,-0.675,-0.7085,-0.73,-0.7354,-0.7166,-0.7085,-0.6842,-0.6477,-0.6264,-0.6137,-0.6008,-0.5707,-0.5524,-0.5378,-0.5182,-0.489,-0.4513,-0.4496,-0.4466,-0.4166,-0.4102,-0.4151,-0.4235,-0.3943,-0.3601,-0.3284,-0.2699,-0.1979,-0.1249,-0.0648,-0.0253,0.0196,0.0757,0.1232,0.1525,0.1873,0.2196,0.2515,0.2861,0.3158,0.3462,0.3877,0.4246,0.4487,0.4683,0.4683,0.477,0.5058,0.5366,0.569,0.6077,0.6477,0.6915,0.7467,0.7931,0.8504,0.9199,0.9677,1.0176,1.063,1.1038,1.1449,1.1866,1.23,-1.5138,-1.4641,-1.415,-1.3825,-1.3579,-1.3149,-1.2849,-1.2659,-1.2337,-1.1985,-1.1495,-1.1003,-1.0555,-1.0101,-0.9616,-0.9334,-0.9163,-0.9146,-0.9119,-0.9119,-0.899,-0.8726,-0.8366,-0.8201,-0.7796,-0.7189,-0.6598,-0.621,-0.5931,-0.5645,-0.5391,-0.5163,-0.4858,-0.467,-0.4634,-0.4406,-0.4325,-0.4353,-0.4439,-0.4491,-0.4574,-0.4739,-0.4822,-0.4759,-0.4846,-0.5011,-0.5171,-0.5714,-0.6018,-0.6046,-0.6046,-0.6132,-0.6295,-0.6322,-0.6344,-0.6327,-0.6164,-0.599,-0.5789,-0.5555,-0.5398,-0.5296,-0.5141,-0.4944,-0.4847,-0.4737,-0.4458,-0.4043,-0.402,-0.3906,-0.3555,-0.3372,-0.3456,-0.3893,-0.3496,-0.3007,-0.2535,-0.1734,-0.0902,-0.0234,0.0232,0.0604,0.096,0.1486,0.1861,0.1989,0.2355,0.2756,0.2977,0.3378,0.3761,0.4073,0.449,0.4814,0.4992,0.521,0.534,0.5361,0.5539,0.5777,0.612,0.6483,0.688,0.7391,0.7944,0.8476,0.905,0.9529,1.0011,1.0428,1.0821,1.1236,1.1634,1.2054,1.2461,-1.424,-1.3739,-1.3251,-1.2959,-1.2709,-1.2342,-1.2046,-1.1855,-1.1632,-1.1347,-1.0979,-1.0647,-1.0247,-0.9844,-0.9473,-0.9122,-0.8793,-0.8582,-0.8466,-0.8477,-0.8533,-0.8247,-0.7847,-0.7521,-0.7108,-0.6485,-0.5996,-0.564,-0.5393,-0.5155,-0.4938,-0.4733,-0.4455,-0.4325,-0.4319,-0.41,-0.3983,-0.4025,-0.41,-0.4132,-0.4157,-0.4297,-0.4379,-0.4386,-0.4428,-0.4454,-0.4512,-0.5019,-0.5273,-0.5313,-0.5336,-0.5422,-0.5517,-0.5539,-0.5577,-0.5561,-0.5454,-0.5312,-0.5166,-0.4942,-0.48,-0.4726,-0.4545,-0.4394,-0.4272,-0.4193,-0.3856,-0.3491,-0.3218,-0.3021,-0.2755,-0.2487,-0.2552,-0.275,-0.2581,-0.2157,-0.152,-0.073,0.0,0.0573,0.1067,0.143,0.1752,0.2165,0.253,0.2609,0.2935,0.3303,0.3556,0.3965,0.4311,0.4666,0.5046,0.5296,0.5474,0.569,0.5954,0.5997,0.6019,0.6233,0.6505,0.6865,0.7245,0.7897,0.8464,0.891,0.9448,0.9873,1.0312,1.0678,1.1021,1.1415,1.1822,1.2192,1.2615,-1.3178,-1.282,-1.2409,-1.2114,-1.1929,-1.1558,-1.126,-1.1074,-1.0887,-1.0732,-1.0482,-1.0253,-0.9938,-0.9581,-0.9228,-0.88,-0.8312,-0.799,-0.7709,-0.7599,-0.7664,-0.7536,-0.7077,-0.6601,-0.6195,-0.584,-0.5531,-0.5184,-0.4893,-0.47,-0.4507,-0.4381,-0.4273,-0.4195,-0.4186,-0.4,-0.392,-0.3957,-0.3975,-0.3978,-0.3941,-0.4059,-0.4124,-0.4124,-0.4213,-0.4264,-0.4288,-0.4342,-0.4431,-0.4506,-0.4696,-0.4787,-0.4755,-0.4912,-0.5013,-0.4901,-0.4916,-0.479,-0.4576,-0.4366,-0.4241,-0.4232,-0.3974,-0.3746,-0.3664,-0.3347,-0.2987,-0.2586,-0.2283,-0.2013,-0.1814,-0.1479,-0.1244,-0.1041,-0.1209,-0.0962,-0.0097,0.0387,0.0859,0.1363,0.1866,0.2297,0.2466,0.2886,0.3205,0.34,0.3632,0.3954,0.4276,0.4615,0.4892,0.5222,0.5548,0.5707,0.5863,0.6013,0.6276,0.6441,0.6489,0.6681,0.695,0.7307,0.7704,0.8357,0.8898,0.9368,0.9765,1.0157,1.0505,1.0831,1.122,1.1604,1.1979,1.2347,1.2738,-1.2335,-1.2194,-1.1632,-1.1409,-1.126,-1.0887,-1.0738,-1.0663,-1.0588,-1.0443,-1.0271,-1.0045,-0.9702,-0.9323,-0.8778,-0.8311,-0.7861,-0.738,-0.6937,-0.6655,-0.6518,-0.6439,-0.6158,-0.5716,-0.5382,-0.5246,-0.4979,-0.4677,-0.4482,-0.4401,-0.4286,-0.4129,-0.4105,-0.4135,-0.4127,-0.3959,-0.3836,-0.378,-0.3777,-0.3701,-0.358,-0.3595,-0.3618,-0.3623,-0.3684,-0.3668,-0.3663,-0.3663,-0.3917,-0.4386,-0.4463,-0.4492,-0.4453,-0.4521,-0.4486,-0.4348,-0.4318,-0.4229,-0.4016,-0.3809,-0.3702,-0.3671,-0.3379,-0.3098,-0.2781,-0.2551,-0.2115,-0.1679,-0.1411,-0.1177,-0.0807,-0.0471,-0.0067,0.047,0.0269,0.0234,0.0865,0.1393,0.1837,0.2236,0.2772,0.3073,0.3275,0.3616,0.3962,0.4131,0.4378,0.4692,0.5022,0.5258,0.5543,0.5723,0.5963,0.6098,0.6233,0.6361,0.6547,0.6795,0.695,0.7104,0.7433,0.7829,0.8275,0.8825,0.9268,0.9715,1.004,1.039,1.0697,1.1002,1.1341,1.1712,1.2102,1.2496,1.2896,-1.1706,-1.1595,-1.1143,-1.0925,-1.0812,-1.0519,-1.0368,-1.0331,-1.018,-1.0067,-0.9916,-0.9647,-0.9311,-0.8884,-0.8355,-0.7851,-0.7372,-0.6772,-0.6259,-0.5881,-0.5499,-0.5383,-0.5348,-0.4928,-0.4625,-0.4625,-0.4389,-0.4225,-0.4128,-0.4097,-0.403,-0.3944,-0.3931,-0.3999,-0.3961,-0.3902,-0.3743,-0.359,-0.3516,-0.3437,-0.3206,-0.3212,-0.323,-0.3243,-0.3267,-0.3328,-0.3328,-0.3328,-0.3544,-0.3868,-0.3992,-0.3964,-0.3969,-0.405,-0.3978,-0.3797,-0.3806,-0.3742,-0.3487,-0.3272,-0.3068,-0.2911,-0.2654,-0.2319,-0.1914,-0.1577,-0.1144,-0.0717,-0.041,-0.0069,0.0312,0.0723,0.1224,0.1717,0.1812,0.178,0.1915,0.2347,0.2764,0.315,0.3554,0.3972,0.4088,0.4491,0.4782,0.4993,0.5201,0.5497,0.5765,0.5974,0.6141,0.6319,0.6429,0.6542,0.6637,0.6743,0.6937,0.7179,0.7637,0.7742,0.7946,0.8337,0.8724,0.9188,0.9636,1.001,1.0273,1.0563,1.0869,1.1172,1.1497,1.1836,1.2234,1.2673,1.3052,-1.1229,-1.1005,-1.0818,-1.0625,-1.0443,-1.0255,-1.011,-1.0067,-0.9733,-0.9544,-0.9392,-0.9084,-0.8665,-0.8246,-0.7719,-0.7314,-0.6727,-0.6101,-0.5651,-0.5187,-0.4741,-0.4544,-0.4774,-0.4356,-0.4121,-0.4066,-0.3859,-0.3794,-0.3794,-0.3794,-0.3758,-0.3723,-0.3718,-0.3754,-0.3706,-0.3673,-0.3539,-0.3281,-0.317,-0.3011,-0.2815,-0.2784,-0.2779,-0.2724,-0.2799,-0.2861,-0.2902,-0.297,-0.3017,-0.3181,-0.3297,-0.3408,-0.3413,-0.3521,-0.3425,-0.3275,-0.3259,-0.3139,-0.2883,-0.2608,-0.2379,-0.2082,-0.1814,-0.1479,-0.0975,-0.0607,-0.0171,0.0278,0.0737,0.1029,0.1507,0.2062,0.2469,0.2833,0.3242,0.3337,0.3188,0.3353,0.372,0.3923,0.4419,0.4781,0.5059,0.5377,0.5708,0.5977,0.6142,0.6276,0.6472,0.6611,0.6771,0.6935,0.6966,0.6968,0.7071,0.7137,0.735,0.7603,0.8259,0.8529,0.8557,0.8866,0.9159,0.9518,0.9922,1.0205,1.0428,1.0736,1.1031,1.1333,1.1601,1.1993,1.2407,1.2843,1.3254,-1.0663,-1.0625,-1.04,-1.0293,-1.0218,-0.9884,-0.9733,-0.969,-0.9268,-0.9046,-0.8818,-0.8479,-0.7978,-0.7433,-0.6857,-0.6282,-0.5857,-0.5319,-0.4858,-0.4606,-0.4206,-0.4045,-0.4118,-0.3942,-0.3915,-0.3789,-0.3663,-0.3565,-0.3565,-0.3496,-0.3496,-0.336,-0.3393,-0.346,-0.3326,-0.3188,-0.305,-0.283,-0.2659,-0.2416,-0.2173,-0.2113,-0.2059,-0.1962,-0.1942,-0.1947,-0.195,-0.195,-0.1971,-0.2153,-0.2668,-0.3048,-0.3121,-0.3109,-0.2988,-0.2758,-0.2501,-0.2316,-0.2118,-0.1716,-0.1412,-0.1246,-0.0777,-0.0269,-0.0034,0.0378,0.0799,0.1232,0.1535,0.1957,0.2549,0.3192,0.3484,0.3728,0.4108,0.4487,0.4548,0.4525,0.4592,0.4845,0.5288,0.5751,0.6002,0.6245,0.6563,0.6933,0.7048,0.7107,0.7144,0.7197,0.73,0.7416,0.7455,0.747,0.7686,0.7841,0.8135,0.839,0.8942,0.9291,0.931,0.9379,0.9687,0.9919,1.0176,1.0409,1.0592,1.0871,1.1166,1.1456,1.176,1.215,1.2567,1.3,1.3454,-1.0363,-1.0218,-1.0099,-0.996,-0.9733,-0.9463,-0.9273,-0.9127,-0.8742,-0.8399,-0.8093,-0.7714,-0.7173,-0.6553,-0.6012,-0.5547,-0.5162,-0.4659,-0.4309,-0.4139,-0.39,-0.3785,-0.3624,-0.3605,-0.3568,-0.3449,-0.3359,-0.3239,-0.3139,-0.3029,-0.2893,-0.2825,-0.2893,-0.2723,-0.2622,-0.252,-0.2319,-0.2047,-0.188,-0.1646,-0.1412,-0.1277,-0.121,-0.1109,-0.1076,-0.1076,-0.1109,-0.1109,-0.1109,-0.1244,-0.1614,-0.2116,-0.2386,-0.2386,-0.2217,-0.1949,-0.178,-0.1444,-0.1144,-0.0782,-0.048,-0.0309,0.0173,0.0593,0.0944,0.1311,0.1721,0.2214,0.2536,0.2853,0.3517,0.3999,0.43,0.4512,0.4891,0.5313,0.5496,0.5422,0.5422,0.5683,0.6079,0.6522,0.687,0.7066,0.7235,0.7528,0.7375,0.7398,0.7493,0.7553,0.7699,0.7786,0.7891,0.8008,0.8259,0.858,0.9028,0.9369,0.9807,1.0006,1.0033,1.0108,1.0207,1.0321,1.037,1.0563,1.0774,1.1033,1.1309,1.1612,1.195,1.2318,1.2715,1.3149,1.3628,-1.0105,-0.9765,-0.9771,-0.9544,-0.9165,-0.8932,-0.8699,-0.8475,-0.8097,-0.7633,-0.7249,-0.6865,-0.6321,-0.5744,-0.5356,-0.4932,-0.4584,-0.4272,-0.396,-0.3798,-0.3754,-0.3523,-0.3326,-0.3181,-0.3045,-0.2951,-0.2977,-0.2864,-0.2586,-0.2426,-0.2322,-0.2221,-0.2085,-0.195,-0.1782,-0.1648,-0.1479,-0.1209,-0.0974,-0.0806,-0.0605,-0.0403,-0.0302,-0.0202,-0.0202,-0.0203,-0.0169,-0.0204,-0.0204,-0.0238,-0.0238,-0.0544,-0.0985,-0.1313,-0.1248,-0.0946,-0.0814,-0.0546,-0.0172,0.0174,0.0458,0.0776,0.1076,0.1452,0.1888,0.2188,0.2582,0.3067,0.3477,0.3947,0.4437,0.493,0.5154,0.5315,0.5724,0.6123,0.634,0.6326,0.6576,0.6568,0.69,0.7265,0.7587,0.7811,0.7952,0.8004,0.7833,0.7717,0.781,0.791,0.8033,0.8258,0.837,0.8815,0.9122,0.9507,0.9921,1.0205,1.0624,1.0679,1.0752,1.0837,1.0817,1.0489,1.0525,1.0728,1.0949,1.1147,1.1437,1.1785,1.2173,1.2538,1.2929,1.3298,1.3884,-0.9539,-0.9155,-0.9155,-0.8927,-0.8556,-0.8327,-0.8021,-0.7672,-0.7249,-0.6749,-0.617,-0.5935,-0.5509,-0.4971,-0.4657,-0.4309,-0.3997,-0.3804,-0.3686,-0.3526,-0.3487,-0.3276,-0.288,-0.2637,-0.241,-0.2233,-0.2271,-0.2245,-0.208,-0.1976,-0.17,-0.1518,-0.1317,-0.1149,-0.0913,-0.0706,-0.0542,-0.0374,-0.0102,0.0102,0.0237,0.0441,0.061,0.0712,0.0747,0.0787,0.0867,0.0906,0.0949,0.1004,0.0971,0.0898,0.0639,0.0103,-0.0103,-0.0035,0.0313,0.0595,0.0818,0.1081,0.134,0.1631,0.1934,0.2338,0.2715,0.3045,0.3387,0.3904,0.4538,0.5087,0.5357,0.588,0.6239,0.6474,0.682,0.7332,0.7684,0.791,0.7903,0.7726,0.7856,0.7944,0.8227,0.837,0.841,0.8384,0.8236,0.8195,0.8242,0.8317,0.8388,0.8646,0.8915,0.9478,1.0028,1.0455,1.087,1.1021,1.1278,1.1323,1.142,1.1547,1.1431,1.1095,1.0912,1.1038,1.1209,1.141,1.1784,1.2264,1.2544,1.283,1.3463,1.4062,1.4541,-0.897,-0.8551,-0.8551,-0.825,-0.7791,-0.7561,-0.7173,-0.6672,-0.636,-0.586,-0.5398,-0.5162,-0.4851,-0.4428,-0.4192,-0.3843,-0.353,-0.3452,-0.3335,-0.3175,-0.3018,-0.2784,-0.2314,-0.2038,-0.1638,-0.1302,-0.1226,-0.1301,-0.1288,-0.1097,-0.0944,-0.0737,-0.0456,-0.021,0.0,0.0246,0.0385,0.0525,0.077,0.0946,0.1016,0.1226,0.1366,0.1437,0.1472,0.1484,0.1496,0.1502,0.1583,0.1671,0.1713,0.175,0.1737,0.1611,0.1268,0.1141,0.1359,0.1615,0.175,0.1987,0.223,0.2459,0.2738,0.3176,0.3563,0.3861,0.4222,0.4816,0.5487,0.6093,0.6388,0.6826,0.7125,0.741,0.7844,0.8234,0.8593,0.8962,0.8928,0.8783,0.8747,0.8766,0.8811,0.8917,0.8863,0.8759,0.8634,0.8636,0.8682,0.8696,0.8718,0.9159,0.9498,1.0061,1.0625,1.1074,1.1518,1.1716,1.1849,1.193,1.2008,1.2101,1.1949,1.1632,1.1552,1.1684,1.1926,1.2285,1.2524,1.2793,1.3302,1.3802,1.4331,1.4839,1.5252,-0.836,-0.7872,-0.7753,-0.7407,-0.6907,-0.6672,-0.6244,-0.5705,-0.5509,-0.5124,-0.4621,-0.4504,-0.4309,-0.3999,-0.3684,-0.3372,-0.3022,-0.2982,-0.2785,-0.2588,-0.2352,-0.2038,-0.1608,-0.1176,-0.0744,-0.0351,0.0077,0.0,-0.0368,-0.0182,0.0036,0.0181,0.0472,0.0692,0.0834,0.0975,0.1238,0.1385,0.1567,0.164,0.1749,0.1858,0.2005,0.2041,0.2042,0.2042,0.2091,0.2095,0.2178,0.2302,0.2379,0.2447,0.2626,0.2846,0.2737,0.2367,0.2392,0.2498,0.2638,0.2856,0.3085,0.3315,0.3486,0.3938,0.4525,0.4856,0.5226,0.5893,0.6475,0.7019,0.7433,0.7744,0.8023,0.8379,0.8758,0.9108,0.9372,0.965,0.9872,0.9725,0.9622,0.9549,0.9524,0.9231,0.9163,0.9153,0.9025,0.8979,0.9016,0.8965,0.9113,0.9629,1.0113,1.0651,1.1141,1.1535,1.1909,1.219,1.2334,1.2397,1.2494,1.2609,1.2428,1.2307,1.2598,1.2752,1.2958,1.3005,1.313,1.345,1.4156,1.4695,1.5081,1.5434,1.5776,-0.7442,-0.7019,-0.6591,-0.6163,-0.5819,-0.5631,-0.5243,-0.4893,-0.4815,-0.4582,-0.4118,-0.3997,-0.3763,-0.3489,-0.3098,-0.2902,-0.2707,-0.2433,-0.2157,-0.1921,-0.1568,-0.1176,-0.0707,-0.0157,0.0157,0.051,0.1056,0.1003,0.0642,0.074,0.0915,0.11,0.1213,0.1388,0.14,0.1586,0.1714,0.179,0.1974,0.2195,0.2377,0.2453,0.2599,0.2745,0.2788,0.2737,0.2744,0.2715,0.2846,0.2937,0.3218,0.3337,0.3418,0.3732,0.3889,0.3748,0.352,0.3302,0.343,0.3604,0.3883,0.4151,0.4336,0.473,0.5389,0.6051,0.6518,0.7211,0.7557,0.7897,0.8432,0.8822,0.9145,0.9384,0.967,0.998,1.0216,1.021,1.0425,1.0331,1.0134,1.0125,1.0124,0.9762,0.9443,0.9458,0.9456,0.9442,0.9535,0.9646,0.9853,1.0461,1.0936,1.1481,1.1711,1.2063,1.2265,1.2592,1.27,1.2793,1.2859,1.2939,1.3138,1.314,1.3426,1.35,1.3412,1.3461,1.3602,1.409,1.4764,1.5284,1.5758,1.6059,1.6328,-0.6015,-0.6128,-0.5822,-0.5473,-0.5085,-0.501,-0.4659,-0.427,-0.4192,-0.396,-0.3571,-0.3452,-0.3217,-0.2942,-0.2588,-0.2354,-0.212,-0.1805,-0.1492,-0.1099,-0.0667,-0.0235,0.0157,0.0707,0.11,0.1257,0.1609,0.1798,0.1579,0.1494,0.1598,0.1633,0.1786,0.1905,0.1891,0.2089,0.2246,0.2399,0.2589,0.274,0.2852,0.2889,0.2963,0.3078,0.3075,0.3094,0.3114,0.3167,0.3332,0.3489,0.38,0.4073,0.419,0.4421,0.4654,0.4774,0.4836,0.4631,0.4307,0.4509,0.4787,0.5087,0.5321,0.5815,0.6553,0.715,0.765,0.8131,0.8475,0.8861,0.9284,0.9614,0.9884,1.0105,1.0331,1.0481,1.07,1.0838,1.0875,1.0748,1.0637,1.0613,1.0572,1.0411,1.0137,1.0104,1.0203,1.0314,1.0561,1.0886,1.1126,1.1456,1.1926,1.2351,1.246,1.2658,1.2642,1.2849,1.2939,1.3032,1.3108,1.3222,1.3484,1.3645,1.375,1.3761,1.3762,1.407,1.4395,1.4879,1.5358,1.5832,1.6263,1.6591,1.6844,-0.4654,-0.504,-0.4968,-0.4698,-0.4387,-0.4311,-0.4036,-0.3647,-0.3647,-0.3374,-0.3061,-0.2943,-0.2669,-0.2354,-0.2079,-0.1766,-0.1415,-0.11,-0.0707,-0.0236,0.0236,0.0629,0.0982,0.1453,0.1806,0.1846,0.2237,0.2388,0.2352,0.227,0.2188,0.2081,0.2182,0.2305,0.2388,0.246,0.2611,0.2807,0.2927,0.3124,0.3242,0.3285,0.3365,0.3407,0.3413,0.3413,0.345,0.3563,0.3798,0.4034,0.4501,0.4791,0.4991,0.5385,0.5683,0.59,0.6144,0.6227,0.5863,0.5842,0.5929,0.6238,0.6702,0.7344,0.7956,0.8398,0.8791,0.934,0.9573,0.9879,1.0144,1.0367,1.0474,1.064,1.0743,1.0856,1.0962,1.1105,1.1126,1.097,1.0895,1.092,1.0909,1.0958,1.0867,1.0765,1.0875,1.1145,1.148,1.1869,1.2114,1.2341,1.258,1.2977,1.3186,1.3216,1.3205,1.3206,1.3273,1.3432,1.3626,1.3774,1.3959,1.4066,1.4129,1.4188,1.427,1.4756,1.5232,1.5499,1.5844,1.6325,1.6769,1.7052,1.7199,-0.3524,-0.3565,-0.38,-0.3761,-0.3526,-0.3294,-0.3217,-0.3139,-0.3141,-0.2981,-0.2746,-0.2431,-0.2159,-0.1886,-0.1532,-0.1178,-0.0904,-0.0354,0.0079,0.0512,0.0983,0.1343,0.1699,0.2051,0.2437,0.2472,0.2746,0.2904,0.2982,0.2865,0.2708,0.251,0.2511,0.2628,0.2707,0.2824,0.2981,0.3139,0.3256,0.3452,0.3649,0.3771,0.3892,0.4164,0.4275,0.4307,0.4309,0.4335,0.4464,0.4708,0.5246,0.5648,0.5907,0.6498,0.6824,0.7045,0.7542,0.7718,0.7649,0.7297,0.7334,0.7885,0.8431,0.8868,0.9372,0.9727,1.0195,1.0538,1.0603,1.0802,1.0986,1.1132,1.1042,1.1023,1.1065,1.1111,1.1223,1.1372,1.1351,1.1204,1.124,1.1404,1.1685,1.1804,1.1585,1.1467,1.1752,1.1986,1.227,1.2598,1.2849,1.3057,1.3213,1.3496,1.3828,1.3854,1.3811,1.3809,1.3866,1.4075,1.4314,1.4455,1.448,1.4622,1.4735,1.4753,1.484,1.5257,1.5611,1.5917,1.6262,1.6577,1.6833,1.7052,1.7157,-0.294,-0.2862,-0.2823,-0.2902,-0.302,-0.2824,-0.2668,-0.2549,-0.2549,-0.2434,-0.2239,-0.1845,-0.161,-0.1375,-0.0943,-0.055,-0.0276,0.032,0.0721,0.1212,0.1746,0.211,0.2423,0.264,0.2947,0.2918,0.3066,0.3102,0.31,0.3235,0.3064,0.2904,0.2954,0.2904,0.3022,0.3267,0.3459,0.3571,0.3767,0.3997,0.4086,0.4258,0.4365,0.4482,0.4761,0.4814,0.4864,0.5105,0.5308,0.5641,0.6207,0.6552,0.6937,0.7589,0.7995,0.8185,0.8787,0.9174,0.928,0.8839,0.8673,0.92,0.9689,1.008,1.0524,1.0613,1.088,1.1192,1.1393,1.1467,1.1567,1.1474,1.1346,1.1353,1.132,1.1366,1.1484,1.1632,1.1816,1.1765,1.1978,1.2192,1.2479,1.277,1.2456,1.2189,1.254,1.2851,1.3086,1.3358,1.3582,1.3828,1.4007,1.4073,1.4349,1.4402,1.4398,1.4427,1.4426,1.462,1.4831,1.493,1.4996,1.5163,1.5387,1.549,1.5616,1.5765,1.5935,1.6078,1.6309,1.6586,1.6842,1.7073,1.7136,-0.2473,-0.2315,-0.2119,-0.2237,-0.2514,-0.2395,-0.2237,-0.2119,-0.2119,-0.1963,-0.1691,-0.1265,-0.0993,-0.0795,-0.028,0.012,0.0485,0.0979,0.1436,0.19,0.2408,0.2787,0.297,0.3236,0.3505,0.3414,0.3567,0.3656,0.3704,0.3609,0.366,0.3662,0.3563,0.3565,0.3459,0.379,0.4068,0.4124,0.4274,0.4513,0.453,0.4698,0.4857,0.4989,0.5309,0.5496,0.5661,0.5906,0.6245,0.664,0.7134,0.7628,0.8068,0.8588,0.9081,0.9466,0.991,1.0441,1.0489,1.0376,1.0098,1.0481,1.0761,1.1046,1.1295,1.1419,1.1657,1.1876,1.1934,1.1939,1.1999,1.1763,1.1581,1.1505,1.1508,1.1558,1.1781,1.1959,1.222,1.2367,1.2628,1.2875,1.3292,1.3598,1.3606,1.3344,1.3459,1.3701,1.3832,1.4103,1.4374,1.4607,1.482,1.4859,1.4887,1.4866,1.4855,1.4939,1.498,1.5077,1.5219,1.5365,1.5521,1.571,1.5961,1.6216,1.6397,1.6562,1.6357,1.6122,1.6449,1.6841,1.6863,1.7073,1.7157,-0.1926,-0.1887,-0.1691,-0.173,-0.1925,-0.1926,-0.1887,-0.1809,-0.1812,-0.1619,-0.1191,-0.0605,-0.0285,-0.0122,0.0495,0.0912,0.1247,0.1757,0.2227,0.2653,0.3009,0.3246,0.3488,0.3817,0.4053,0.4195,0.4246,0.4392,0.4502,0.4394,0.4449,0.4502,0.4401,0.4298,0.3952,0.4394,0.4637,0.4594,0.4613,0.4766,0.4932,0.5114,0.5388,0.5723,0.6161,0.6402,0.6612,0.6947,0.729,0.7632,0.8269,0.8734,0.9039,0.9895,1.0391,1.0507,1.1171,1.1558,1.1649,1.1595,1.1545,1.1507,1.1663,1.192,1.2244,1.2341,1.2288,1.2368,1.2439,1.2307,1.2172,1.1973,1.1758,1.1714,1.1715,1.1855,1.2077,1.2445,1.2718,1.3092,1.3279,1.3485,1.4009,1.4395,1.4601,1.4594,1.4545,1.459,1.4677,1.487,1.5164,1.5221,1.5379,1.5264,1.5226,1.5313,1.5332,1.54,1.5436,1.5487,1.5731,1.5998,1.6149,1.6299,1.6623,1.6971,1.7153,1.7327,1.707,1.687,1.6895,1.7123,1.7118,1.7164,1.7331,-0.1691,-0.1691,-0.1493,-0.1336,-0.1297,-0.1415,-0.1415,-0.1222,-0.0958,-0.077,-0.0493,0.0125,0.054,0.0792,0.1298,0.1813,0.211,0.2525,0.3007,0.327,0.3689,0.3945,0.4183,0.4372,0.4565,0.4555,0.4664,0.476,0.4652,0.4767,0.4711,0.4711,0.4944,0.4828,0.4638,0.4768,0.4894,0.4849,0.5028,0.5232,0.5364,0.5755,0.6185,0.658,0.7051,0.7433,0.7722,0.8103,0.8402,0.879,0.9456,0.9809,1.0114,1.0928,1.1278,1.1408,1.1886,1.2229,1.232,1.2345,1.2266,1.2277,1.232,1.2454,1.2577,1.2619,1.2662,1.2614,1.2554,1.2438,1.238,1.2049,1.1837,1.198,1.2067,1.221,1.2452,1.2929,1.3346,1.3814,1.4115,1.4684,1.5214,1.5358,1.555,1.5611,1.5546,1.5519,1.5548,1.5775,1.6009,1.5843,1.5819,1.5624,1.5537,1.5566,1.5469,1.541,1.5584,1.5766,1.6065,1.641,1.6694,1.6797,1.7276,1.7737,1.7875,1.797,1.7821,1.7683,1.7801,1.783,1.7843,1.7799,1.7752,-0.1493,-0.1454,-0.1258,-0.1061,-0.0944,-0.107,-0.0998,-0.0645,-0.0164,0.0125,0.0336,0.0973,0.1403,0.1746,0.2271,0.2666,0.293,0.3485,0.3774,0.3957,0.4309,0.4513,0.4706,0.4906,0.5019,0.4948,0.5022,0.5077,0.5135,0.5077,0.5082,0.5193,0.5351,0.5391,0.5347,0.5411,0.5408,0.5402,0.5603,0.5867,0.6141,0.6494,0.6996,0.7511,0.8028,0.8488,0.8934,0.9331,0.9676,1.0077,1.0467,1.0809,1.1154,1.1494,1.1886,1.2057,1.2272,1.2486,1.2493,1.2644,1.2516,1.2491,1.2662,1.2705,1.2705,1.2662,1.2747,1.2717,1.2529,1.2542,1.251,1.2159,1.2139,1.2234,1.2423,1.259,1.3032,1.3513,1.3949,1.4438,1.4903,1.5621,1.6228,1.641,1.6497,1.6526,1.6518,1.6463,1.6379,1.6478,1.6599,1.6422,1.624,1.6084,1.5898,1.5782,1.5654,1.5449,1.5693,1.6015,1.6181,1.6457,1.6881,1.7357,1.7807,1.8218,1.8516,1.8609,1.8598,1.8682,1.8805,1.876,1.8648,1.8454,1.8232,-0.1297,-0.1258,-0.0983,-0.0865,-0.0829,-0.0647,-0.0455,-0.0168,0.0547,0.0968,0.1224,0.1945,0.2391,0.2664,0.3282,0.3609,0.3737,0.4328,0.4552,0.4688,0.4875,0.4999,0.5087,0.526,0.5326,0.5437,0.5474,0.5476,0.5669,0.5626,0.5632,0.5742,0.5948,0.6031,0.6025,0.618,0.6071,0.6041,0.6257,0.6589,0.6926,0.7317,0.7947,0.85,0.9056,0.951,0.9941,1.0332,1.0679,1.103,1.1413,1.1591,1.1849,1.2143,1.232,1.2448,1.2571,1.2536,1.2499,1.2644,1.2729,1.2747,1.279,1.2747,1.2747,1.2833,1.296,1.2929,1.2804,1.2726,1.2641,1.2544,1.2444,1.2614,1.2799,1.3163,1.3651,1.4086,1.4525,1.4955,1.5382,1.5947,1.6508,1.6837,1.6966,1.7114,1.7077,1.7026,1.6929,1.684,1.6912,1.6821,1.666,1.6514,1.6328,1.6153,1.6116,1.6008,1.6069,1.6326,1.6444,1.6756,1.7341,1.7873,1.8301,1.8679,1.8969,1.9291,1.9546,1.961,1.9434,1.9358,1.9125,1.8885,1.8729,-0.1022,-0.0983,-0.0629,-0.0278,0.0121,0.0923,0.1071,0.086,0.1464,0.1994,0.2421,0.2968,0.3369,0.3822,0.4202,0.4431,0.461,0.4832,0.5013,0.5149,0.5238,0.5371,0.5463,0.5552,0.5599,0.5644,0.5688,0.5733,0.5772,0.5863,0.608,0.6207,0.6482,0.6571,0.6792,0.7098,0.6873,0.6784,0.708,0.7438,0.7839,0.8261,0.8952,0.9602,1.0028,1.0506,1.1025,1.1241,1.1505,1.1725,1.2026,1.2192,1.2235,1.2448,1.2619,1.2613,1.2656,1.2668,1.2663,1.2838,1.2973,1.3021,1.3107,1.3094,1.3094,1.3094,1.3179,1.3218,1.3108,1.3031,1.312,1.3086,1.3108,1.333,1.3525,1.3844,1.435,1.4779,1.5214,1.5718,1.6111,1.6404,1.6947,1.6985,1.7148,1.7432,1.7546,1.7504,1.7456,1.7368,1.7284,1.7204,1.7129,1.6992,1.6726,1.6533,1.6568,1.6592,1.6647,1.6819,1.7221,1.7597,1.7973,1.8464,1.9002,1.9284,1.9449,1.9732,1.9987,1.9836,1.9698,1.9674,1.9598,1.9351,1.9239,-0.0629,-0.0511,-0.0079,0.0487,0.1214,0.2148,0.2397,0.2282,0.2595,0.3016,0.3446,0.3851,0.4257,0.4561,0.4832,0.5013,0.5146,0.5238,0.5374,0.5463,0.5508,0.5599,0.5688,0.5688,0.5688,0.5688,0.5733,0.5777,0.5952,0.6216,0.6479,0.6697,0.7013,0.7275,0.758,0.8061,0.8237,0.81,0.8162,0.8461,0.8892,0.9347,0.9985,1.0677,1.0977,1.137,1.1843,1.1977,1.2063,1.224,1.2491,1.2491,1.2534,1.2613,1.2608,1.2602,1.279,1.2777,1.2783,1.3156,1.3248,1.3333,1.3487,1.3536,1.343,1.3349,1.3525,1.3565,1.3435,1.339,1.3548,1.3729,1.3945,1.4196,1.4366,1.4567,1.5033,1.5503,1.6015,1.6532,1.6857,1.7069,1.7241,1.7269,1.7304,1.7545,1.7681,1.7736,1.7746,1.7765,1.7711,1.7656,1.7578,1.748,1.7217,1.6963,1.6961,1.7001,1.7071,1.7339,1.7904,1.844,1.8858,1.9333,1.9821,2.0052,2.0266,2.0146,2.0225,2.0125,2.0012,1.9875,1.9864,1.98,1.9771,-0.0118,0.0118,0.0687,0.1503,0.2383,0.3045,0.3564,0.3979,0.3846,0.3987,0.4389,0.4659,0.4835,0.5057,0.5282,0.5374,0.5463,0.5508,0.5599,0.5688,0.5644,0.5688,0.5688,0.5688,0.5688,0.5688,0.5822,0.5997,0.6302,0.67,0.7054,0.7272,0.7716,0.8153,0.8592,0.9074,0.9392,0.9659,0.9533,0.9672,1.0134,1.0532,1.0852,1.1541,1.1757,1.1935,1.2277,1.2448,1.2534,1.2619,1.2699,1.2656,1.2656,1.2741,1.2608,1.2729,1.3021,1.3138,1.3254,1.3622,1.3639,1.3769,1.3918,1.3926,1.3828,1.3737,1.3864,1.4019,1.3909,1.4207,1.4436,1.4511,1.471,1.5049,1.5356,1.567,1.6072,1.651,1.6872,1.7304,1.7488,1.7739,1.7879,1.7918,1.7777,1.7825,1.7784,1.7862,1.7935,1.8047,1.8018,1.7969,1.7852,1.7744,1.7607,1.7406,1.7366,1.7412,1.7526,1.802,1.8701,1.9229,1.973,2.0174,2.0609,2.0971,2.1149,2.0928,2.0702,2.0677,2.0501,2.0137,2.009,2.0258,2.0156,0.0511,0.0829,0.2009,0.2924,0.3521,0.4108,0.4588,0.5013,0.5013,0.4971,0.5149,0.5196,0.5329,0.5463,0.5552,0.5599,0.5644,0.5644,0.5688,0.5688,0.5688,0.5688,0.5733,0.5733,0.5733,0.5777,0.5952,0.6435,0.7007,0.7452,0.7893,0.8456,0.8811,0.9117,0.9593,1.0072,1.0458,1.0885,1.0971,1.0876,1.1101,1.1359,1.1686,1.2063,1.2277,1.2338,1.2552,1.2637,1.2668,1.2705,1.2705,1.2699,1.2705,1.2887,1.3059,1.3244,1.3485,1.3629,1.3893,1.4134,1.4197,1.4154,1.4226,1.4289,1.426,1.4186,1.4223,1.4378,1.4643,1.5009,1.5293,1.5348,1.5525,1.5944,1.6362,1.675,1.7168,1.7499,1.7828,1.7998,1.8193,1.8321,1.851,1.8464,1.8322,1.8186,1.8003,1.8003,1.8081,1.8144,1.8164,1.8105,1.7998,1.79,1.7812,1.7854,1.7787,1.8038,1.8273,1.8825,1.95,2.0138,2.0753,2.1019,2.1358,2.167,2.1741,2.1455,2.128,2.1242,2.1066,2.074,2.0857,2.104,2.0717,0.1421,0.1962,0.3221,0.397,0.4316,0.4816,0.5151,0.5374,0.5508,0.5552,0.5552,0.5552,0.5599,0.5688,0.5688,0.5688,0.5688,0.5688,0.5688,0.5688,0.5733,0.5688,0.5733,0.5819,0.5908,0.5997,0.6523,0.7139,0.7801,0.8332,0.8815,0.9428,0.9777,1.0135,1.0603,1.103,1.1348,1.1763,1.2042,1.2093,1.1989,1.2112,1.2203,1.2448,1.2589,1.2679,1.2793,1.2904,1.297,1.3031,1.3097,1.3185,1.3285,1.3429,1.3598,1.3806,1.4046,1.4237,1.4488,1.4663,1.4713,1.4577,1.4727,1.4801,1.448,1.444,1.4852,1.5005,1.5311,1.5688,1.6085,1.6233,1.6653,1.7068,1.7392,1.7735,1.8138,1.8527,1.8749,1.8885,1.8966,1.891,1.8983,1.8854,1.8752,1.8818,1.8623,1.8525,1.8516,1.8398,1.8369,1.8311,1.8252,1.8076,1.7939,1.8065,1.8204,1.8533,1.8875,1.9705,2.04,2.1167,2.1771,2.1895,2.2058,2.2259,2.2243,2.1995,2.187,2.1832,2.1631,2.1368,2.1574,2.169,2.1397,0.252,0.333,0.427,0.4699,0.483,0.5238,0.5419,0.5463,0.5599,0.5688,0.5688,0.5688,0.5688,0.5688,0.5688,0.5688,0.5688,0.5688,0.5688,0.5733,0.5777,0.5819,0.5908,0.6041,0.626,0.67,0.7224,0.7841,0.846,0.9078,0.9742,1.0357,1.0768,1.1175,1.1668,1.195,1.2148,1.2479,1.2753,1.293,1.2891,1.2772,1.2724,1.2757,1.2825,1.294,1.3097,1.3167,1.3276,1.3369,1.3468,1.3636,1.3809,1.3931,1.4154,1.4385,1.4605,1.4741,1.4897,1.5206,1.5018,1.4932,1.5184,1.5143,1.4824,1.5019,1.5394,1.5775,1.6079,1.6368,1.6763,1.7164,1.761,1.8046,1.831,1.8572,1.8979,1.9335,1.9453,1.9571,1.9608,1.9526,1.9468,1.934,1.9269,1.9358,1.9326,1.9297,1.9189,1.8975,1.8838,1.873,1.8633,1.8428,1.814,1.8237,1.846,1.8808,1.9241,2.0302,2.1239,2.1801,2.2256,2.2633,2.2795,2.276,2.2757,2.2556,2.2498,2.2372,2.2268,2.2092,2.2083,2.215,2.2018,0.3512,0.4329,0.4887,0.5136,0.5275,0.5508,0.5644,0.5644,0.5688,0.5688,0.5688,0.5688,0.5688,0.5688,0.5688,0.5688,0.5688,0.5733,0.5733,0.5733,0.5952,0.6038,0.6216,0.6571,0.6969,0.754,0.8109,0.8679,0.9389,1.0076,1.0703,1.1391,1.1673,1.211,1.2738,1.2911,1.2921,1.3174,1.3255,1.3396,1.3402,1.3336,1.3336,1.3357,1.3363,1.3399,1.339,1.339,1.3465,1.3547,1.3789,1.4035,1.4235,1.4449,1.4656,1.4864,1.5127,1.5259,1.5425,1.5565,1.533,1.5171,1.5417,1.548,1.5431,1.5775,1.6188,1.6591,1.6894,1.7017,1.7383,1.77,1.8103,1.8585,1.8935,1.9134,1.942,1.9569,1.9687,1.9923,2.0061,2.0091,2.0207,2.0002,1.9769,1.9736,1.9597,1.9531,1.9531,1.9414,1.9326,1.918,1.9043,1.867,1.8379,1.8512,1.8717,1.9034,1.9657,2.0904,2.1786,2.2228,2.2659,2.307,2.3092,2.2977,2.297,2.2907,2.2907,2.2794,2.2895,2.2857,2.2744,2.2636,2.2476]},{"header":{"parameterUnit":"m.s-1","parameterCategory":1,"la1":31.0,"la2":29.5877,"lo1":-88.7671,"lo2":-86.6584,"dy":0.0162,"dx":0.0185,"nx":115,"ny":88,"refTime":"2026-03-13T00:00:00:Z","depth":0,"parameterNumber":3,"parameterNumberName":"V-component_of_WINDS"},"data":[0.0,0.0,0.0,0.0,0.0,0.0,0.0,0.0,0.0,0.0,0.0,0.0,0.0,0.0,0.0,0.0,0.0,0.0,0.0,0.0,0.0,0.0,0.0,0.0,0.0,0.0,0.0,0.0,0.0,0.0,0.0,0.0,0.0,0.0,0.0,0.0,0.0,0.0,0.0,0.0,0.0,0.0,0.0,0.0,0.0,0.0,0.0,0.0,0.0,0.0,0.0,0.0,0.0,0.0,0.0,0.0,0.0,0.0,0.0,0.0,0.0,0.0,0.0,0.0,0.0,0.0,0.0,0.0,0.0,0.0,0.0,0.0,0.0,0.0,0.0,0.0,0.0,0.0,0.0,0.0,0.0,0.0,0.0,0.0,0.0,0.0,0.0,0.0,0.0,0.0,0.0,0.0,0.0,0.0,0.0,0.0,0.0,0.0,0.0,0.0,0.0,0.0,0.0,0.0,0.0,0.0,0.0,0.0,0.0,0.0,0.0,0.0,0.0,0.0,0.0,0.0,0.0,0.0,0.0,0.0,0.0,0.0,0.0,0.0,0.0,0.0,0.0,0.0,0.0,0.0,0.0,0.0,0.0,0.0,0.0,0.0,0.0,0.0,0.0,0.0,0.0,0.0,0.0,0.0,0.0,0.0,0.0,0.0,0.0,0.0,0.0,0.0,0.0,0.0,0.0,0.0,0.0,0.0,0.0,0.0,0.0,0.0,0.0,0.0,0.0,0.0,0.0,0.0,0.0,0.0,0.0,0.0,0.0,0.0,0.0,0.0,0.0,0.0,0.0,0.0,0.0,0.0,0.0,0.0,0.0,0.0,0.0,0.0,0.0,0.0,0.0,0.0,0.0,0.0,0.0,0.0,0.0,0.0,0.0,0.0,0.0,0.0,0.0,0.0,0.0,0.0,0.0,0.0,0.0,0.0,0.0,0.0,0.0,0.0,0.0,0.0,0.0,0.0,0.0,0.0,0.0,0.0,0.0,0.0,0.0,0.0,0.0,0.0,0.0,0.0,0.0,0.0,0.0,0.0,0.0,0.0,0.0,0.0,0.0,0.0,0.0,0.0,0.0,0.0,0.0,0.0,0.0,0.0,0.0,0.0,0.0,0.0,0.0,0.0,0.0,0.0,0.0,0.0,0.0,0.0,0.0,0.0,0.0,0.0,0.0,0.0,0.0,0.0,0.0,0.0,0.0,0.0,0.0,0.0,0.0,0.0,0.0,0.0,0.0,0.0,0.0,0.0,0.0,0.0,0.0,0.0,0.0,0.0,0.0,0.0,0.0,0.0,0.0,0.0,0.0,0.0,0.0,0.0,0.0,0.0,0.0,0.0,0.0,0.0,0.0,0.0,0.0,0.0,0.0,0.0,0.0,0.0,0.0,0.0,0.0,0.0,0.0,0.0,0.0,0.0,0.0,0.0,0.0,0.0,0.0,0.0,0.0,0.0,0.0,0.0,0.0,0.0,0.0,0.0,0.0,0.0,0.0,0.0,0.0,0.0,0.0,0.0,0.0,0.0,0.0,0.0,0.0,0.0,0.0,0.0,0.0,0.0,0.0,0.0,0.0,0.0,0.0,0.0,0.0,0.0,0.0,0.0,0.0,0.0,0.0,0.0,0.0,0.0,0.0,0.0,0.0,0.0,0.0,0.0,0.0,0.0,0.0,0.0,0.0,0.0,0.0,0.0,0.0,0.0,0.0,0.0,0.0,0.0,0.0,0.0,0.0,0.0,0.0,0.0,0.0,0.0,0.0,0.0,0.0,0.0,0.0,0.0,0.0,0.0,0.0,0.0,0.0,0.0,0.0,0.0,0.0,0.0,0.0,0.0,0.0,0.0,0.0,0.0,0.0,0.0,0.0,0.0,0.0,0.0,0.0,0.0,0.0,0.0,0.0,0.0,0.0,0.0,0.0,0.0,0.0,0.0,0.0,0.0,0.0,0.0,0.0,0.0,0.0,0.0,0.0,0.0,0.0,0.0,0.0,0.0,0.0,0.0,0.0,0.0,0.0,0.0,0.0,0.0,0.0,0.0,0.0,0.0,0.0,0.0,0.0,0.0,0.0,0.0,0.0,0.0,0.0,0.0,0.0,0.0,0.0,0.0,0.0,0.0,0.0,0.0,0.0,0.0,0.0,0.0,0.0,0.0,0.0,0.0,0.0,0.0,0.0,0.0,0.0,0.0,0.0,0.0,0.0,0.0,0.0,0.0,0.0,0.0,0.0,0.0,0.0,0.0,0.0,0.0,0.0,0.0,0.0,0.0,0.0,0.0,0.0,0.0,0.0,0.0,0.0,0.0,0.0,0.0,0.0,0.0,0.0,0.0,0.0,0.0,0.0,0.0,0.0,0.0,0.0,0.0,0.0,0.0,0.0,0.0,0.0,0.0,0.0,0.0,0.0,0.0,0.0,0.0,0.0,0.0,0.0,0.0,0.0,0.0,0.0,0.0,0.0,0.0,0.0,0.0,0.0,0.0,0.0,0.0,0.0,0.0,0.0,0.0,0.0,0.0,0.0,0.0,0.0,0.0,0.0,0.0,0.0,0.0,0.0,0.0,0.0,0.0,0.0,0.0,0.0,0.0,0.0,0.0,0.0,0.0,0.0,0.0,0.0,0.0,0.0,0.0,0.0,0.0,0.0,0.0,0.0,0.0,0.0,0.0,0.0,0.0,0.0,0.0,0.0,0.0,0.0,0.0,0.0,0.0,0.0,0.0,0.0,0.0,0.0,0.0,0.0,0.0,0.0,0.0,0.0,0.0,0.0,0.0,0.0,0.0,0.0,0.0,0.0,0.0,0.0,0.0,0.0,0.0,0.0,0.0,0.0,0.0,0.0,0.0,0.0,0.0,0.0,0.0,0.0,0.0,0.0,0.0,0.0,0.0,0.0,0.0,0.0,0.0,0.0,0.0,0.0,0.0,0.0,0.0,0.0,0.0,0.0,0.0,0.0,0.0,0.0,0.0,0.0,0.0,0.0,0.0,0.0,0.0,0.0,0.0,0.0,0.0,0.0,0.0,0.0,0.0,0.0,0.0,0.0,0.0,0.0,0.0,0.0,0.0,0.0,0.0,0.0,0.0,0.0,0.0,0.0,0.0,0.0,0.0,0.0,0.0,0.0,0.0,0.0,0.0,0.0,0.0,0.0,0.0,0.0,0.0,0.0,0.0,0.0,0.0,0.0,0.0,0.0,0.0,0.0,0.0,0.0,0.0,0.0,0.0,0.0,0.0,0.0,0.0,0.0,0.0,0.0,0.0,0.0,0.0,0.0,0.0,0.0,0.0,0.0,0.0,0.0,0.0,0.0,0.0,0.0,0.0,0.0,0.0,0.0,0.0,0.0,0.0,0.0,0.0,0.0,0.0,0.0,0.0,0.0,0.0,0.0,0.0,0.0,0.0,0.0,0.0,0.0,0.0,0.0,0.0,0.0,0.0,0.0,0.0,0.0,0.0,0.0,0.0,0.0,0.0,0.0,0.0,0.0,0.0,0.0,0.0,0.0,0.0,0.0,0.0,0.0,0.0,0.0,0.0,0.0,0.0,0.0,0.0,0.0,0.0,0.0,0.0,0.0,0.0,0.0,0.0,0.0,0.0,0.0,0.0,0.0,0.0,0.0,0.0,0.0,0.0,0.0,0.0,0.0,0.0,0.0,0.0,0.0,0.0,0.0,0.0,0.0,0.0,0.0,0.0,0.0,0.0,0.0,0.0,0.0,0.0,0.0,0.0,0.0,0.0,0.0,0.0,0.0,0.0,0.0,0.0,0.0,0.0,0.0,0.0,0.0,0.0,0.0,0.0,0.0,0.0,0.0,0.0,0.0,0.0,0.0,0.0,0.0,0.0,0.0,0.0,0.0,0.0,0.0,0.0,0.0,0.0,0.0,0.0,0.0,0.0,0.0,0.0,0.0,0.0,0.0,0.0,0.0,0.0,0.0,0.0,0.0,0.0,0.0,0.0,0.0,0.0,0.0,0.0,0.0,0.0,0.0,0.0,0.0,0.0,0.0,0.0,0.0,0.0,0.0,0.0,0.0,0.0,0.0,0.0,0.0,0.0,0.0,0.0,0.0,0.0,0.0,0.0,0.0,0.0,0.0,0.0,0.0,0.0,0.0,0.0,0.0,0.0,0.0,0.0,0.0,0.0,0.0,0.0,0.0,0.0,0.0,0.0,0.0,0.0,0.0,0.0,0.0,0.0,0.0,0.0,0.0,0.0,0.0,0.0,0.0,0.0,0.0,0.0,0.0,0.0,0.0,0.0,0.0,0.0,0.0,0.0,1.4205,0.0,0.0,0.0,0.0,0.0,0.0,0.0,0.0,0.0,0.0,0.0,0.0,0.0,0.0,0.0,0.0,0.0,0.0,0.0,0.0,0.0,0.0,0.0,0.0,0.0,0.0,0.0,0.0,0.0,0.0,0.0,0.0,0.0,0.0,0.0,0.0,0.0,0.0,0.0,0.0,0.0,0.0,0.0,0.0,0.0,0.0,0.0,0.0,0.0,0.0,0.0,0.0,0.0,0.0,0.0,0.0,0.0,0.0,0.0,0.0,0.0,0.0,0.0,0.0,0.0,0.0,0.0,0.0,0.0,0.0,0.0,0.0,0.0,0.0,0.0,0.0,0.0,0.0,0.0,0.0,0.0,0.0,0.0,0.0,0.0,0.0,0.0,0.0,0.0,0.0,0.0,0.0,0.0,0.0,0.0,0.0,0.0,0.0,0.0,0.0,0.0,0.0,0.0,0.0,0.0,0.0,0.0,0.0,0.0,0.0,1.6066,1.598,1.5426,1.4778,1.408,0.0,0.0,0.0,0.0,0.0,0.0,0.0,0.0,0.0,0.0,0.0,0.0,0.0,0.0,0.0,0.0,0.0,0.0,0.0,0.0,0.0,0.0,0.0,0.0,0.0,0.0,0.0,0.0,0.0,0.0,0.0,0.0,0.0,0.0,0.0,0.0,0.0,0.0,0.0,0.0,0.0,0.0,0.0,0.0,0.0,0.0,0.0,0.0,0.0,0.0,0.0,0.0,0.0,0.0,0.0,0.0,0.0,0.0,0.0,0.0,0.0,0.0,0.0,0.0,0.0,0.0,0.0,0.0,0.0,0.0,0.0,0.0,0.0,0.0,0.0,0.0,0.0,0.0,0.0,0.0,0.0,0.0,0.0,0.0,0.0,0.0,0.0,0.0,0.0,0.0,0.0,0.0,0.0,0.0,0.0,0.0,0.0,0.0,0.0,0.0,0.0,0.0,0.0,0.0,0.0,0.0,0.0,0.0,0.0,0.0,0.0,0.0,1.5508,1.4725,1.3615,0.0,0.0,0.0,0.0,0.0,0.0,0.0,0.0,0.0,0.0,0.0,0.0,0.0,0.0,0.0,0.0,0.0,0.0,0.0,0.0,0.0,0.0,0.0,0.0,0.0,0.0,0.0,0.0,0.0,0.0,0.0,0.0,0.0,0.0,0.0,0.0,0.0,0.0,0.0,0.0,0.0,0.0,0.0,0.0,0.0,0.0,0.0,0.0,0.0,0.0,0.0,0.0,0.0,0.0,0.0,0.0,0.0,0.0,0.0,0.0,0.0,0.0,0.0,0.0,0.0,0.0,0.0,0.0,0.0,0.0,0.0,0.0,0.0,0.0,0.0,0.0,0.0,0.0,0.0,0.0,0.0,0.0,0.0,0.0,0.0,0.0,0.0,0.0,0.0,0.0,0.0,0.0,0.0,0.0,0.0,0.0,0.0,0.0,0.0,0.0,0.0,0.0,0.0,0.0,0.0,0.0,0.0,0.0,0.0,0.0,1.5972,1.6085,1.5623,0.0,1.306,0.0,0.0,0.0,0.0,0.0,0.0,0.0,0.0,0.0,0.0,0.0,0.0,0.0,0.0,0.0,0.0,0.0,0.0,0.0,0.0,0.0,0.0,0.0,0.0,0.0,0.0,0.0,0.0,0.0,0.0,0.0,0.0,0.0,0.0,0.0,0.0,0.0,0.0,0.0,0.0,0.0,0.0,0.0,0.0,0.0,0.0,0.0,0.0,0.0,0.0,0.0,0.0,0.0,0.0,0.0,0.0,0.0,0.0,0.0,0.0,0.0,0.0,0.0,0.0,0.0,0.0,0.0,0.0,0.0,0.0,0.0,0.0,0.0,0.0,0.0,0.0,0.0,0.0,0.0,0.0,0.0,0.0,0.0,0.0,0.0,0.0,0.0,0.0,0.0,0.0,0.0,0.0,0.0,0.0,0.0,0.0,0.0,0.0,0.0,0.0,0.0,0.0,0.0,0.0,0.0,0.0,0.0,0.0,0.0,0.0,0.0,1.6384,1.5791,1.48,0.0,0.0,0.0,0.0,0.0,0.0,0.0,0.0,0.0,0.0,0.0,0.0,0.0,0.0,0.0,0.0,0.0,0.0,0.0,0.0,0.0,0.0,0.0,0.0,0.0,0.0,0.0,0.0,0.0,0.0,0.0,0.0,0.0,0.0,0.0,0.0,0.0,0.0,0.0,0.0,0.0,0.0,0.0,0.0,0.0,0.0,0.0,0.0,0.0,0.0,0.0,0.0,0.0,0.0,0.0,0.0,0.0,0.0,0.0,0.0,0.0,0.0,0.0,0.0,0.0,0.0,0.0,0.0,0.0,0.0,0.0,0.0,0.0,0.0,0.0,0.0,0.0,0.0,0.0,0.0,0.0,0.0,0.0,0.0,0.0,0.0,0.0,0.0,0.0,0.0,0.0,0.0,0.0,0.0,0.0,0.0,0.0,0.0,0.0,0.0,0.0,0.0,0.0,0.0,0.0,0.0,0.0,0.0,0.0,0.0,1.5856,0.0,1.6336,1.5792,1.4944,1.3911,0.0,0.0,0.0,0.0,0.0,0.0,0.0,0.0,0.0,0.0,0.0,0.0,0.0,0.0,0.0,0.0,0.0,0.0,0.0,0.0,0.0,0.0,0.0,0.0,0.0,0.0,0.0,0.0,0.0,0.0,0.0,0.0,0.0,0.0,0.0,0.0,0.0,0.0,0.0,0.0,0.0,0.0,0.0,0.0,0.0,0.0,0.0,0.0,0.0,0.0,0.0,0.0,0.0,0.0,0.0,0.0,0.0,0.0,0.0,0.0,0.0,0.0,0.0,0.0,0.0,0.0,0.0,0.0,0.0,0.0,0.0,0.0,0.0,0.0,0.0,0.0,0.0,0.0,0.0,0.0,0.0,0.0,0.0,0.0,0.0,0.0,0.0,0.0,0.0,0.0,0.0,0.0,0.0,0.0,0.0,0.0,0.0,0.0,0.0,0.0,0.0,0.0,0.0,0.0,0.0,0.0,0.0,0.0,0.0,1.5711,1.5779,1.5925,1.5614,1.4963,0.0,0.0,0.0,0.0,0.0,0.0,0.0,0.0,0.0,0.0,0.0,0.0,0.0,0.0,0.0,0.0,0.0,0.0,0.0,0.0,0.0,0.0,0.0,0.0,0.0,0.0,0.0,0.0,0.0,0.0,0.0,0.0,0.0,0.0,0.0,0.0,0.0,0.0,0.0,0.0,0.0,0.0,0.0,0.0,0.0,0.0,0.0,0.0,0.0,0.0,0.0,0.0,0.0,0.0,0.0,0.0,0.0,0.0,0.0,0.0,0.0,0.0,0.0,0.0,0.0,0.0,0.0,0.0,0.0,0.0,0.0,0.0,0.0,0.0,0.0,0.0,0.0,0.0,0.0,0.0,0.0,0.0,0.0,0.0,0.0,0.0,0.0,0.0,0.0,0.0,0.0,0.0,0.0,0.0,0.0,0.0,0.0,0.0,0.0,0.0,0.0,0.0,0.0,0.0,0.0,0.0,0.0,0.0,0.0,1.5527,1.5871,1.6068,1.6029,1.5989,1.5389,0.0,0.0,0.0,0.0,0.0,0.0,0.0,0.0,0.0,0.0,0.0,0.0,0.0,0.0,0.0,0.0,0.0,0.0,0.0,0.0,0.0,0.0,0.0,0.0,0.0,0.0,0.0,0.0,0.0,0.0,0.0,0.0,0.0,0.0,0.0,0.0,0.0,0.0,0.0,0.0,0.0,0.0,0.0,0.0,0.0,0.0,0.0,0.0,0.0,0.0,0.0,0.0,0.0,0.0,0.0,0.0,0.0,0.0,0.0,0.0,0.0,0.0,0.0,0.0,0.0,0.0,0.0,0.0,0.0,0.0,0.0,0.0,0.0,0.0,0.0,0.0,0.0,0.0,0.0,0.0,0.0,0.0,0.0,0.0,0.0,0.0,0.0,0.0,0.0,0.0,0.0,0.0,0.0,0.0,0.0,0.0,0.0,0.0,0.0,0.0,0.0,0.0,0.0,0.0,0.0,0.0,0.0,0.0,0.0,1.5517,0.0,1.6019,0.0,1.5869,1.5319,0.0,0.0,0.0,0.0,0.0,0.0,0.0,0.0,0.0,0.0,0.0,0.0,0.0,0.0,0.0,0.0,0.0,0.0,0.0,0.0,0.0,0.0,0.0,0.0,0.0,0.0,0.0,0.0,0.0,0.0,0.0,0.0,0.0,0.0,0.0,0.0,0.0,0.0,0.0,0.0,0.0,0.0,0.0,0.0,0.0,0.0,0.0,0.0,0.0,0.0,0.0,0.0,0.0,0.0,0.0,0.0,0.0,0.0,0.0,0.0,0.0,0.0,0.0,0.0,0.0,0.0,0.0,0.0,0.0,0.0,0.0,0.0,0.0,0.0,0.0,0.0,0.0,0.0,0.0,0.0,0.0,0.0,0.0,0.0,0.0,0.0,0.0,0.0,0.0,0.0,0.0,0.0,0.0,0.0,0.0,0.0,0.0,0.0,0.0,0.0,0.0,0.0,0.0,0.0,0.0,0.0,0.0,0.0,1.5682,1.5682,1.5517,1.5614,1.5875,1.5247,1.4645,0.0,0.0,0.0,0.0,0.0,0.0,0.0,0.0,0.0,0.0,0.0,0.0,0.0,0.0,0.0,0.0,0.0,0.0,0.0,0.0,0.0,0.0,0.0,0.0,0.0,0.0,0.0,0.0,0.0,0.0,0.0,0.0,0.0,0.0,0.0,0.0,0.0,0.0,0.0,0.0,0.0,0.0,0.0,0.0,0.0,0.0,0.0,0.0,0.0,0.0,0.0,0.0,0.0,0.0,0.0,0.0,0.0,0.0,0.0,0.0,0.0,0.0,0.0,0.0,0.0,0.0,0.0,0.0,0.0,0.0,0.0,0.0,0.0,0.0,0.0,0.0,0.0,0.0,0.0,0.0,0.0,0.0,0.0,0.0,0.0,0.0,0.0,0.0,0.0,0.0,0.0,0.0,0.0,0.0,0.0,0.0,0.0,0.0,0.0,0.0,0.0,0.0,0.0,0.0,0.0,0.0,0.0,0.0,0.0,1.5682,1.573,1.5846,1.5989,1.5331,1.469,0.0,0.0,0.0,0.0,0.0,0.0,0.0,0.0,0.0,0.0,0.0,0.0,0.0,0.0,0.0,0.0,0.0,0.0,0.0,0.0,0.0,0.0,0.0,0.0,0.0,0.0,0.0,0.0,0.0,0.0,0.0,0.0,0.0,0.0,0.0,0.0,0.0,0.0,0.0,0.0,0.0,0.0,0.0,0.0,0.0,0.0,0.0,0.0,0.0,0.0,0.0,0.0,0.0,0.0,0.0,0.0,0.0,0.0,0.0,0.0,0.0,0.0,0.0,0.0,0.0,0.0,0.0,0.0,0.0,0.0,0.0,0.0,0.0,0.0,0.0,0.0,0.0,0.0,0.0,0.0,0.0,0.0,0.0,0.0,0.0,0.0,0.0,0.0,0.0,0.0,0.0,0.0,0.0,0.0,0.0,0.0,0.0,0.0,0.0,0.0,0.0,0.0,0.0,0.0,0.0,0.0,0.0,0.0,0.0,1.5769,1.5904,1.6048,1.622,1.5555,1.4937,1.437,0.0,0.0,0.0,0.0,0.0,0.0,0.0,0.0,0.0,0.0,0.0,0.0,0.0,0.0,0.0,0.0,0.0,0.0,0.0,0.0,0.0,0.0,0.0,0.0,0.0,0.0,0.0,0.0,0.0,0.0,0.0,0.0,0.0,0.0,0.0,0.0,0.0,0.0,0.0,0.0,0.0,0.0,0.0,0.0,0.0,0.0,0.0,0.0,0.0,0.0,0.0,0.0,0.0,0.0,0.0,0.0,0.0,0.0,0.0,0.0,0.0,0.0,0.0,0.0,0.0,0.0,0.0,0.0,0.0,0.0,0.0,0.0,0.0,0.0,0.0,0.0,0.0,0.0,0.0,0.0,0.0,0.0,0.0,0.0,0.0,0.0,0.0,0.0,0.0,0.0,0.0,0.0,0.0,0.0,0.0,0.0,0.0,0.0,0.0,0.0,0.0,0.0,0.0,0.0,0.0,0.0,0.0,0.0,1.5914,1.6066,1.6239,1.6402,1.5835,1.5236,0.0,0.0,0.0,0.0,0.0,0.0,0.0,0.0,0.0,0.0,0.0,0.0,0.0,0.0,0.0,0.0,0.0,0.0,0.0,0.0,0.0,0.0,0.0,0.0,0.0,0.0,0.0,0.0,0.0,0.0,0.0,0.0,0.0,0.0,0.0,0.0,0.0,0.0,0.0,0.0,0.0,0.0,0.0,0.0,0.0,0.0,0.0,0.0,0.0,0.0,0.0,0.0,0.0,0.0,0.0,0.0,0.0,0.0,0.0,0.0,0.0,0.0,0.0,0.0,0.0,0.0,0.0,0.0,0.0,0.0,0.0,0.0,0.0,0.0,0.0,0.0,0.0,0.0,0.0,0.0,0.0,0.0,0.0,0.0,0.0,0.0,0.0,0.0,0.0,0.0,0.0,0.0,0.0,0.0,0.0,0.0,0.0,0.0,0.0,0.0,0.0,0.0,0.0,0.0,0.0,0.0,0.0,0.0,0.0,1.6269,1.6506,1.6581,1.6542,1.6036,1.5469,0.0,0.0,0.0,0.0,0.0,0.0,0.0,0.0,0.0,0.0,0.0,0.0,0.0,0.0,0.0,0.0,0.0,0.0,0.0,0.0,0.0,0.0,0.0,0.0,0.0,0.0,0.0,0.0,0.0,0.0,0.0,0.0,0.0,0.0,0.0,0.0,0.0,0.0,0.0,0.0,0.0,0.0,0.0,0.0,0.0,0.0,0.0,0.0,0.0,0.0,0.0,0.0,0.0,0.0,0.0,0.0,0.0,0.0,0.0,0.0,0.0,0.0,0.0,0.0,0.0,0.0,0.0,0.0,0.0,0.0,0.0,0.0,0.0,0.0,0.0,0.0,0.0,0.0,0.0,0.0,0.0,0.0,0.0,0.0,0.0,0.0,0.0,0.0,0.0,0.0,0.0,0.0,0.0,0.0,0.0,0.0,0.0,0.0,0.0,0.0,0.0,0.0,0.0,0.0,0.0,0.0,0.0,0.0,1.6249,1.6477,1.6751,1.692,1.6965,1.6652,1.6152,0.0,0.0,0.0,0.0,0.0,0.0,0.0,0.0,0.0,0.0,0.0,0.0,0.0,0.0,0.0,0.0,0.0,0.0,0.0,0.0,0.0,0.0,0.0,0.0,0.0,0.0,0.0,0.0,0.0,0.0,0.0,0.0,0.0,0.0,0.0,0.0,0.0,0.0,0.0,0.0,0.0,0.0,0.0,0.0,0.0,0.0,0.0,0.0,0.0,0.0,0.0,0.0,0.0,0.0,0.0,0.0,0.0,0.0,0.0,0.0,0.0,0.0,0.0,0.0,0.0,0.0,0.0,0.0,0.0,0.0,0.0,0.0,0.0,0.0,0.0,0.0,0.0,0.0,0.0,0.0,0.0,0.0,0.0,0.0,0.0,0.0,0.0,0.0,0.0,0.0,0.0,0.0,0.0,0.0,0.0,0.0,0.0,0.0,0.0,0.0,0.0,0.0,0.0,0.0,0.0,0.0,0.0,0.0,1.6488,1.6637,1.6909,1.7207,1.7534,1.7396,1.7038,0.0,0.0,0.0,0.0,0.0,0.0,0.0,0.0,0.0,0.0,0.0,0.0,0.0,0.0,0.0,0.0,0.0,0.0,0.0,0.0,0.0,0.0,0.0,0.0,0.0,0.0,0.0,0.0,0.0,0.0,0.0,0.0,0.0,0.0,0.0,0.0,0.0,0.0,0.0,0.0,0.0,0.0,0.0,0.0,0.0,0.0,0.0,0.0,0.0,0.0,0.0,0.0,0.0,0.0,0.0,0.0,0.0,0.0,0.0,0.0,0.0,0.0,0.0,0.0,0.0,0.0,0.0,0.0,0.0,0.0,0.0,0.0,0.0,0.0,0.0,0.0,0.0,0.0,0.0,0.0,0.0,0.0,0.0,0.0,0.0,0.0,0.0,0.0,0.0,0.0,0.0,0.0,0.0,0.0,0.0,0.0,0.0,0.0,0.0,0.0,0.0,0.0,0.0,0.0,0.0,0.0,0.0,0.0,1.6609,1.6761,1.7071,1.7423,1.7788,1.759,1.7274,0.0,0.0,0.0,0.0,0.0,0.0,0.0,0.0,0.0,0.0,0.0,0.0,0.0,0.0,0.0,0.0,0.0,0.0,0.0,0.0,0.0,0.0,0.0,0.0,0.0,0.0,0.0,0.0,0.0,0.0,0.0,0.0,0.0,0.0,0.0,0.0,0.0,0.0,0.0,0.0,0.0,0.0,0.0,0.0,0.0,0.0,0.0,0.0,2.5313,0.0,0.0,0.0,0.0,0.0,0.0,0.0,0.0,0.0,0.0,0.0,0.0,0.0,0.0,0.0,0.0,0.0,0.0,0.0,0.0,0.0,0.0,0.0,0.0,0.0,0.0,0.0,0.0,0.0,0.0,0.0,0.0,0.0,0.0,0.0,0.0,0.0,0.0,0.0,0.0,0.0,0.0,0.0,0.0,0.0,0.0,0.0,0.0,0.0,0.0,0.0,0.0,0.0,0.0,0.0,0.0,0.0,0.0,0.0,1.6684,1.6892,1.7155,1.7479,1.7881,1.776,1.7593,0.0,0.0,0.0,0.0,0.0,0.0,0.0,0.0,0.0,0.0,0.0,0.0,0.0,0.0,0.0,0.0,0.0,0.0,0.0,0.0,0.0,0.0,0.0,0.0,0.0,0.0,0.0,0.0,0.0,0.0,0.0,0.0,0.0,0.0,0.0,0.0,0.0,0.0,0.0,0.0,0.0,0.0,0.0,0.0,0.0,0.0,0.0,0.0,0.0,0.0,0.0,0.0,0.0,0.0,0.0,0.0,0.0,0.0,0.0,0.0,0.0,0.0,0.0,0.0,0.0,0.0,0.0,0.0,0.0,0.0,0.0,0.0,0.0,0.0,0.0,0.0,0.0,0.0,0.0,0.0,0.0,0.0,0.0,0.0,0.0,0.0,0.0,0.0,0.0,0.0,0.0,0.0,0.0,0.0,0.0,0.0,0.0,0.0,0.0,0.0,0.0,0.0,0.0,0.0,0.0,0.0,0.0,1.6627,1.6758,1.6983,1.7228,1.7534,1.7909,1.7936,1.7925,1.7886,0.0,0.0,0.0,0.0,0.0,0.0,0.0,0.0,0.0,0.0,0.0,0.0,0.0,0.0,0.0,0.0,0.0,0.0,0.0,0.0,0.0,0.0,0.0,0.0,0.0,0.0,0.0,0.0,0.0,0.0,0.0,0.0,0.0,0.0,0.0,0.0,0.0,0.0,2.3069,2.4553,0.0,0.0,0.0,0.0,0.0,0.0,0.0,0.0,2.5609,0.0,0.0,0.0,0.0,0.0,0.0,0.0,0.0,0.0,0.0,0.0,0.0,0.0,0.0,0.0,0.0,0.0,0.0,0.0,0.0,0.0,0.0,0.0,0.0,0.0,0.0,0.0,0.0,0.0,0.0,0.0,0.0,0.0,0.0,0.0,0.0,0.0,0.0,0.0,0.0,0.0,0.0,0.0,0.0,0.0,0.0,0.0,0.0,0.0,0.0,0.0,0.0,0.0,0.0,0.0,0.0,1.6599,1.6825,1.6955,1.7011,1.7412,1.7755,1.8057,1.8057,1.803,1.7886,0.0,0.0,0.0,0.0,0.0,0.0,0.0,0.0,0.0,0.0,0.0,0.0,0.0,0.0,0.0,0.0,0.0,0.0,0.0,0.0,0.0,0.0,0.0,0.0,0.0,0.0,0.0,0.0,0.0,0.0,0.0,0.0,0.0,0.0,0.0,0.0,0.0,0.0,0.0,2.4823,2.5427,0.0,0.0,0.0,0.0,0.0,0.0,0.0,0.0,2.5611,0.0,0.0,0.0,0.0,0.0,0.0,0.0,0.0,0.0,0.0,0.0,0.0,0.0,0.0,0.0,0.0,0.0,0.0,0.0,0.0,0.0,0.0,0.0,0.0,0.0,0.0,0.0,0.0,0.0,0.0,0.0,0.0,0.0,0.0,0.0,0.0,0.0,0.0,0.0,0.0,0.0,0.0,0.0,0.0,0.0,0.0,0.0,0.0,0.0,0.0,0.0,0.0,0.0,0.0,0.0,1.6909,1.7039,1.719,1.7346,1.7388,1.7492,1.768,1.7855,1.7748,0.0,0.0,0.0,0.0,0.0,0.0,0.0,0.0,0.0,0.0,0.0,0.0,0.0,0.0,0.0,0.0,0.0,0.0,0.0,0.0,0.0,0.0,0.0,0.0,0.0,0.0,0.0,0.0,0.0,0.0,0.0,0.0,0.0,0.0,0.0,0.0,0.0,0.0,0.0,0.0,2.4894,2.5397,2.5395,0.0,0.0,0.0,0.0,0.0,0.0,2.5668,2.565,0.0,0.0,0.0,0.0,0.0,0.0,0.0,0.0,0.0,0.0,0.0,0.0,0.0,0.0,0.0,0.0,0.0,0.0,0.0,0.0,0.0,0.0,0.0,0.0,0.0,0.0,0.0,0.0,0.0,0.0,0.0,0.0,0.0,0.0,0.0,0.0,0.0,0.0,0.0,0.0,0.0,0.0,0.0,0.0,0.0,0.0,0.0,0.0,0.0,0.0,0.0,0.0,0.0,0.0,0.0,1.7203,1.717,1.7289,1.7549,1.727,1.7168,1.7335,1.758,1.7436,0.0,0.0,0.0,0.0,0.0,0.0,0.0,0.0,0.0,0.0,0.0,0.0,0.0,0.0,0.0,0.0,0.0,0.0,0.0,0.0,0.0,0.0,0.0,0.0,0.0,0.0,0.0,0.0,0.0,0.0,0.0,0.0,0.0,0.0,0.0,0.0,0.0,0.0,0.0,0.0,0.0,2.5392,2.5414,2.5608,0.0,0.0,0.0,0.0,2.599,2.5974,0.0,0.0,0.0,0.0,0.0,0.0,0.0,0.0,0.0,0.0,0.0,0.0,0.0,0.0,0.0,0.0,0.0,0.0,0.0,0.0,0.0,0.0,0.0,0.0,0.0,0.0,0.0,0.0,0.0,0.0,0.0,0.0,0.0,0.0,0.0,0.0,0.0,0.0,0.0,0.0,0.0,0.0,0.0,0.0,0.0,0.0,0.0,0.0,0.0,0.0,0.0,0.0,0.0,0.0,0.0,0.0,1.7191,1.7016,1.7023,1.716,1.7126,1.7214,1.7459,1.7398,1.744,0.0,0.0,0.0,0.0,0.0,0.0,0.0,0.0,0.0,0.0,0.0,0.0,0.0,0.0,0.0,0.0,0.0,0.0,0.0,0.0,0.0,0.0,0.0,0.0,0.0,0.0,0.0,0.0,0.0,0.0,0.0,0.0,0.0,0.0,0.0,0.0,0.0,0.0,0.0,0.0,0.0,2.5418,2.5489,2.6104,2.6607,0.0,0.0,0.0,2.6964,2.6852,0.0,0.0,0.0,0.0,0.0,0.0,0.0,0.0,0.0,0.0,0.0,0.0,0.0,0.0,0.0,0.0,0.0,0.0,0.0,0.0,0.0,0.0,0.0,0.0,0.0,0.0,0.0,0.0,0.0,0.0,0.0,0.0,0.0,0.0,0.0,0.0,0.0,0.0,0.0,0.0,0.0,0.0,0.0,0.0,0.0,0.0,0.0,0.0,0.0,0.0,0.0,0.0,0.0,0.0,0.0,1.7436,1.7853,1.7579,1.7545,1.7809,1.7466,1.7365,1.7538,1.7515,1.7381,0.0,0.0,0.0,0.0,0.0,0.0,0.0,0.0,0.0,0.0,0.0,0.0,0.0,0.0,0.0,0.0,0.0,0.0,0.0,0.0,0.0,0.0,0.0,0.0,0.0,0.0,0.0,0.0,0.0,0.0,0.0,0.0,0.0,0.0,0.0,0.0,0.0,0.0,0.0,0.0,0.0,0.0,2.6211,2.6587,0.0,0.0,0.0,2.7431,2.7063,0.0,0.0,0.0,0.0,0.0,0.0,0.0,0.0,0.0,0.0,0.0,0.0,0.0,0.0,0.0,0.0,0.0,0.0,0.0,0.0,0.0,0.0,0.0,0.0,0.0,0.0,0.0,0.0,0.0,0.0,0.0,0.0,0.0,0.0,0.0,0.0,0.0,0.0,0.0,0.0,0.0,0.0,0.0,0.0,0.0,0.0,0.0,0.0,0.0,0.0,0.0,0.0,0.0,0.0,0.0,0.0,0.0,1.8499,1.803,1.7944,1.8293,1.7793,1.7574,1.7713,1.7713,0.0,0.0,0.0,0.0,0.0,0.0,0.0,0.0,0.0,0.0,0.0,0.0,0.0,0.0,0.0,0.0,0.0,0.0,0.0,0.0,0.0,0.0,0.0,0.0,0.0,0.0,0.0,0.0,0.0,0.0,0.0,0.0,0.0,0.0,0.0,0.0,0.0,0.0,0.0,0.0,0.0,0.0,2.5783,2.6497,2.6766,2.7154,0.0,0.0,2.7242,2.7032,2.6467,2.602,0.0,0.0,0.0,0.0,0.0,0.0,0.0,0.0,0.0,0.0,0.0,0.0,0.0,0.0,0.0,0.0,0.0,0.0,0.0,0.0,0.0,0.0,0.0,0.0,0.0,0.0,0.0,0.0,0.0,0.0,0.0,0.0,0.0,0.0,0.0,0.0,0.0,0.0,0.0,0.0,0.0,0.0,0.0,0.0,0.0,0.0,0.0,0.0,0.0,0.0,0.0,0.0,0.0,0.0,0.0,1.8826,1.8097,1.7848,1.811,1.7896,1.7862,1.8042,1.8009,1.8037,0.0,0.0,0.0,0.0,0.0,0.0,0.0,0.0,0.0,0.0,0.0,0.0,0.0,0.0,0.0,0.0,0.0,0.0,0.0,0.0,0.0,0.0,0.0,0.0,0.0,0.0,0.0,0.0,0.0,0.0,0.0,0.0,0.0,0.0,0.0,0.0,0.0,0.0,0.0,0.0,0.0,2.5641,2.5765,2.643,2.697,0.0,0.0,2.7925,2.7126,2.6949,2.6911,2.6914,0.0,0.0,0.0,0.0,0.0,0.0,0.0,0.0,0.0,0.0,0.0,0.0,0.0,0.0,0.0,0.0,0.0,0.0,0.0,0.0,0.0,0.0,0.0,0.0,0.0,0.0,0.0,0.0,0.0,0.0,0.0,0.0,0.0,0.0,0.0,0.0,0.0,0.0,0.0,0.0,0.0,0.0,0.0,0.0,0.0,0.0,0.0,0.0,0.0,0.0,0.0,0.0,0.0,1.8332,1.8887,1.8562,1.8505,1.876,1.8674,1.8693,1.8893,1.8779,1.8522,0.0,0.0,0.0,0.0,0.0,0.0,0.0,0.0,0.0,0.0,0.0,0.0,0.0,0.0,0.0,0.0,0.0,0.0,0.0,0.0,0.0,0.0,0.0,0.0,0.0,0.0,0.0,0.0,2.197,2.2271,2.2902,0.0,0.0,0.0,0.0,0.0,0.0,0.0,0.0,0.0,0.0,2.6015,2.7147,2.7532,0.0,0.0,2.918,2.8925,2.8594,2.8086,2.7773,2.7793,2.7773,0.0,0.0,0.0,0.0,0.0,0.0,0.0,0.0,0.0,0.0,0.0,0.0,0.0,0.0,0.0,0.0,0.0,0.0,0.0,0.0,0.0,0.0,0.0,0.0,0.0,0.0,0.0,0.0,0.0,0.0,0.0,0.0,0.0,0.0,0.0,0.0,0.0,0.0,0.0,0.0,0.0,0.0,0.0,0.0,0.0,0.0,0.0,0.0,0.0,0.0,0.0,0.0,1.8954,1.9454,1.9208,1.9203,1.9464,1.942,1.946,1.9627,1.9397,1.898,0.0,0.0,0.0,0.0,0.0,0.0,0.0,0.0,0.0,0.0,0.0,0.0,0.0,0.0,0.0,0.0,0.0,0.0,0.0,0.0,0.0,0.0,0.0,0.0,0.0,0.0,0.0,0.0,2.234,2.2496,2.321,0.0,0.0,0.0,0.0,0.0,0.0,0.0,0.0,0.0,0.0,2.6183,2.7694,2.7851,2.834,2.982,2.9522,2.9108,2.9113,2.8604,2.8312,2.8609,0.0,0.0,0.0,0.0,0.0,0.0,0.0,0.0,0.0,0.0,0.0,0.0,0.0,0.0,0.0,0.0,0.0,0.0,0.0,0.0,0.0,0.0,0.0,0.0,0.0,0.0,0.0,0.0,0.0,0.0,0.0,0.0,0.0,0.0,0.0,0.0,0.0,0.0,0.0,0.0,0.0,0.0,0.0,0.0,0.0,0.0,0.0,0.0,0.0,0.0,0.0,0.0,0.0,0.0,2.0721,2.0041,1.98,2.0065,2.0065,2.0102,2.016,1.9676,1.9288,1.9047,0.0,0.0,0.0,0.0,0.0,0.0,0.0,0.0,0.0,0.0,0.0,0.0,0.0,0.0,0.0,0.0,0.0,0.0,0.0,0.0,0.0,0.0,0.0,0.0,0.0,0.0,2.3964,2.34,2.2995,0.0,0.0,0.0,0.0,0.0,0.0,0.0,0.0,0.0,0.0,2.5666,2.6041,2.696,2.7001,2.7363,2.8227,2.8308,2.8269,2.8329,2.826,2.8492,0.0,0.0,0.0,0.0,0.0,0.0,0.0,0.0,0.0,0.0,0.0,0.0,0.0,0.0,0.0,0.0,0.0,0.0,0.0,0.0,0.0,0.0,0.0,0.0,0.0,0.0,0.0,1.9208,1.9705,0.0,0.0,0.0,0.0,0.0,0.0,0.0,0.0,0.0,0.0,0.0,2.1936,2.1542,0.0,0.0,0.0,0.0,0.0,0.0,0.0,0.0,0.0,0.0,0.0,0.0,2.0206,2.0631,2.0291,2.022,2.0492,2.0509,2.0342,2.0083,1.9878,1.9515,1.8918,0.0,0.0,0.0,0.0,0.0,0.0,0.0,0.0,0.0,0.0,0.0,0.0,0.0,0.0,0.0,0.0,0.0,0.0,0.0,0.0,0.0,0.0,0.0,0.0,0.0,2.3721,0.0,0.0,0.0,0.0,0.0,0.0,0.0,0.0,0.0,0.0,0.0,2.5668,2.6362,2.6504,2.7032,2.8455,2.8601,2.8873,0.0,0.0,0.0,0.0,0.0,0.0,0.0,0.0,0.0,0.0,0.0,0.0,0.0,0.0,2.7063,2.6026,2.5606,2.5022,2.3837,0.0,0.0,0.0,0.0,0.0,0.0,0.0,0.0,0.0,0.0,0.0,0.0,0.0,0.0,0.0,0.0,2.1361,0.0,0.0,0.0,0.0,0.0,0.0,0.0,0.0,2.2302,2.2203,2.2258,2.163,2.1305,0.0,2.1329,2.1372,0.0,0.0,0.0,0.0,0.0,0.0,0.0,0.0,2.0688,2.0827,2.0595,2.0594,2.0826,2.0654,2.0384,2.0107,1.9699,1.9256,1.8771,1.8531,1.8881,0.0,0.0,0.0,0.0,0.0,0.0,0.0,0.0,0.0,0.0,0.0,0.0,0.0,0.0,0.0,0.0,0.0,0.0,0.0,0.0,0.0,0.0,0.0,2.3656,0.0,0.0,0.0,0.0,0.0,0.0,0.0,0.0,0.0,2.5101,2.5534,2.6064,2.6765,2.7133,2.7846,2.9262,0.0,0.0,0.0,0.0,0.0,0.0,0.0,3.02,2.9936,2.9452,2.9079,2.9057,2.844,2.7896,2.7683,0.0,0.0,2.5962,2.5569,2.5021,2.3837,2.3046,2.2265,2.124,2.0378,1.9513,0.0,0.0,0.0,0.0,0.0,0.0,0.0,0.0,2.0733,2.1407,0.0,2.203,0.0,0.0,0.0,0.0,0.0,0.0,0.0,0.0,2.2837,2.2766,2.2955,2.2212,2.1948,2.2079,2.2034,2.2018,2.1965,2.0695,0.0,0.0,0.0,0.0,0.0,0.0,2.1588,2.1314,2.099,2.0909,2.1071,2.0522,2.0223,2.0197,1.9098,1.856,1.8726,1.918,1.9794,2.0553,2.0976,0.0,0.0,0.0,0.0,0.0,0.0,0.0,0.0,0.0,0.0,0.0,0.0,0.0,0.0,0.0,0.0,0.0,0.0,0.0,0.0,2.3657,0.0,0.0,0.0,0.0,0.0,0.0,0.0,0.0,0.0,0.0,2.5165,2.6001,2.6671,2.6822,0.0,0.0,0.0,0.0,2.9714,3.0489,3.0626,3.0354,2.9541,2.9441,2.9171,2.8317,0.0,0.0,2.8076,2.7928,2.7716,2.7612,2.7312,2.6908,2.5817,2.5513,2.5027,2.3826,2.277,2.1844,2.1139,2.0084,1.9072,2.0766,0.0,0.0,0.0,0.0,1.9641,2.0232,2.0906,2.1619,2.2198,2.2663,2.2859,0.0,0.0,0.0,0.0,0.0,0.0,2.3709,2.3985,2.3488,2.3302,2.3394,2.2273,2.1784,2.1786,2.1374,2.1207,2.1227,2.0836,2.0852,2.1326,0.0,0.0,0.0,0.0,2.1662,2.1705,2.1342,2.1198,2.1324,2.0764,2.0057,1.9193,1.8355,1.8236,1.8905,1.906,1.9454,2.0146,2.0261,0.0,0.0,0.0,0.0,0.0,0.0,0.0,0.0,0.0,0.0,0.0,0.0,0.0,0.0,0.0,0.0,0.0,0.0,0.0,2.3392,2.3675,2.3707,0.0,0.0,0.0,0.0,0.0,0.0,0.0,0.0,0.0,2.5187,2.6015,2.6869,0.0,0.0,2.9288,3.0136,3.027,3.0339,3.0585,0.0,0.0,0.0,2.8927,2.829,2.7462,2.6835,2.6209,2.553,2.5783,2.6062,2.5885,2.5716,2.5438,2.5064,2.519,2.4972,2.3891,2.277,2.168,2.0708,1.9529,1.8392,2.2071,2.1391,2.0708,2.0412,2.0451,2.1134,2.1664,2.2076,2.2776,2.313,2.3268,2.3414,2.3494,2.3516,2.356,0.0,0.0,0.0,2.4266,2.441,2.3908,2.3697,2.3749,2.2756,2.2179,2.191,2.163,2.1343,2.1103,2.1135,2.134,2.1731,0.0,0.0,2.2152,2.1993,2.1884,2.1811,2.1614,2.1363,2.1131,2.032,1.943,1.8468,1.8036,1.8229,1.9075,1.9348,1.9675,2.006,2.025,2.0136,0.0,0.0,0.0,0.0,0.0,0.0,0.0,0.0,0.0,0.0,0.0,2.0695,0.0,0.0,0.0,0.0,2.2071,2.276,2.3117,2.3548,0.0,0.0,0.0,0.0,0.0,0.0,0.0,2.3667,2.4152,2.4562,2.47,2.5775,2.6896,2.7793,2.8705,2.9453,2.9979,0.0,2.9568,2.9575,2.9147,2.8617,2.7997,2.7498,2.6782,2.5631,2.5018,2.4513,2.394,2.4151,2.445,2.4623,2.4561,2.4489,2.462,2.4612,2.4301,2.3423,2.2389,2.1256,2.0125,1.8937,1.7823,2.3441,2.3653,2.2604,2.2222,2.2403,2.3095,2.3411,2.3521,2.4078,2.4157,2.393,2.3936,2.3927,2.3903,2.4024,0.0,0.0,2.4569,2.467,2.4639,2.4232,2.4105,2.4199,2.3622,2.3035,2.2539,2.2541,2.2198,2.1593,2.1556,2.1538,2.157,2.2005,2.2182,2.2083,2.2264,2.218,2.1756,2.1797,2.146,2.0666,1.9462,1.8571,1.8028,1.8056,1.8516,1.9383,2.0002,2.0323,2.0333,2.0784,2.0686,1.9893,0.0,0.0,0.0,0.0,0.0,0.0,0.0,0.0,0.0,0.0,0.0,0.0,0.0,0.0,0.0,2.2969,0.0,2.2731,2.3379,0.0,0.0,0.0,2.3489,2.2804,2.2909,2.2808,2.2282,0.0,0.0,0.0,0.0,2.6728,2.758,2.8503,2.9102,2.9102,2.8497,2.798,2.8107,2.7931,2.7362,2.6073,2.5494,2.4776,2.3418,2.2995,2.3005,2.2944,2.3006,2.3211,2.3775,2.3785,2.3828,2.4415,2.3713,2.2952,2.2508,2.1606,2.0583,1.9575,1.8472,1.7545,2.5567,2.5797,2.5301,2.4405,2.3396,2.396,2.4449,2.4851,2.5237,2.5213,2.4865,2.5023,2.4894,2.4564,2.469,2.4826,2.493,2.5111,2.5188,2.5208,2.526,2.5292,2.5297,2.4746,2.4475,2.4347,2.3389,2.2884,2.282,2.2252,2.1998,2.2109,2.226,2.2212,2.1893,2.2073,2.2122,2.2013,2.2175,2.1634,2.0336,1.9425,1.8694,1.8175,1.8684,1.9428,2.0331,2.1045,2.1425,2.1401,2.1395,2.099,2.0149,2.0014,0.0,0.0,0.0,0.0,0.0,0.0,0.0,0.0,0.0,2.0599,2.1319,0.0,2.1678,0.0,2.3328,2.3617,2.3451,2.3754,0.0,0.0,2.3095,2.2868,2.227,2.2266,2.2348,2.2343,2.2671,2.3153,2.3822,2.483,2.5826,2.669,2.7572,2.8148,2.8189,2.8082,2.7942,2.7832,2.6897,2.601,2.5485,2.3915,2.2628,2.2187,2.2097,2.2106,2.2086,2.2596,2.3007,2.3088,2.2968,2.2919,2.2986,2.2563,2.1977,2.1193,2.058,2.0081,1.9467,1.8505,1.7624,2.6917,2.7017,2.7019,2.6378,2.5445,2.5597,2.5761,2.5947,2.6294,2.6184,2.5786,2.5656,2.5581,2.5448,2.5211,2.522,2.5365,2.5549,2.5661,2.5738,2.5885,2.6012,2.6103,2.5794,2.553,2.528,2.4237,2.359,2.3357,2.2626,2.2315,2.2377,2.2446,2.2374,2.2175,2.2243,2.2268,2.2268,2.2048,2.1579,2.0842,2.0028,1.9521,1.9288,1.9663,2.0141,2.0723,2.1453,2.1643,2.1253,2.1396,2.1134,2.0291,2.014,2.0175,0.0,0.0,0.0,0.0,0.0,0.0,0.0,0.0,0.0,0.0,0.0,2.1992,0.0,0.0,0.0,2.3689,2.3863,2.3668,2.2959,2.2978,2.2639,2.1633,2.1616,2.1574,2.1311,2.1722,2.2342,2.3219,2.4081,2.495,2.5794,2.6354,2.6834,2.7176,2.7026,2.6673,2.6294,2.5511,2.4626,2.4053,2.2435,2.1268,2.1249,2.1254,2.1224,2.1227,2.1534,2.1917,2.2169,2.2148,2.2159,2.2312,2.1924,2.1325,2.068,2.0008,1.9477,1.9045,1.836,1.7715,2.7969,2.7872,2.8103,2.8047,2.7795,2.7412,2.7141,2.691,2.7228,2.7126,2.6707,2.6251,2.6179,2.635,2.5776,2.5627,2.5775,2.5901,2.6028,2.6139,2.6313,2.6486,2.6624,2.664,2.6353,2.5774,2.5006,2.432,2.3689,2.2894,2.2528,2.2542,2.2579,2.2619,2.2636,2.2565,2.2542,2.2525,2.1789,2.149,2.1608,2.0842,2.0488,2.0593,2.0703,2.083,2.0971,2.1669,2.1674,2.09,2.1362,2.1331,2.0639,2.0542,2.0722,0.0,2.1137,0.0,0.0,0.0,0.0,0.0,0.0,0.0,0.0,2.2125,2.2223,2.3025,2.3289,2.3476,2.3678,2.3831,2.3623,2.2959,2.2952,2.2436,2.0987,2.0853,2.0671,1.997,2.0713,2.1635,2.2528,2.3359,2.4226,2.5102,2.5392,2.5634,2.5999,2.5678,2.5052,2.4184,2.3982,2.3348,2.206,2.1122,2.0644,2.0601,2.0584,2.0498,2.055,2.051,2.0664,2.125,2.1342,2.1441,2.1986,2.1375,2.0746,2.0368,1.9666,1.9003,1.8567,1.8176,1.7816,2.9578,2.9712,2.8969,2.8746,2.885,2.8366,2.8061,2.7939,2.81,2.8093,2.7929,2.747,2.711,2.6882,2.6798,2.6517,2.61,2.6226,2.6314,2.6366,2.664,2.6826,2.6859,2.6909,2.6889,2.673,2.5478,2.4802,2.4674,2.333,2.2659,2.2672,2.2725,2.2764,0.0,0.0,0.0,0.0,2.1949,2.1608,2.1648,2.0892,2.0524,2.0622,2.129,0.0,2.1797,2.2475,2.276,2.2534,2.2547,0.0,0.0,0.0,0.0,0.0,0.0,0.0,0.0,0.0,0.0,0.0,2.0985,2.1681,2.248,2.2678,2.285,2.3077,2.3289,2.3476,2.3678,2.3863,2.3461,2.2206,2.2138,2.1615,2.0149,2.002,1.9976,1.9926,2.0672,2.1582,2.2519,2.3345,2.4247,2.5107,2.5346,2.5158,2.4718,2.4586,2.4397,2.4115,2.31,2.1945,2.0901,2.0675,2.0586,2.0542,2.0523,2.0515,2.0509,2.043,2.0402,2.0643,2.0535,2.0429,2.0501,2.0215,1.9986,1.9671,1.9326,1.8984,1.8563,1.8225,1.7871,3.0693,0.0,2.9902,2.9552,0.0,2.89,2.8605,2.8542,2.8629,2.8785,2.901,2.8551,2.8371,2.8343,2.7653,2.7267,2.7076,2.6792,2.6674,2.6758,2.6925,2.704,2.7106,2.7138,2.7153,2.7132,2.5682,2.502,2.4962,2.3534,2.2803,2.2803,2.285,2.2906,2.2906,2.297,2.2944,2.2803,2.2422,2.2245,2.2265,2.1883,2.1687,2.1736,0.0,0.0,0.0,0.0,0.0,0.0,0.0,0.0,0.0,0.0,0.0,2.1447,2.1087,2.0814,2.0709,2.0318,2.0284,2.0726,2.1546,2.2224,2.2664,2.285,2.299,2.3077,2.3277,2.3487,2.3678,2.3852,2.3533,2.2528,2.214,2.1484,2.0438,1.9969,2.0001,2.0444,2.0912,2.169,2.3021,2.3577,2.4279,2.5124,2.5355,2.5108,2.4389,2.4195,2.398,2.3136,2.2003,2.1041,2.0605,2.0542,2.0586,2.0538,2.0517,2.0511,2.0502,2.0459,2.0387,2.0366,2.0273,2.0152,1.9991,1.9871,1.9712,1.9457,1.9232,1.8983,1.8604,1.8252,1.7898,3.1576,3.1386,3.0777,3.0318,3.0,2.9289,2.9067,2.9136,0.0,0.0,0.0,2.9575,2.9606,2.9777,2.8624,2.806,2.7981,2.7402,2.7127,2.7103,2.7135,2.72,2.7315,2.7315,2.7313,2.7243,2.5831,2.5131,2.5062,2.3637,2.2944,2.297,2.3033,2.307,2.3077,2.3168,2.3126,2.3015,2.2965,2.2957,2.2957,2.283,2.2743,2.2753,2.2016,2.1668,2.1674,2.1698,2.1698,2.1686,2.1579,2.1524,2.1465,2.0828,2.043,2.0418,2.043,2.0423,2.0352,2.0293,2.0649,2.1506,2.216,2.2626,2.2782,2.2893,2.2982,2.3132,2.3307,2.351,2.3682,2.3852,2.3687,2.307,2.2466,2.1835,2.1135,2.0547,2.0552,2.1186,2.1562,2.217,2.3566,2.402,2.4398,2.5106,2.5192,2.4802,2.4025,2.3647,2.314,2.1865,2.1037,2.0536,2.0519,2.0566,2.0565,2.0511,2.0511,2.0506,2.0491,2.0443,2.0375,2.0308,2.0231,2.0097,1.995,1.9823,1.9693,1.9435,1.9232,1.8982,1.8643,1.8273,1.7926,3.2321,3.2327,3.1337,3.0952,3.0905,2.9869,2.9649,2.9995,2.9766,2.9946,3.041,3.0636,3.0513,3.0133,3.0059,2.9294,2.8101,2.8099,2.7755,0.0,2.7217,2.7313,2.7376,2.7393,2.7423,2.7344,2.5973,2.5265,2.5108,2.378,2.3089,2.3168,2.3229,2.3313,2.3418,2.3499,2.3515,2.3504,2.3289,2.3156,2.3151,2.2529,2.2183,2.2107,2.141,2.0995,2.0864,2.0909,2.092,2.0853,2.0841,2.079,2.0668,2.0599,2.0547,2.05,2.0535,2.0547,2.0494,2.0512,2.0906,2.1665,2.1856,2.2198,2.2824,2.294,2.3052,2.3265,2.3447,2.3598,2.37,2.3935,2.3802,2.3152,2.301,2.2722,2.2003,2.1778,2.1805,2.2179,2.2905,2.3386,2.3894,2.4525,2.5023,2.5215,2.4803,2.3863,2.2658,2.2138,2.1735,2.0932,2.0597,2.0533,2.0564,2.0586,2.0559,2.0523,2.0501,2.0492,2.0495,2.0432,2.0386,2.0301,2.0207,2.005,1.9909,1.975,1.9559,1.9342,1.9158,1.8931,1.8649,1.827,1.7915,3.1779,3.1895,3.1098,3.0863,3.1028,3.0336,2.999,2.9914,2.9917,3.0231,3.0777,3.1038,3.1087,3.0936,3.0689,2.9953,2.8904,2.8642,2.8085,2.7359,2.7373,2.7469,2.7513,2.7513,2.733,2.6962,2.5977,2.5257,2.4803,2.3807,2.3348,2.3412,2.3474,2.3576,2.3642,2.3696,2.3707,2.3707,2.3513,2.3399,2.3412,2.309,2.2642,2.2065,2.1339,2.0707,2.0188,2.0202,2.0224,2.0213,2.0159,2.0077,2.0022,2.0051,2.0029,1.9979,2.0401,2.0627,2.0541,2.0999,2.1591,2.2377,2.2447,2.2635,2.3084,2.3102,2.3205,2.3389,2.3553,2.3739,2.3896,2.4064,2.4034,2.3786,2.344,2.307,2.2778,2.2413,2.2417,2.2972,2.3455,2.3966,2.4524,2.5008,2.5331,2.5336,2.4439,2.3154,2.1973,2.1409,2.1019,2.0643,2.0575,2.0563,2.0586,2.0561,2.0529,2.0506,2.046,2.0448,2.0443,2.0375,2.032,2.0262,2.0152,2.0006,1.987,1.9676,1.9483,1.9292,1.9074,1.8861,1.8574,1.8125,1.7636,3.1379,3.159,3.0978,3.0804,3.0926,3.0763,3.0359,2.9847,3.0038,3.0315,3.0651,3.0802,3.0972,3.1087,3.0644,3.0041,2.9415,2.8939,2.8322,2.7622,2.7585,2.7525,2.7444,2.7426,2.7077,2.6427,2.5759,2.5131,2.4557,2.3897,2.3594,2.3693,2.3771,2.3855,2.3896,2.3888,2.3888,2.3888,2.3798,2.3732,2.3649,2.3509,2.3009,2.2209,2.1444,2.0656,1.982,1.9777,1.9691,1.9605,1.9651,1.9671,1.9675,1.9812,1.9875,1.987,2.0549,2.1068,2.1237,2.1791,2.2427,2.3049,2.3126,2.3199,2.336,2.3383,2.3412,2.3542,2.3689,2.3886,2.4084,2.42,2.4312,2.4375,2.3915,2.3636,2.3598,2.3172,2.3128,2.38,2.4043,2.4442,2.5028,2.5332,2.524,2.4755,2.3845,2.2771,2.1721,2.0967,2.0639,2.0601,2.0604,2.0586,2.0581,2.0532,2.0493,2.0482,2.0428,2.041,2.0379,2.032,2.0254,2.0188,2.0074,1.9947,1.9794,1.9591,1.939,1.9208,1.8983,1.8734,1.8368,1.7899,1.7372,3.1892,3.196,3.1471,3.112,3.0877,3.1098,3.0813,3.024,3.0355,3.0123,2.9695,2.9591,2.9661,2.9765,2.9781,2.9415,2.8863,2.8852,2.8489,2.7827,2.7844,2.7547,2.7031,2.6965,2.6605,2.595,2.5321,2.4959,2.4773,2.4129,2.3834,2.3966,2.4094,2.4161,2.4142,2.4144,2.4145,2.4163,2.4219,2.4086,2.3769,2.3129,2.2681,2.2463,2.1698,2.0878,2.0075,1.9958,1.9645,1.9037,1.9617,1.9917,1.9871,2.0473,2.0827,2.0708,2.1445,2.2189,2.2935,2.3183,2.3283,2.3424,2.3499,2.3571,2.3649,2.3761,2.3774,2.3774,2.3917,2.4094,2.419,2.4358,2.4474,2.4508,2.4497,2.4586,2.4569,2.4676,2.473,2.4841,2.4889,2.5138,2.5259,2.5361,2.4878,2.3862,2.3405,2.2596,2.1263,2.0761,2.0586,2.0585,2.0604,2.0562,2.0512,2.0515,2.0469,2.0431,2.0407,2.0379,2.0327,2.0254,2.019,2.0098,2.0,1.987,1.9695,1.949,1.9274,1.9084,1.8816,1.8487,1.8003,1.7635,1.7264,3.1188,3.1312,3.1216,3.1143,3.1137,3.1372,3.1112,3.0483,3.0109,2.9626,2.9064,2.8564,2.8858,2.9776,2.9874,2.9581,2.9032,2.9148,2.8824,2.8138,2.7687,2.7352,2.7113,2.6643,2.6087,2.5518,2.5208,2.4863,2.4486,2.4164,2.4067,2.4115,2.4247,2.4321,2.4321,2.4311,2.4329,2.432,2.4347,2.4293,2.4145,2.3784,2.3294,2.2714,2.2312,2.1738,2.0986,2.0904,2.0732,2.0435,2.0687,2.0783,2.0704,2.1414,2.179,2.1739,2.2465,2.3085,2.3452,2.3497,2.3576,2.3682,2.3707,2.3782,2.3937,2.4057,2.4135,2.4136,2.4182,2.4284,2.4411,2.4507,2.4601,2.4655,2.4776,2.4839,2.487,2.4942,2.5056,2.5111,2.5212,2.5284,2.5361,2.5453,2.5036,2.4019,2.3477,2.2631,2.1484,2.0877,2.0561,2.0533,2.0546,2.052,2.0511,2.0467,2.0431,2.0399,2.0366,2.0332,2.0254,2.0203,2.0112,1.9996,1.9898,1.9763,1.9591,1.939,1.9188,1.8957,1.8574,1.8173,1.78,1.7491,1.7154,3.1005,3.0978,3.1137,3.131,3.1449,3.1673,3.1406,3.0751,3.0022,2.9405,2.8827,2.807,2.8346,2.9394,2.9523,2.9311,2.9023,2.9138,2.8954,2.8487,2.7934,2.7483,2.7103,2.6551,2.5776,2.5051,2.4937,2.4704,2.4293,2.4275,2.4293,2.4321,2.4429,2.4491,2.4471,2.4468,2.4474,2.4493,2.4485,2.4468,2.4464,2.4367,2.3943,2.3262,2.3123,2.2738,2.1962,2.1917,2.1789,2.1589,2.1734,2.1787,2.1737,2.2437,2.2818,2.2783,2.3329,2.3714,2.3743,2.3771,2.3819,2.3919,2.3959,2.404,2.4201,2.4338,2.4425,2.4508,2.4679,2.4862,2.4607,2.466,2.4723,2.4813,2.4905,2.4942,2.4981,2.5078,2.5182,2.5257,2.5331,2.5379,2.5434,2.553,2.5294,2.4459,2.3844,2.2988,2.2046,2.1239,2.082,2.0567,2.0485,2.0494,2.0478,2.0448,2.0394,2.0357,2.0315,2.0249,2.0186,2.0112,2.0022,1.9898,1.9794,1.9642,1.9459,1.9282,1.9006,1.868,1.832,1.7966,1.763,1.7337,1.6989,3.1975,3.1349,3.1634,3.1763,3.1818,3.2055,3.176,3.1113,3.0338,2.9675,2.9104,2.8362,2.82,2.8524,2.8392,2.8263,2.8465,2.8708,2.8797,2.8785,2.8784,2.8065,2.6701,2.6615,2.5856,2.4569,2.4543,2.446,2.4403,2.4462,2.4512,2.4572,2.4631,2.4671,2.4665,2.4692,2.47,2.4689,2.47,2.4692,2.4684,2.4631,2.4425,2.4137,2.4118,2.3713,2.3052,2.2932,2.2611,2.1857,2.2537,2.2868,2.283,2.3457,2.3828,2.3806,2.3919,2.4006,2.4084,2.4125,2.4201,2.4257,2.4403,2.4444,2.4611,2.4813,2.4952,2.4863,2.5681,2.5773,2.5084,2.5147,2.5115,2.5124,2.512,2.5256,2.522,2.5384,2.5331,2.5372,2.5445,2.5511,2.5565,2.5648,2.532,2.4725,2.4375,2.3744,2.2326,2.1781,2.1331,2.0704,2.0437,2.0388,2.041,2.0396,2.0376,2.0311,2.026,2.0183,2.0093,1.9998,1.99,1.9788,1.9636,1.9474,1.932,1.9082,1.8762,1.844,1.8135,1.7794,1.7467,1.715,1.6825,3.2397,3.1838,3.1983,3.209,3.2144,3.2318,3.2279,3.2043,3.1397,3.0724,3.0087,2.944,2.8961,2.865,2.8651,2.8676,2.8718,2.8893,2.8998,2.9,2.8585,2.8064,2.759,2.7086,2.6302,2.5365,2.5262,2.5026,2.463,2.4655,2.4703,2.4734,2.4798,2.483,2.4825,2.4886,2.4888,2.49,2.4886,2.4884,2.4837,2.4813,2.4738,2.4572,2.4425,2.4217,2.3984,2.3939,2.3773,2.3467,2.3736,2.3877,2.3851,2.4063,2.4172,2.4115,2.4192,2.4266,2.4293,2.4399,2.4495,2.4582,2.511,2.5449,2.5684,2.6169,2.6595,2.6695,2.6931,2.6988,2.6829,2.6696,2.6721,2.6746,2.6809,2.6629,2.6304,2.62,2.6068,2.5617,2.5521,2.5588,2.5636,2.5677,2.5566,2.5252,2.4755,2.3881,2.2887,2.2156,2.1422,2.0686,2.0371,2.0328,2.0285,2.0311,2.0315,2.026,2.0187,2.0088,1.9993,1.9894,1.9788,1.9629,1.9467,1.9312,1.9158,1.8807,1.8506,1.8246,1.7944,1.7618,1.7313,1.7002,1.6709,3.2506,3.2267,3.2318,3.2403,3.2487,3.2638,3.2784,3.2802,3.2196,3.165,3.116,3.0334,2.9679,2.9325,2.9159,2.9093,2.9078,2.9134,2.9189,2.9198,2.869,2.8361,2.8096,2.7624,2.6981,2.6271,2.5976,2.563,2.5205,2.4964,2.4875,2.4915,2.4947,2.4981,2.5,2.5037,2.5062,2.505,2.5056,2.5025,2.4974,2.4954,2.4941,2.4881,2.4712,2.457,2.4599,2.454,2.4524,2.4532,2.4532,2.4518,2.4488,2.4437,2.4374,2.4383,2.4461,2.4508,2.4548,2.4654,2.4862,2.5205,2.5757,2.6265,2.6682,2.73,2.7656,2.7779,2.8107,2.8255,2.8345,2.8492,2.8431,2.8005,2.7889,2.7734,2.7215,2.6962,2.6433,2.5778,2.5597,2.5648,2.57,2.5703,2.5677,2.5686,2.4946,2.4045,2.318,2.2265,2.136,2.0576,2.0299,2.0223,2.0167,2.0169,2.0169,2.0122,2.0073,1.9977,1.987,1.9782,1.9636,1.9467,1.9305,1.914,1.8895,1.8556,1.8297,1.8053,1.776,1.7455,1.7167,1.6892,1.6581,3.2354,3.2541,3.2654,3.2766,3.286,3.3081,3.3232,3.3179,3.2649,3.2393,3.213,3.0944,3.047,3.0253,2.9712,2.9407,2.9473,2.9373,2.9326,2.9285,2.9307,2.8976,2.8428,2.8409,2.7959,2.7122,2.6459,2.6193,2.6178,2.5613,2.5298,2.5215,2.5263,2.5285,2.5231,2.5253,2.5201,2.5204,2.5217,2.5162,2.5109,2.5112,2.5087,2.5091,2.5006,2.4935,2.4818,2.4804,2.479,2.4771,2.4778,2.476,2.4707,2.4645,2.4629,2.4684,2.4707,2.4776,2.4934,2.5009,2.5442,2.6155,2.6422,2.6999,2.7666,2.7961,2.8093,2.8295,2.8792,2.9231,2.9413,2.9896,2.9771,2.8338,2.8281,2.8307,2.8011,2.7406,2.6626,2.6005,2.5832,2.5741,2.5702,2.5692,2.5654,2.5384,2.4832,2.3903,2.2968,2.2101,2.129,2.055,2.0178,2.0083,2.0031,1.9986,1.9986,1.9965,1.9915,1.9854,1.9763,1.9648,1.9499,1.9327,1.9079,1.8912,1.8661,1.8351,1.8103,1.785,1.7561,1.7284,1.7014,1.6751,1.6434,3.3217,3.2884,3.3034,3.3172,3.3294,3.3488,3.3583,3.3634,3.3441,3.3154,3.2686,3.2298,3.1892,3.1321,3.0615,3.0294,3.0326,2.98,2.9481,2.9481,2.9521,2.9457,2.9298,2.9324,2.8969,2.8179,2.7481,2.717,2.7173,2.6994,2.6947,2.6872,2.6373,2.6149,2.6115,2.564,2.5337,2.5332,2.5337,2.5308,2.5293,2.5262,2.5247,2.5219,2.5222,2.519,2.5138,2.5,2.4948,2.4942,2.4942,2.4941,2.49,2.4893,2.4867,2.4912,2.4953,2.5316,2.5844,2.5995,2.6387,2.7244,2.7909,2.8401,2.8774,2.9287,2.9608,2.9707,3.0025,3.0178,3.032,3.0478,3.0331,2.9825,2.9815,2.9535,2.8971,2.8345,2.7544,2.6796,2.6581,2.636,2.5861,2.568,2.542,2.4921,2.4457,2.3727,2.242,2.179,2.1192,2.0358,2.015,1.9955,1.9931,1.9875,1.9841,1.9835,1.9806,1.9738,1.9635,1.9518,1.9361,1.913,1.8886,1.8653,1.8403,1.816,1.7921,1.7704,1.7444,1.7179,1.6888,1.6591,1.6313,3.3548,3.3271,3.3426,3.3541,3.3657,3.3793,3.39,3.3947,3.4023,3.379,3.3418,3.3136,3.2874,3.2323,3.1599,3.1295,3.1308,3.0556,3.0142,3.0058,2.9758,2.9737,2.9805,2.9888,2.9749,2.9251,2.8517,2.8191,2.824,2.7986,2.7827,2.7724,2.7354,2.7118,2.708,2.6639,2.6262,2.5959,2.5888,2.5725,2.5523,2.5678,2.5823,2.5861,2.6111,2.6266,2.6256,2.6124,2.5775,2.5268,2.5103,2.5105,2.5144,2.5379,2.5551,2.5614,2.5937,2.6404,2.6891,2.6993,2.7395,2.824,2.8903,2.94,2.9694,3.0317,3.0578,3.0642,3.0613,3.0672,3.0716,3.0739,3.0714,3.0658,3.0653,3.0373,2.9629,2.9073,2.8398,2.765,2.7147,2.672,2.6289,2.571,2.5402,2.4824,2.4119,2.3499,2.2138,2.1393,2.0728,2.0211,1.9958,1.9853,1.9824,1.9763,1.9706,1.9693,1.9686,1.962,1.9511,1.9387,1.9248,1.8948,1.868,1.8471,1.8246,1.7997,1.7772,1.7554,1.7341,1.7084,1.6805,1.6514,1.6219,3.3455,3.3615,3.3748,3.3855,3.3921,3.4049,3.4148,3.4209,3.4269,3.4298,3.415,3.3669,3.3417,3.3277,3.2586,3.2279,3.2287,3.1603,3.121,3.1056,3.0598,3.0227,3.0057,3.0085,3.0112,3.0043,2.9486,2.9212,2.9242,2.866,2.8058,2.8256,2.8174,2.8067,2.8009,2.8017,2.7456,2.6878,2.6797,2.6421,2.5794,2.6369,2.6794,2.6794,2.7373,2.7701,2.7658,2.761,2.7022,2.5721,2.5648,2.5671,2.5657,2.6184,2.6562,2.6603,2.7355,2.7694,2.7908,2.7962,2.8376,2.9187,2.944,2.9706,3.0385,3.0559,3.0675,3.0712,3.0716,3.0715,3.0767,3.0785,3.0795,3.0783,3.0777,3.0414,2.9746,2.9587,2.9167,2.8385,2.7554,2.6933,2.684,2.6091,2.564,2.4984,2.3945,2.3161,2.2388,2.1482,2.0378,2.0013,2.0007,1.9738,1.9713,1.9668,1.9606,1.9532,1.9536,1.9472,1.9357,1.9224,1.9069,1.877,1.8499,1.8287,1.8078,1.7861,1.7658,1.746,1.7236,1.7003,1.6717,1.6423,1.6122,3.3775,3.3847,3.4023,3.4099,3.4148,3.4269,3.4316,3.434,3.4363,3.4427,3.4398,3.4322,3.4258,3.4343,3.3639,3.3335,3.3223,3.2613,3.229,3.235,3.2218,3.1298,3.0438,3.0286,3.0327,3.0331,3.0158,3.0167,3.0216,2.9893,2.9791,2.9852,2.9205,2.8964,2.8906,2.8397,2.7961,2.7771,2.7752,2.7644,2.7424,2.754,2.7714,2.7753,2.7981,2.8101,2.8063,2.8063,2.7871,2.7306,2.7215,2.721,2.7157,2.7383,2.7547,2.7648,2.7851,2.8299,2.8803,2.893,2.9357,3.0168,3.0241,3.0429,3.0636,3.0695,3.0728,3.0755,3.0768,3.0817,3.0829,3.0836,3.084,3.0797,3.078,3.0702,3.0476,3.0378,3.0041,2.9231,2.8793,2.8055,2.7166,2.6571,2.5929,2.4854,2.4058,2.3322,2.2653,2.1797,2.0777,2.0465,2.0294,1.9867,1.962,1.9578,1.9496,1.9391,1.9357,1.9321,1.9176,1.9018,1.8807,1.8555,1.8338,1.8127,1.7927,1.7726,1.7542,1.7353,1.7134,1.6882,1.6581,1.6285,1.5996,3.3998,3.4036,3.4166,3.4257,3.4293,3.4404,3.445,3.4461,3.4506,3.4539,3.4583,3.4639,3.4751,3.4822,3.4471,3.4348,3.4315,3.3661,3.3363,3.3353,3.3081,3.217,3.1126,3.0681,3.0491,3.0491,3.0506,3.0549,3.0582,3.0606,3.0615,3.0468,3.0115,2.987,2.9836,2.939,2.8919,2.8722,2.8633,2.8504,2.8138,2.8472,2.8627,2.8743,2.8957,2.9206,2.9206,2.9206,2.8865,2.8193,2.7959,2.7982,2.8021,2.8365,2.8533,2.8597,2.8911,2.9411,2.9738,2.988,3.0137,3.0584,3.0725,3.0752,3.0741,3.0741,3.0819,3.13,3.1325,3.1543,3.1756,3.1554,3.1148,3.0831,3.0728,3.0749,3.0761,3.0672,3.0441,2.9972,2.9474,2.8947,2.7767,2.7388,2.6446,2.5393,2.4732,2.3928,2.312,2.2198,2.1504,2.1248,2.0786,2.0361,1.9981,1.9863,1.9589,1.946,1.9264,1.9222,1.8948,1.878,1.8603,1.8378,1.817,1.7966,1.7794,1.7624,1.7437,1.7244,1.7005,1.6747,1.6459,1.6148,1.5869,3.4179,3.4252,3.4311,3.4351,3.4427,3.4484,3.4547,3.4539,3.4655,3.4708,3.4749,3.4811,3.4917,3.5019,3.4999,3.5165,3.5223,3.4603,3.4462,3.4199,3.3731,3.2851,3.2187,3.1241,3.078,3.063,3.0597,3.0625,3.0625,3.0625,3.061,3.0595,3.0556,3.0571,3.0459,3.0463,3.0184,2.9663,2.9537,2.926,2.8906,2.9243,2.9537,2.9641,3.0104,3.0412,3.0487,3.05,2.9966,2.8475,2.8383,2.8528,2.8566,2.9202,2.9489,2.9604,3.0058,3.0503,3.0646,3.0573,3.065,3.073,3.0767,3.0785,3.0824,3.0931,3.1308,3.1893,3.2159,3.2523,3.2876,3.2552,3.1818,3.12,3.0846,3.0777,3.0655,3.0618,3.0575,3.057,2.9791,2.9359,2.8876,2.8322,2.744,2.6282,2.5582,2.4824,2.3945,2.3055,2.2499,2.2163,2.16,2.09,2.0535,2.0223,1.9855,1.955,1.9282,1.91,1.8723,1.8536,1.8371,1.8187,1.7992,1.7856,1.7704,1.7519,1.7358,1.7162,1.6959,1.6659,1.6353,1.6038,1.5726,3.434,3.4351,3.442,3.4473,3.4495,3.4612,3.4655,3.4647,3.4742,3.4821,3.4879,3.4983,3.5081,3.516,3.5277,3.5404,3.5477,3.5324,3.541,3.5286,3.4569,3.4175,3.3537,3.2398,3.1319,3.0862,3.0661,3.0692,3.0692,3.068,3.068,3.0676,3.0672,3.0665,3.068,3.0655,3.063,3.0435,3.0392,3.0275,3.0137,3.0219,3.0399,3.0445,3.0661,3.0739,3.0778,3.0778,3.0581,3.0314,3.0116,2.9943,3.0014,3.0212,3.0341,3.0383,3.0503,3.0714,3.0767,3.0812,3.0788,3.0854,3.0967,3.08,3.0859,3.1502,3.1845,3.2242,3.2698,3.3184,3.3321,3.3147,3.247,3.1794,3.1471,3.1183,3.0661,3.0506,3.0496,3.0378,3.0185,2.9762,2.9015,2.8763,2.8011,2.7176,2.642,2.5736,2.4812,2.3819,2.342,2.2994,2.2282,2.1617,2.1333,2.0902,2.0327,1.9948,1.9621,1.9155,1.8775,1.8457,1.8363,1.8128,1.785,1.7715,1.7584,1.7482,1.7318,1.7104,1.6873,1.657,1.6231,1.5911,1.5787,3.4431,3.4495,3.4509,3.4591,3.4655,3.471,3.4761,3.482,3.4898,3.4982,3.5054,3.516,3.5254,3.5355,3.5451,3.5526,3.5604,3.5693,3.5737,3.5639,3.5254,3.4913,3.4478,3.3596,3.2579,3.1491,3.1305,3.1141,3.0837,3.075,3.0743,3.0749,3.0743,3.0739,3.0748,3.0737,3.0752,3.0713,3.0743,3.0757,3.0788,3.0794,3.0796,3.08,3.0801,3.0801,3.08,3.08,3.08,3.0795,3.0798,3.0747,3.0747,3.0747,3.074,3.0759,3.0749,3.0767,3.0819,3.1182,3.1442,3.1424,3.1757,3.1987,3.2056,3.2473,3.2845,3.3227,3.3635,3.3884,3.3821,3.3788,3.3219,3.2106,3.1774,3.133,3.0584,3.0359,3.0359,3.0292,3.0215,2.9882,2.9464,2.9015,2.8228,2.7261,2.6371,2.5694,2.4995,2.4139,2.4052,2.3613,2.2918,2.238,2.2163,2.1643,2.0886,2.0499,2.0163,1.9584,1.902,1.8714,1.8415,1.8104,1.7738,1.7624,1.7496,1.7403,1.7248,1.6975,1.6714,1.6421,1.6165,1.5915,1.5921,3.4528,3.4626,3.4645,3.4708,3.481,3.485,3.4889,3.4964,3.5073,3.5157,3.5239,3.5315,3.5397,3.5515,3.5575,3.5657,3.5723,3.5761,3.5797,3.5756,3.5721,3.5372,3.494,3.462,3.3946,3.2503,3.201,3.155,3.1123,3.0823,3.0791,3.0799,3.0789,3.0778,3.0788,3.0796,3.0785,3.0777,3.0785,3.079,3.0795,3.0798,3.0799,3.08,3.08,3.0956,3.1074,3.1113,3.1132,3.1171,3.119,3.1187,3.1137,3.0851,3.0912,3.0962,3.1103,3.1284,3.1581,3.1933,3.2301,3.2334,3.2873,3.3249,3.3247,3.3385,3.3749,3.4199,3.4532,3.4639,3.458,3.4533,3.373,3.2636,3.2051,3.15,3.0819,3.0583,3.061,3.0092,3.0038,2.9831,2.9469,2.9026,2.8197,2.7349,2.6442,2.5641,2.4959,2.4435,2.4272,2.4155,2.3474,2.3039,2.2793,2.2466,2.1707,2.1099,2.0738,2.0137,1.9497,1.9204,1.8878,1.803,1.7647,1.7592,1.7479,1.733,1.7117,1.6831,1.6601,1.6377,1.6145,1.5918,1.6113,3.4689,3.4772,3.4772,3.4831,3.4964,3.502,3.5091,3.5149,3.5239,3.5338,3.5443,3.5464,3.5532,3.5651,3.5674,3.5737,3.5773,3.5814,3.5826,3.5803,3.5807,3.5651,3.5606,3.5488,3.5015,3.4067,3.2988,3.2109,3.1729,3.1187,3.1145,3.09,3.0948,3.0975,3.1002,3.0832,3.105,3.115,3.1113,3.1074,3.1073,3.1071,3.1049,3.1066,3.1104,3.1357,3.1785,3.1921,3.2213,3.2856,3.2954,3.2917,3.2552,3.1601,3.1367,3.1719,3.1893,3.2084,3.2607,3.301,3.3176,3.3202,3.3421,3.3434,3.3562,3.3946,3.4384,3.4605,3.5059,3.5358,3.5319,3.5136,3.4717,3.3899,3.3333,3.2904,3.2161,3.1724,3.1262,3.0421,3.0105,2.9779,2.9418,2.8951,2.8166,2.7316,2.6422,2.5698,2.5087,2.4589,2.4275,2.4164,2.4003,2.3682,2.3411,2.3074,2.2535,2.1807,2.1322,2.0855,2.0288,1.99,1.9357,1.8557,1.7983,1.7837,1.7638,1.7486,1.7307,1.7234,1.6837,1.6422,1.6441,1.6501,1.6654,3.484,3.4945,3.4945,3.5038,3.5143,3.5193,3.5254,3.5352,3.539,3.5496,3.5589,3.5604,3.5648,3.5742,3.5751,3.581,3.5842,3.585,3.5861,3.5836,3.585,3.5869,3.5902,3.5899,3.5724,3.5093,3.404,3.3119,3.2787,3.2423,3.2056,3.2159,3.2145,3.2148,3.2148,3.2226,3.2087,3.2105,3.21,3.2095,3.2093,3.2105,3.21,3.2116,3.2115,3.2368,3.2622,3.2758,3.295,3.3278,3.3374,3.3392,3.3138,3.2792,3.228,3.2675,3.2765,3.287,3.3392,3.3691,3.4028,3.4091,3.4305,3.4561,3.4622,3.4904,3.502,3.5101,3.514,3.5457,3.5325,3.5323,3.4825,3.4127,3.3809,3.3334,3.2638,3.2315,3.1656,3.0885,3.0631,3.0199,2.9391,2.8828,2.8109,2.726,2.6377,2.5718,2.5124,2.4643,2.42,2.4016,2.3884,2.3631,2.3383,2.3152,2.2913,2.2328,2.188,2.1412,2.101,2.0595,1.9935,1.9169,1.8714,1.8563,1.8408,1.8429,1.8054,1.7648,1.7415,1.7197,1.7117,1.7146,1.7278,3.4992,3.5145,3.5151,3.5226,3.5327,3.5352,3.5411,3.5521,3.5532,3.561,3.5698,3.5713,3.5737,3.5793,3.5807,3.5838,3.5889,3.5892,3.5888,3.5883,3.588,3.5899,3.5921,3.5938,3.5891,3.574,3.5254,3.4512,3.3728,3.33,3.332,3.3183,3.3317,3.3391,3.3251,3.3111,3.3375,3.3389,3.3381,3.3378,3.3372,3.3366,3.3377,3.3375,3.3395,3.3395,3.3587,3.3646,3.3797,3.3985,3.4018,3.3935,3.3843,3.3806,3.3835,3.3843,3.3685,3.3618,3.3999,3.4374,3.4824,3.4823,3.5395,3.5603,3.5573,3.5391,3.5496,3.5451,3.5369,3.5285,3.516,3.5113,3.475,3.4244,3.3866,3.3551,3.3093,3.2708,3.2417,3.1808,3.135,3.0636,2.9866,2.8729,2.7992,2.7357,2.6493,2.5621,2.5027,2.4464,2.4054,2.3831,2.3609,2.3371,2.3163,2.2947,2.2756,2.2451,2.2194,2.1912,2.1586,2.1247,2.0582,2.0084,2.0064,1.992,1.967,1.9145,1.8536,1.8135,1.8038,1.7906,1.7736,1.7716,1.7832,3.5198,3.5285,3.5348,3.5405,3.5483,3.5553,3.5612,3.5662,3.5672,3.5703,3.5799,3.5773,3.5799,3.5827,3.5862,3.5879,3.5894,3.5914,3.5912,3.5906,3.5903,3.5938,3.5989,3.5996,3.5996,3.5973,3.5844,3.5357,3.4623,3.3898,3.3542,3.3595,3.3689,3.3467,3.376,3.3791,3.3393,3.3448,3.3477,3.3483,3.347,3.3504,3.3493,3.3481,3.3556,3.3835,3.4383,3.4503,3.4708,3.5347,3.544,3.5468,3.55,3.5507,3.551,3.529,3.496,3.4687,3.5224,3.5403,3.5452,3.5402,3.5636,3.5625,3.5531,3.5444,3.5381,3.5246,3.5174,3.5079,3.4954,3.4898,3.4734,3.4569,3.4287,3.4239,3.3945,3.3396,3.3063,3.2273,3.166,3.1047,3.0368,2.9069,2.7919,2.7274,2.6612,2.5766,2.5085,2.4644,2.431,2.4203,2.3928,2.3671,2.3296,2.305,2.2766,2.2542,2.2391,2.2271,2.1939,2.1642,2.1704,2.1337,2.1228,2.0739,2.0072,1.9449,1.8894,1.8656,1.8603,1.8459,1.8288,1.8311,1.8334,3.547,3.5431,3.5502,3.5558,3.5615,3.5646,3.5693,3.5742,3.5751,3.5797,3.5858,3.585,3.5872,3.5876,3.5883,3.5919,3.5953,3.5951,3.5965,3.596,3.5951,3.5976,3.5996,3.6009,3.6018,3.5994,3.596,3.5795,3.5277,3.5085,3.4846,3.4786,3.4798,3.4889,3.4636,3.4781,3.4849,3.4859,3.4845,3.4814,3.4786,3.4763,3.4737,3.4747,3.4708,3.4922,3.5155,3.5307,3.541,3.5827,3.5775,3.5745,3.5732,3.5684,3.5654,3.5658,3.5827,3.5776,3.5718,3.5752,3.5755,3.5635,3.5601,3.5464,3.5355,3.5339,3.5234,3.5046,3.4964,3.4888,3.4798,3.4668,3.4612,3.4528,3.4461,3.4416,3.4328,3.4244,3.3719,3.2836,3.1906,3.1152,3.0381,2.9299,2.8235,2.7666,2.7108,2.6438,2.5814,2.5338,2.5063,2.485,2.4519,2.4176,2.3746,2.3375,2.2983,2.2711,2.2412,2.229,2.2087,2.195,2.2111,2.1943,2.1531,2.0989,2.0355,2.0047,1.9767,1.9479,1.9179,1.8994,1.8833,1.8753,1.879,3.5654,3.5582,3.5632,3.5688,3.5728,3.5757,3.5769,3.583,3.583,3.5857,3.5885,3.5895,3.5917,3.5919,3.5916,3.5953,3.6007,3.6018,3.6009,3.6015,3.6015,3.601,3.6002,3.5986,3.597,3.5968,3.5926,3.5838,3.588,3.5827,3.5773,3.5955,3.5675,3.5766,3.5838,3.5736,3.5666,3.5671,3.57,3.5703,3.5712,3.5748,3.576,3.5795,3.5853,3.5853,3.583,3.578,3.5756,3.575,3.6009,3.609,3.6082,3.6302,3.6395,3.6479,3.6716,3.6722,3.6505,3.637,3.6158,3.6066,3.5943,3.6096,3.5886,3.5665,3.559,3.5632,3.557,3.5324,3.4944,3.4858,3.4663,3.4531,3.4335,3.43,3.4245,3.4179,3.3617,3.2433,3.153,3.0838,3.0075,2.9308,2.859,2.8044,2.7519,2.6989,2.6401,2.582,2.5469,2.5164,2.4958,2.46,2.4222,2.3781,2.334,2.3047,2.276,2.2689,2.2733,2.2643,2.2668,2.2348,2.1914,2.1385,2.086,2.0783,2.0679,2.0062,1.9565,1.9498,1.9376,1.9232,1.9101,3.5784,3.5799,3.5775,3.5779,3.5803,3.5845,3.5872,3.5878,3.5898,3.5872,3.5891,3.5894,3.5951,3.5986,3.5983,3.5996,3.6004,3.6014,3.6133,3.6129,3.6041,3.6205,3.6191,3.6114,3.5972,3.5911,3.5891,3.5898,3.5892,3.5901,3.5914,3.5889,3.5908,3.59,3.5894,3.5885,3.5872,3.5878,3.5868,3.585,3.585,3.5877,3.5903,3.5853,3.5781,3.5718,3.5737,3.595,3.6033,3.6061,3.646,3.6697,3.6775,3.7091,3.7271,3.7329,3.7491,3.7515,3.7389,3.7321,3.7512,3.75,3.7261,3.6939,3.6733,3.6944,3.6919,3.6599,3.6377,3.6176,3.5793,3.5441,3.5019,3.4697,3.4438,3.4197,3.4161,3.4111,3.3438,3.2084,3.1305,3.0913,3.0243,2.9588,2.8855,2.8292,2.7687,2.716,2.6539,2.5973,2.5631,2.5351,2.5248,2.4986,2.4692,2.4364,2.4164,2.3917,2.3658,2.3716,2.3823,2.3647,2.3172,2.2897,2.2475,2.1924,2.1392,2.1144,2.0811,2.0281,1.9904,1.9669,1.945,1.9232,1.9139,3.5856,3.5862,3.5866,3.5879,3.5869,3.5885,3.5897,3.5886,3.5886,3.5933,3.5965,3.5949,3.598,3.6009,3.6003,3.6011,3.6093,3.662,3.6731,3.7031,3.7205,3.7167,3.6971,3.6604,3.6424,3.6073,3.5944,3.5901,3.5882,3.6066,3.5924,3.5898,3.6031,3.5898,3.5889,3.5985,3.5927,3.5858,3.5838,3.5773,3.5862,3.6314,3.6537,3.6503,3.7098,3.719,3.7262,3.721,3.7181,3.7192,3.7339,3.7399,3.7429,3.7721,3.7816,3.7896,3.8061,3.8211,3.8105,3.7909,3.7566,3.7421,3.7297,3.7294,3.7314,3.7167,3.7028,3.6894,3.6976,3.6789,3.641,3.5845,3.5312,3.494,3.4581,3.4216,3.4074,3.4023,3.3484,3.2216,3.1824,3.1555,3.079,2.9992,2.9256,2.8541,2.7919,2.7324,2.6756,2.6359,2.6091,2.5939,2.5865,2.5651,2.5363,2.5198,2.5065,2.48,2.4552,2.4574,2.4561,2.395,2.3539,2.3293,2.3028,2.2486,2.1944,2.1451,2.0909,2.0303,1.9917,1.9636,1.9417,1.9213,1.9157,3.5931,3.5921,3.5934,3.5926,3.5947,3.5936,3.5926,3.5934,3.5934,3.5962,3.6034,3.6228,3.6393,3.6437,3.6718,3.6816,3.7028,3.7389,3.759,3.7823,3.801,3.8062,3.7735,3.7458,3.7257,3.6717,3.6624,3.6713,3.6787,3.6639,3.6752,3.6771,3.6585,3.6604,3.634,3.6444,3.6414,3.6192,3.6115,3.6106,3.6241,3.6614,3.7204,3.7265,3.7773,3.7904,3.788,3.7823,3.7828,3.7899,3.8028,3.8131,3.816,3.8147,3.8193,3.8321,3.8491,3.8795,3.8641,3.8388,3.8018,3.8116,3.7998,3.7896,3.7679,3.7642,3.7835,3.7664,3.7564,3.7296,3.6928,3.6203,3.5379,3.489,3.4395,3.4049,3.3972,3.3889,3.3235,3.2429,3.216,3.1767,3.0937,3.0098,2.9515,2.8862,2.8376,2.7782,2.7148,2.6876,2.6821,2.6694,2.6667,2.6398,2.6113,2.5945,2.5794,2.5745,2.5495,2.5279,2.508,2.453,2.4131,2.3962,2.3607,2.3051,2.2465,2.188,2.1077,2.0268,1.9954,1.9675,1.9398,1.9213,1.9139,3.6003,3.6005,3.6015,3.6013,3.5984,3.6003,3.6005,3.6029,3.6087,3.6175,3.6367,3.6968,3.7284,3.7402,3.7809,3.7997,3.8104,3.8319,3.8471,3.8542,3.877,3.8555,3.8416,3.8326,3.8164,3.8306,3.8006,3.7812,3.8035,3.7832,3.7943,3.8035,3.789,3.7725,3.7213,3.7832,3.7763,3.708,3.69,3.6822,3.6839,3.6972,3.7446,3.8009,3.8356,3.8514,3.8479,3.842,3.8396,3.8369,3.8697,3.8795,3.8765,3.914,3.9294,3.9384,3.9282,3.9333,3.9327,3.9302,3.9133,3.9002,3.8752,3.8837,3.8982,3.8992,3.8824,3.8492,3.8571,3.8018,3.7323,3.6443,3.5527,3.4883,3.4387,3.3947,3.3868,3.3734,3.3131,3.2712,3.2256,3.1768,3.0919,3.018,2.969,2.9192,2.8779,2.8252,2.7677,2.753,2.7569,2.7248,2.7182,2.6842,2.6572,2.6589,2.6556,2.6539,2.6337,2.5967,2.5797,2.554,2.5167,2.4743,2.4243,2.3737,2.3023,2.2278,2.1461,2.0694,2.009,1.9741,1.9434,1.9315,1.9376,3.6015,3.6015,3.6004,3.601,3.6012,3.6007,3.6007,3.6112,3.6589,3.716,3.7672,3.8047,3.8102,3.8214,3.8357,3.8629,3.8653,3.9176,3.9299,3.9356,3.9673,3.9609,3.9388,3.9131,3.8932,3.8481,3.833,3.8417,3.8234,3.8475,3.8364,3.8364,3.8866,3.8625,3.8117,3.8141,3.781,3.7146,3.6945,3.6936,3.6996,3.7392,3.7976,3.8801,3.9235,3.9383,3.9267,3.9171,3.9108,3.9042,3.9388,3.9342,3.9285,3.9573,3.9495,3.9458,3.9337,3.9232,3.9224,3.9154,3.92,3.9237,3.9224,3.9202,3.9142,3.9129,3.9115,3.8966,3.8637,3.7997,3.7543,3.6274,3.5377,3.504,3.4555,3.4007,3.3753,3.3573,3.3241,3.2943,3.256,3.2222,3.1542,3.0972,3.0437,2.9989,2.9626,2.911,2.8562,2.8459,2.844,2.7861,2.7538,2.7199,2.6979,2.6962,2.6793,2.6624,2.6522,2.6369,2.6279,2.6134,2.5768,2.5139,2.4788,2.4413,2.3507,2.2642,2.1909,2.1214,2.0935,2.0602,2.0436,2.0162,1.989,3.6004,3.6006,3.6013,3.6019,3.6062,3.6312,3.6588,3.6947,3.75,3.8047,3.8495,3.8777,3.8959,3.9023,3.9231,3.9363,3.9422,3.9828,4.0116,4.0177,4.0572,4.0393,4.0135,3.9954,3.9802,3.924,3.9132,3.9223,3.9334,3.9223,3.9262,3.9445,3.964,3.9615,3.9286,3.912,3.8785,3.8135,3.777,3.7572,3.7706,3.8043,3.8451,3.9328,3.9904,4.0148,4.0091,4.002,3.9918,3.9859,3.9758,3.9647,3.9551,3.9433,3.9337,3.9285,3.9219,3.9007,3.8738,3.9059,3.91,3.917,3.9115,3.9101,3.9101,3.9115,3.9087,3.885,3.8275,3.7757,3.7252,3.5948,3.5254,3.4911,3.4366,3.3785,3.3512,3.3342,3.3162,3.291,3.2702,3.2386,3.2109,3.1862,3.1355,3.0919,3.0502,2.9931,2.9397,2.9274,2.9116,2.8588,2.8129,2.7858,2.7537,2.7266,2.7046,2.6759,2.6707,2.672,2.6277,2.6082,2.5809,2.5492,2.4964,2.4397,2.3753,2.3031,2.2561,2.2364,2.2312,2.1966,2.1547,2.1043,2.0562,3.6012,3.6013,3.6022,3.6025,3.6201,3.7065,3.7888,3.8574,3.857,3.8582,3.8691,3.9601,3.9811,3.997,4.057,4.0739,4.0668,4.0747,4.0742,4.0747,4.0804,4.071,4.0699,4.0637,4.0452,4.0614,4.055,4.0234,4.0661,4.0352,4.039,4.0533,4.0404,4.0353,4.0314,4.0152,3.9734,3.8968,3.842,3.8344,3.8543,3.8311,3.8844,3.9566,4.0023,3.9998,3.9873,3.9773,3.9682,3.9606,3.9477,3.9446,3.9369,3.9259,3.9224,3.9183,3.9124,3.8725,3.8469,3.8915,3.9031,3.9087,3.9073,3.9087,3.9087,3.9059,3.9017,3.878,3.8266,3.7489,3.6713,3.5795,3.4898,3.4422,3.3894,3.3524,3.3265,3.3083,3.2914,3.2721,3.2522,3.2249,3.1966,3.1749,3.1658,3.1356,3.0887,3.0557,3.0074,2.9765,2.959,2.9282,2.8856,2.8602,2.8281,2.7908,2.7704,2.7518,2.7211,2.7103,2.6573,2.6239,2.6138,2.5824,2.5017,2.4343,2.3794,2.3559,2.3449,2.3319,2.311,2.2816,2.2245,2.1677,2.1216,3.6021,3.6022,3.601,3.6347,3.7109,3.8465,3.9263,3.9424,3.9445,3.9696,4.0298,4.0536,4.0544,4.0621,4.0839,4.0874,4.0854,4.0828,4.0826,4.0829,4.0818,4.08,4.0808,4.0796,4.0809,4.0803,4.0797,4.079,4.0745,4.0752,4.0681,4.0622,4.0639,4.0624,4.0588,4.0516,4.0,3.948,3.8912,3.8944,3.8965,3.8658,3.9166,3.9615,3.9851,3.9728,3.9587,3.9526,3.9471,3.9426,3.9335,3.9264,3.9251,3.9183,3.9129,3.911,3.9096,3.899,3.8827,3.8934,3.9054,3.9058,3.903,3.8993,3.8993,3.8993,3.8964,3.8662,3.8204,3.7446,3.6793,3.5954,3.5176,3.4612,3.4116,3.3735,3.3501,3.3293,3.3096,3.286,3.2669,3.2282,3.1956,3.1693,3.1582,3.1449,3.1251,3.0938,3.0696,3.0387,3.0165,2.9873,2.9668,2.9431,2.9044,2.8636,2.8481,2.8308,2.7912,2.7649,2.7493,2.7161,2.6772,2.6126,2.5274,2.4516,2.3858,2.3777,2.3819,2.364,2.3424,2.324,2.2946,2.2359,2.1938,3.601,3.6051,3.6387,3.7184,3.836,3.9336,3.9908,4.0189,4.0268,4.0591,4.0929,4.0932,4.0931,4.082,4.0828,4.0826,4.0809,4.0818,4.082,4.0808,4.0802,4.0809,4.0797,4.0797,4.0797,4.0797,4.079,4.0784,4.0739,4.068,4.0619,4.0564,4.055,4.0484,4.0408,4.0295,4.004,3.959,3.9238,3.9175,3.9099,3.8933,3.9137,3.95,3.958,3.9489,3.935,3.933,3.9304,3.9269,3.917,3.917,3.9156,3.911,3.8804,3.8785,3.8929,3.8748,3.8623,3.9178,3.9168,3.9139,3.9169,3.9172,3.9003,3.8906,3.8866,3.8708,3.807,3.7423,3.6846,3.6236,3.563,3.5025,3.4576,3.411,3.3864,3.363,3.3389,3.3158,3.2818,3.2444,3.2087,3.1806,3.1542,3.1408,3.1332,3.1189,3.1048,3.0925,3.0753,3.0581,3.0446,3.0277,2.982,2.9381,2.9156,2.8861,2.841,2.8225,2.824,2.7729,2.6995,2.6246,2.5484,2.4928,2.4476,2.4169,2.4103,2.3984,2.3849,2.3581,2.336,2.303,2.2693,3.6015,3.6093,3.7025,3.8252,3.9674,3.9805,4.0233,4.0861,4.0874,4.0939,4.0898,4.0888,4.0848,4.0821,4.0812,4.082,4.0808,4.0802,4.0809,4.0797,4.0803,4.0797,4.0797,4.0797,4.0797,4.0797,4.0778,4.0733,4.0647,4.0583,4.0523,4.0465,4.0402,4.0297,4.0205,4.0099,3.9886,3.9661,3.933,3.9155,3.9361,3.9135,3.8804,3.9277,3.9376,3.9343,3.9237,3.9183,3.9156,3.9129,3.9082,3.9096,3.9096,3.9069,3.866,3.8744,3.9058,3.9122,3.9186,3.9701,3.9612,3.9567,3.9577,3.9326,3.905,3.8792,3.8747,3.8649,3.8086,3.7747,3.7241,3.6604,3.5955,3.5454,3.5002,3.4584,3.427,3.4039,3.384,3.3599,3.3327,3.2928,3.2674,3.2408,3.1905,3.1587,3.1274,3.1252,3.13,3.1258,3.1207,3.1123,3.092,3.0734,3.0497,3.0072,2.9779,2.9412,2.9025,2.8768,2.8796,2.8044,2.7093,2.647,2.5909,2.5667,2.5317,2.4941,2.4672,2.4642,2.4433,2.3999,2.3732,2.3666,2.329,3.6012,3.6162,3.7544,3.8777,3.9747,4.0358,4.066,4.0826,4.0826,4.0851,4.0829,4.0843,4.0825,4.0808,4.0796,4.0809,4.0803,4.0803,4.0797,4.0797,4.0797,4.0797,4.079,4.079,4.079,4.0784,4.0739,4.0626,4.0512,4.0452,4.0368,4.0214,4.0158,4.009,3.9958,3.984,3.9721,3.9585,3.9561,3.9385,3.9525,3.9452,3.9295,3.9304,3.9237,3.928,3.9212,3.9184,3.9133,3.9101,3.9101,3.9082,3.9101,3.9082,3.9314,3.9581,3.9727,3.9863,4.0206,4.0474,4.0369,3.997,3.9758,3.9258,3.8915,3.8713,3.8554,3.8455,3.8271,3.7982,3.7615,3.6938,3.6355,3.5917,3.5492,3.5116,3.4718,3.453,3.4339,3.4118,3.3859,3.3568,3.3308,3.2886,3.2383,3.1899,3.1419,3.1261,3.1396,3.1427,3.1461,3.136,3.1173,3.1004,3.0852,3.0692,3.0347,3.0244,2.9966,2.9692,2.9323,2.8363,2.7354,2.6903,2.6434,2.623,2.5967,2.557,2.536,2.5315,2.5106,2.4717,2.4746,2.4744,2.4096,3.6163,3.6666,3.8263,3.9429,4.0218,4.0692,4.0848,4.082,4.0802,4.0796,4.0796,4.0796,4.0809,4.0797,4.0797,4.0797,4.0797,4.0797,4.0797,4.0797,4.079,4.0797,4.079,4.0759,4.0746,4.0733,4.0612,4.0489,4.0366,4.028,4.0177,4.0038,3.9954,3.9905,3.9743,3.9606,3.9577,3.9395,3.9698,3.9866,3.9836,3.9616,3.9301,3.9183,3.918,3.9314,3.9668,3.9714,3.9918,4.0104,4.0308,4.028,4.0288,4.0281,4.0348,4.0525,4.0649,4.0769,4.1199,4.1406,4.1119,4.0462,4.0325,3.9985,3.8729,3.8494,3.8316,3.8214,3.8135,3.7875,3.7666,3.7113,3.6862,3.6499,3.6259,3.5962,3.5695,3.5495,3.5356,3.5239,3.484,3.4292,3.3983,3.3495,3.306,3.2842,3.2256,3.2087,3.207,3.1867,3.1816,3.1715,3.1613,3.1309,3.1072,3.0977,3.0827,3.0767,3.0651,2.9913,2.9134,2.8411,2.7679,2.7281,2.6998,2.6883,2.6566,2.6213,2.6063,2.6019,2.5779,2.5465,2.5597,2.5678,2.5108,3.6613,3.7587,3.8986,4.0077,4.0809,4.0818,4.0814,4.0808,4.0809,4.0797,4.0797,4.0797,4.0797,4.0797,4.0797,4.0797,4.0797,4.0797,4.0797,4.079,4.0784,4.0759,4.0746,4.0726,4.0673,4.0583,4.0454,4.0339,4.0233,4.0118,4.0003,3.9868,3.984,3.9789,3.9708,3.9705,3.989,4.0034,4.0295,4.0547,4.0272,3.99,3.9751,3.9556,3.9472,3.9825,4.0308,4.0676,4.101,4.1144,4.1297,4.1201,4.1122,4.104,4.1253,4.1338,4.1385,4.1482,4.1779,4.2208,4.1403,4.0749,4.0884,4.0233,3.8871,3.8251,3.8101,3.7966,3.7881,3.7757,3.7541,3.7338,3.7129,3.6898,3.6724,3.6548,3.6361,3.6172,3.6109,3.6045,3.5557,3.4955,3.4585,3.4096,3.3799,3.3613,3.3474,3.3423,3.3237,3.2865,3.2628,3.2442,3.2273,3.1918,3.134,3.1193,3.1106,3.0692,3.0422,2.9677,2.8966,2.8348,2.7917,2.7764,2.753,2.7305,2.718,2.6941,2.6811,2.6662,2.6596,2.6387,2.6318,2.6338,2.6066,3.7767,3.9136,3.9444,4.0023,4.0754,4.0802,4.0803,4.0803,4.0797,4.0797,4.0797,4.0797,4.0797,4.0797,4.0797,4.0797,4.0797,4.079,4.079,4.079,4.0739,4.0707,4.068,4.0624,4.0558,4.0436,4.0306,4.0187,4.0267,4.0041,4.012,4.056,4.054,4.0718,4.118,4.1106,4.098,4.1002,4.1099,4.1382,4.14,4.1196,4.1196,4.1107,4.1126,4.1237,4.1363,4.1363,4.1441,4.1538,4.1664,4.1644,4.1638,4.1667,4.1823,4.2122,4.2132,4.2355,4.2669,4.2763,4.1976,4.0848,4.0693,3.9937,3.8802,3.7966,3.7792,3.7595,3.7503,3.7448,3.7279,3.7108,3.6913,3.6673,3.6471,3.6367,3.6237,3.6135,3.6071,3.5941,3.573,3.5421,3.5265,3.482,3.4414,3.4184,3.3858,3.3829,3.3829,3.3626,3.3474,3.322,3.2983,3.2094,3.1358,3.1348,3.1227,3.0759,3.0341,2.9854,2.9241,2.8387,2.8044,2.7986,2.7765,2.7505,2.7435,2.736,2.736,2.7225,2.7345,2.73,2.7165,2.6976,2.6727]}]]